[[{"header":{"parameterUnit":"m.s-1","parameterCategory":1,"la1":31.0,"la2":29.5877,"lo1":-88.7671,"lo2":-86.6584,"dx":0.0162,"dy":0.0185,"nx":115,"ny":88,"refTime":"2023-01-10T06:00:00:Z","depth":0,"parameterNumber":2,"parameterNumberName":"U-component_of_WINDS"},"data":[0.0,0.0,0.0,0.0,0.0,0.0,0.0,0.0,0.0,0.0,0.0,0.0,0.0,0.0,0.0,0.0,0.0,0.0,0.0,0.0,0.0,0.0,0.0,0.0,0.0,0.0,0.0,0.0,0.0,0.0,0.0,0.0,0.0,0.0,0.0,0.0,0.0,0.0,0.0,0.0,0.0,0.0,0.0,0.0,0.0,0.0,0.0,0.0,0.0,0.0,0.0,0.0,0.0,0.0,0.0,0.0,0.0,0.0,0.0,0.0,0.0,0.0,0.0,0.0,0.0,0.0,0.0,0.0,0.0,0.0,0.0,0.0,0.0,0.0,0.0,0.0,0.0,0.0,0.0,0.0,0.0,0.0,0.0,0.0,0.0,0.0,0.0,0.0,0.0,0.0,0.0,0.0,0.0,0.0,0.0,0.0,0.0,0.0,0.0,0.0,0.0,0.0,0.0,0.0,0.0,0.0,0.0,0.0,0.0,0.0,0.0,0.0,0.0,0.0,0.0,0.0,0.0,0.0,0.0,0.0,0.0,0.0,0.0,0.0,0.0,0.0,0.0,0.0,0.0,0.0,0.0,0.0,0.0,0.0,0.0,0.0,0.0,0.0,0.0,0.0,0.0,0.0,0.0,0.0,0.0,0.0,0.0,0.0,0.0,0.0,0.0,0.0,0.0,0.0,0.0,0.0,0.0,0.0,0.0,0.0,0.0,0.0,0.0,0.0,0.0,0.0,0.0,0.0,0.0,0.0,0.0,0.0,0.0,0.0,0.0,0.0,0.0,0.0,0.0,0.0,0.0,0.0,0.0,0.0,0.0,0.0,0.0,0.0,0.0,0.0,0.0,0.0,0.0,0.0,0.0,0.0,0.0,0.0,0.0,0.0,0.0,0.0,0.0,0.0,0.0,0.0,0.0,0.0,0.0,0.0,0.0,0.0,0.0,0.0,0.0,0.0,0.0,0.0,0.0,0.0,0.0,0.0,0.0,0.0,0.0,0.0,0.0,0.0,0.0,0.0,0.0,0.0,0.0,0.0,0.0,0.0,0.0,0.0,0.0,0.0,0.0,0.0,0.0,0.0,0.0,0.0,0.0,0.0,0.0,0.0,0.0,0.0,0.0,0.0,0.0,0.0,0.0,0.0,0.0,0.0,0.0,0.0,0.0,0.0,0.0,0.0,0.0,0.0,0.0,0.0,0.0,0.0,0.0,0.0,0.0,0.0,0.0,0.0,0.0,0.0,0.0,0.0,0.0,0.0,0.0,0.0,0.0,0.0,0.0,0.0,0.0,0.0,0.0,0.0,0.0,0.0,0.0,0.0,0.0,0.0,0.0,0.0,0.0,0.0,0.0,0.0,0.0,0.0,0.0,0.0,0.0,0.0,0.0,0.0,0.0,0.0,0.0,0.0,0.0,0.0,0.0,0.0,0.0,0.0,0.0,0.0,0.0,0.0,0.0,0.0,0.0,0.0,0.0,0.0,0.0,0.0,0.0,0.0,0.0,0.0,0.0,0.0,0.0,0.0,0.0,0.0,0.0,0.0,0.0,0.0,0.0,0.0,0.0,0.0,0.0,0.0,0.0,0.0,0.0,0.0,0.0,0.0,0.0,0.0,0.0,0.0,0.0,0.0,0.0,0.0,0.0,0.0,0.0,0.0,0.0,0.0,0.0,0.0,0.0,0.0,0.0,0.0,0.0,0.0,0.0,0.0,0.0,0.0,0.0,0.0,0.0,0.0,0.0,0.0,0.0,0.0,0.0,0.0,0.0,0.0,0.0,0.0,0.0,0.0,0.0,0.0,0.0,0.0,0.0,0.0,0.0,0.0,0.0,0.0,0.0,0.0,0.0,0.0,0.0,0.0,0.0,0.0,0.0,0.0,0.0,0.0,0.0,0.0,0.0,0.0,0.0,0.0,0.0,0.0,0.0,0.0,0.0,0.0,0.0,0.0,0.0,0.0,0.0,0.0,0.0,0.0,0.0,0.0,0.0,0.0,0.0,0.0,0.0,0.0,0.0,0.0,0.0,0.0,0.0,0.0,0.0,0.0,0.0,0.0,0.0,0.0,0.0,0.0,0.0,0.0,0.0,0.0,0.0,0.0,0.0,0.0,0.0,0.0,0.0,0.0,0.0,0.0,0.0,0.0,0.0,0.0,0.0,0.0,0.0,0.0,0.0,0.0,0.0,0.0,0.0,0.0,0.0,0.0,0.0,0.0,0.0,0.0,0.0,0.0,0.0,0.0,0.0,0.0,0.0,0.0,0.0,0.0,0.0,0.0,0.0,0.0,0.0,0.0,0.0,0.0,0.0,0.0,0.0,0.0,0.0,0.0,0.0,0.0,0.0,0.0,0.0,0.0,0.0,0.0,0.0,0.0,0.0,0.0,0.0,0.0,0.0,0.0,0.0,0.0,0.0,0.0,0.0,0.0,0.0,0.0,0.0,0.0,0.0,0.0,0.0,0.0,0.0,0.0,0.0,0.0,0.0,0.0,0.0,0.0,0.0,0.0,0.0,0.0,0.0,0.0,0.0,0.0,0.0,0.0,0.0,0.0,0.0,0.0,0.0,0.0,0.0,0.0,0.0,0.0,0.0,0.0,0.0,0.0,0.0,0.0,0.0,0.0,0.0,0.0,0.0,0.0,0.0,0.0,0.0,0.0,0.0,0.0,0.0,0.0,0.0,0.0,0.0,0.0,0.0,0.0,0.0,0.0,0.0,0.0,0.0,0.0,0.0,0.0,0.0,0.0,0.0,0.0,0.0,0.0,0.0,0.0,0.0,0.0,0.0,0.0,0.0,0.0,0.0,0.0,0.0,0.0,0.0,0.0,0.0,0.0,0.0,0.0,0.0,0.0,0.0,0.0,0.0,0.0,0.0,0.0,0.0,0.0,0.0,0.0,0.0,0.0,0.0,0.0,0.0,0.0,0.0,0.0,0.0,0.0,0.0,0.0,0.0,0.0,0.0,0.0,0.0,0.0,0.0,0.0,0.0,0.0,0.0,0.0,0.0,0.0,0.0,0.0,0.0,0.0,0.0,0.0,0.0,0.0,0.0,0.0,0.0,0.0,0.0,0.0,0.0,0.0,0.0,0.0,0.0,0.0,0.0,0.0,0.0,0.0,0.0,0.0,0.0,0.0,0.0,0.0,0.0,0.0,0.0,0.0,0.0,0.0,0.0,0.0,0.0,0.0,0.0,0.0,0.0,0.0,0.0,0.0,0.0,0.0,0.0,0.0,0.0,0.0,0.0,0.0,0.0,0.0,0.0,0.0,0.0,0.0,0.0,0.0,0.0,0.0,0.0,0.0,0.0,0.0,0.0,0.0,0.0,0.0,0.0,0.0,0.0,0.0,0.0,0.0,0.0,0.0,0.0,0.0,0.0,0.0,0.0,0.0,0.0,0.0,0.0,0.0,0.0,0.0,0.0,0.0,0.0,0.0,0.0,0.0,0.0,0.0,0.0,0.0,0.0,0.0,0.0,0.0,0.0,0.0,0.0,0.0,0.0,0.0,0.0,0.0,0.0,0.0,0.0,0.0,0.0,0.0,0.0,0.0,0.0,0.0,0.0,0.0,0.0,0.0,0.0,0.0,0.0,0.0,0.0,0.0,0.0,0.0,0.0,0.0,0.0,0.0,0.0,0.0,0.0,0.0,0.0,0.0,0.0,0.0,0.0,0.0,0.0,0.0,0.0,0.0,0.0,0.0,0.0,0.0,0.0,0.0,0.0,0.0,0.0,0.0,0.0,0.0,0.0,0.0,0.0,0.0,0.0,0.0,0.0,0.0,0.0,0.0,0.0,0.0,0.0,0.0,0.0,0.0,0.0,0.0,0.0,0.0,0.0,0.0,0.0,0.0,0.0,0.0,0.0,0.0,0.0,0.0,0.0,0.0,0.0,0.0,0.0,0.0,0.0,0.0,0.0,0.0,0.0,0.0,0.0,0.0,0.0,0.0,0.0,0.0,0.0,0.0,0.0,0.0,0.0,0.0,0.0,0.0,0.0,0.0,0.0,0.0,0.0,0.0,0.0,0.0,0.0,0.0,0.0,0.0,0.0,0.0,0.0,0.0,0.0,0.0,0.0,0.0,0.0,0.0,0.0,0.0,0.0,0.0,0.0,0.0,0.0,0.0,0.0,0.0,0.0,0.0,0.0,0.0,0.0,0.0,0.0,0.0,0.0,0.0,0.0,0.0,0.0,0.0,0.0,0.0,0.0,0.0,0.0,0.0,0.0,0.0,0.0,0.0,0.0,0.0,0.0,0.0,-1.265,0.0,0.0,0.0,-1.0914,0.0,0.0,0.0,0.0,0.0,0.0,0.0,0.0,0.0,0.0,0.0,0.0,0.0,0.0,0.0,0.0,0.0,0.0,0.0,0.0,0.0,0.0,0.0,0.0,0.0,0.0,0.0,0.0,0.0,0.0,0.0,0.0,0.0,0.0,0.0,0.0,0.0,0.0,0.0,0.0,0.0,0.0,0.0,0.0,0.0,0.0,0.0,0.0,0.0,0.0,0.0,0.0,0.0,0.0,0.0,0.0,0.0,0.0,0.0,0.0,0.0,0.0,0.0,0.0,0.0,0.0,0.0,0.0,0.0,0.0,0.0,0.0,0.0,0.0,0.0,0.0,0.0,0.0,0.0,0.0,0.0,0.0,0.0,0.0,0.0,0.0,0.0,0.0,0.0,0.0,0.0,0.0,0.0,0.0,0.0,0.0,0.0,0.0,0.0,0.0,0.0,0.0,0.0,0.0,0.0,0.0,0.0,0.0,0.0,0.0,-1.269,-1.036,-1.402,-1.4214,-1.0443,0.0,0.0,0.0,0.0,0.0,0.0,0.0,0.0,0.0,0.0,0.0,0.0,0.0,0.0,0.0,0.0,0.0,0.0,0.0,0.0,0.0,0.0,0.0,0.0,0.0,0.0,0.0,0.0,0.0,0.0,0.0,0.0,0.0,0.0,0.0,0.0,0.0,0.0,0.0,0.0,0.0,0.0,0.0,0.0,0.0,0.0,0.0,0.0,0.0,0.0,0.0,0.0,0.0,0.0,0.0,0.0,0.0,0.0,0.0,0.0,0.0,0.0,0.0,0.0,0.0,0.0,0.0,0.0,0.0,0.0,0.0,0.0,0.0,0.0,0.0,0.0,0.0,0.0,0.0,0.0,0.0,0.0,0.0,0.0,0.0,0.0,0.0,0.0,0.0,0.0,0.0,0.0,0.0,0.0,0.0,0.0,0.0,0.0,0.0,0.0,0.0,0.0,0.0,0.0,0.0,0.0,0.0,0.0,0.0,0.0,0.0,0.0,-1.4886,-1.5217,-1.1603,0.0,0.0,0.0,0.0,0.0,0.0,0.0,0.0,0.0,0.0,0.0,0.0,0.0,0.0,0.0,0.0,0.0,0.0,0.0,0.0,0.0,0.0,0.0,0.0,0.0,0.0,0.0,0.0,0.0,0.0,0.0,0.0,0.0,0.0,0.0,0.0,0.0,0.0,0.0,0.0,0.0,0.0,0.0,0.0,0.0,0.0,0.0,0.0,0.0,0.0,0.0,0.0,0.0,0.0,0.0,0.0,0.0,0.0,0.0,0.0,0.0,0.0,0.0,0.0,0.0,0.0,0.0,0.0,0.0,0.0,0.0,0.0,0.0,0.0,0.0,0.0,0.0,0.0,0.0,0.0,0.0,0.0,0.0,0.0,0.0,0.0,0.0,0.0,0.0,0.0,0.0,0.0,0.0,0.0,0.0,0.0,0.0,0.0,0.0,0.0,0.0,0.0,0.0,0.0,0.0,0.0,0.0,0.0,0.0,0.0,-1.1457,-1.3602,-1.4116,0.0,-1.4756,0.0,0.0,0.0,0.0,0.0,0.0,0.0,0.0,0.0,0.0,0.0,0.0,0.0,0.0,0.0,0.0,0.0,0.0,0.0,0.0,0.0,0.0,0.0,0.0,0.0,0.0,0.0,0.0,0.0,0.0,0.0,0.0,0.0,0.0,0.0,0.0,0.0,0.0,0.0,0.0,0.0,0.0,0.0,0.0,0.0,0.0,0.0,0.0,0.0,0.0,0.0,0.0,0.0,0.0,0.0,0.0,0.0,0.0,0.0,0.0,0.0,0.0,0.0,0.0,0.0,0.0,0.0,0.0,0.0,0.0,0.0,0.0,0.0,0.0,0.0,0.0,0.0,0.0,0.0,0.0,0.0,0.0,0.0,0.0,0.0,0.0,0.0,0.0,0.0,0.0,0.0,0.0,0.0,0.0,0.0,0.0,0.0,0.0,0.0,0.0,0.0,0.0,0.0,0.0,0.0,0.0,0.0,0.0,0.0,0.0,-1.2246,-1.39,-1.3969,-1.3923,0.0,0.0,0.0,0.0,0.0,0.0,0.0,0.0,0.0,0.0,0.0,0.0,0.0,0.0,0.0,0.0,0.0,0.0,0.0,0.0,0.0,0.0,0.0,0.0,0.0,0.0,0.0,0.0,0.0,0.0,0.0,0.0,0.0,0.0,0.0,0.0,0.0,0.0,0.0,0.0,0.0,0.0,0.0,0.0,0.0,0.0,0.0,0.0,0.0,0.0,0.0,0.0,0.0,0.0,0.0,0.0,0.0,0.0,0.0,0.0,0.0,0.0,0.0,0.0,0.0,0.0,0.0,0.0,0.0,0.0,0.0,0.0,0.0,0.0,0.0,0.0,0.0,0.0,0.0,0.0,0.0,0.0,0.0,0.0,0.0,0.0,0.0,0.0,0.0,0.0,0.0,0.0,0.0,0.0,0.0,0.0,0.0,0.0,0.0,0.0,0.0,0.0,0.0,0.0,0.0,0.0,0.0,0.0,0.0,0.0,-1.247,-1.3438,-1.4763,-1.4285,-1.3699,-1.3067,0.0,0.0,0.0,0.0,0.0,0.0,0.0,0.0,0.0,0.0,0.0,0.0,0.0,0.0,0.0,0.0,0.0,0.0,0.0,0.0,0.0,0.0,0.0,0.0,0.0,0.0,0.0,0.0,0.0,0.0,0.0,0.0,0.0,0.0,0.0,0.0,0.0,0.0,0.0,0.0,0.0,0.0,0.0,0.0,0.0,0.0,0.0,0.0,0.0,0.0,0.0,0.0,0.0,0.0,0.0,0.0,0.0,0.0,0.0,0.0,0.0,0.0,0.0,0.0,0.0,0.0,0.0,0.0,0.0,0.0,0.0,0.0,0.0,0.0,0.0,0.0,0.0,0.0,0.0,0.0,0.0,0.0,0.0,0.0,0.0,0.0,0.0,0.0,0.0,0.0,0.0,0.0,0.0,0.0,0.0,0.0,0.0,0.0,0.0,0.0,0.0,0.0,0.0,0.0,0.0,0.0,0.0,0.0,-1.6545,-1.4665,-1.4759,-1.7155,-1.5111,-1.3922,0.0,0.0,0.0,0.0,0.0,0.0,0.0,0.0,0.0,0.0,0.0,0.0,0.0,0.0,0.0,0.0,0.0,0.0,0.0,0.0,0.0,0.0,0.0,0.0,0.0,0.0,0.0,0.0,0.0,0.0,0.0,0.0,0.0,0.0,0.0,0.0,0.0,0.0,0.0,0.0,0.0,0.0,0.0,0.0,0.0,0.0,0.0,0.0,0.0,0.0,0.0,0.0,0.0,0.0,0.0,0.0,0.0,0.0,0.0,0.0,0.0,0.0,0.0,0.0,0.0,0.0,0.0,0.0,0.0,0.0,0.0,0.0,0.0,0.0,0.0,0.0,0.0,0.0,0.0,0.0,0.0,0.0,0.0,0.0,0.0,0.0,0.0,0.0,0.0,0.0,0.0,0.0,0.0,0.0,0.0,0.0,0.0,0.0,0.0,0.0,0.0,0.0,0.0,0.0,0.0,0.0,0.0,0.0,0.0,-1.2414,-1.3236,-1.5111,-1.7908,-1.5395,-1.4375,0.0,0.0,0.0,0.0,0.0,0.0,0.0,0.0,0.0,0.0,0.0,0.0,0.0,0.0,0.0,0.0,0.0,0.0,0.0,0.0,0.0,0.0,0.0,0.0,0.0,0.0,0.0,0.0,0.0,0.0,0.0,0.0,0.0,0.0,0.0,0.0,0.0,0.0,0.0,0.0,0.0,0.0,0.0,0.0,0.0,0.0,0.0,0.0,0.0,0.0,0.0,0.0,0.0,0.0,0.0,0.0,0.0,0.0,0.0,0.0,0.0,0.0,0.0,0.0,0.0,0.0,0.0,0.0,0.0,0.0,0.0,0.0,0.0,0.0,0.0,0.0,0.0,0.0,0.0,0.0,0.0,0.0,0.0,0.0,0.0,0.0,0.0,0.0,0.0,0.0,0.0,0.0,0.0,0.0,0.0,0.0,0.0,0.0,0.0,0.0,0.0,0.0,0.0,0.0,0.0,0.0,0.0,0.0,0.0,-1.2145,-1.4644,-1.6679,-1.7917,-1.5596,-1.4255,0.0,0.0,0.0,0.0,0.0,0.0,0.0,0.0,0.0,0.0,0.0,0.0,0.0,0.0,0.0,0.0,0.0,0.0,0.0,0.0,0.0,0.0,0.0,0.0,0.0,0.0,0.0,0.0,0.0,0.0,0.0,0.0,0.0,0.0,0.0,0.0,0.0,0.0,0.0,0.0,0.0,0.0,0.0,0.0,0.0,0.0,0.0,0.0,0.0,0.0,0.0,0.0,0.0,0.0,0.0,0.0,0.0,0.0,0.0,0.0,0.0,0.0,0.0,0.0,0.0,0.0,0.0,0.0,0.0,0.0,0.0,0.0,0.0,0.0,0.0,0.0,0.0,0.0,0.0,0.0,0.0,0.0,0.0,0.0,0.0,0.0,0.0,0.0,0.0,0.0,0.0,0.0,0.0,0.0,0.0,0.0,0.0,0.0,0.0,0.0,0.0,0.0,0.0,0.0,0.0,0.0,0.0,0.0,-1.2123,-1.6756,-1.917,-1.932,-1.7391,-1.5725,-1.3439,0.0,0.0,0.0,0.0,0.0,0.0,0.0,0.0,0.0,0.0,0.0,0.0,0.0,0.0,0.0,0.0,0.0,0.0,0.0,0.0,0.0,0.0,0.0,0.0,0.0,0.0,0.0,0.0,0.0,0.0,0.0,0.0,0.0,0.0,0.0,0.0,0.0,0.0,0.0,0.0,0.0,0.0,0.0,0.0,0.0,0.0,0.0,0.0,0.0,0.0,0.0,0.0,0.0,0.0,0.0,0.0,0.0,0.0,0.0,0.0,0.0,0.0,0.0,0.0,0.0,0.0,0.0,0.0,0.0,0.0,0.0,0.0,0.0,0.0,0.0,0.0,0.0,0.0,0.0,0.0,0.0,0.0,0.0,0.0,0.0,0.0,0.0,0.0,0.0,0.0,0.0,0.0,0.0,0.0,0.0,0.0,0.0,0.0,0.0,0.0,0.0,0.0,0.0,0.0,0.0,0.0,0.0,0.0,0.0,-1.2923,-1.6319,-1.8113,-1.7901,-1.5398,-1.434,0.0,0.0,0.0,0.0,0.0,0.0,0.0,0.0,0.0,0.0,0.0,0.0,0.0,0.0,0.0,0.0,0.0,0.0,0.0,0.0,0.0,0.0,0.0,0.0,0.0,0.0,0.0,0.0,0.0,0.0,0.0,0.0,0.0,0.0,0.0,0.0,0.0,0.0,0.0,0.0,0.0,0.0,0.0,0.0,0.0,0.0,0.0,0.0,0.0,0.0,0.0,0.0,0.0,0.0,0.0,0.0,0.0,0.0,0.0,0.0,0.0,0.0,0.0,0.0,0.0,0.0,0.0,0.0,0.0,0.0,0.0,0.0,0.0,0.0,0.0,0.0,0.0,0.0,0.0,0.0,0.0,0.0,0.0,0.0,0.0,0.0,0.0,0.0,0.0,0.0,0.0,0.0,0.0,0.0,0.0,0.0,0.0,0.0,0.0,0.0,0.0,0.0,0.0,0.0,0.0,0.0,0.0,0.0,0.0,-1.427,-1.8061,-2.0003,-1.9652,-1.6858,-1.5525,-1.5799,0.0,0.0,0.0,0.0,0.0,0.0,0.0,0.0,0.0,0.0,0.0,0.0,0.0,0.0,0.0,0.0,0.0,0.0,0.0,0.0,0.0,0.0,0.0,0.0,0.0,0.0,0.0,0.0,0.0,0.0,0.0,0.0,0.0,0.0,0.0,0.0,0.0,0.0,0.0,0.0,0.0,0.0,0.0,0.0,0.0,0.0,0.0,0.0,0.0,0.0,0.0,0.0,0.0,0.0,0.0,0.0,0.0,0.0,0.0,0.0,0.0,0.0,0.0,0.0,0.0,0.0,0.0,0.0,0.0,0.0,0.0,0.0,0.0,0.0,0.0,0.0,0.0,0.0,0.0,0.0,0.0,0.0,0.0,0.0,0.0,0.0,0.0,0.0,0.0,0.0,0.0,0.0,0.0,0.0,0.0,0.0,0.0,0.0,0.0,0.0,0.0,0.0,0.0,0.0,0.0,0.0,0.0,0.0,-1.9457,-2.3474,-2.4386,-2.1959,-1.952,-1.6882,0.0,0.0,0.0,0.0,0.0,0.0,0.0,0.0,0.0,0.0,0.0,0.0,0.0,0.0,0.0,0.0,0.0,0.0,0.0,0.0,0.0,0.0,0.0,0.0,0.0,0.0,0.0,0.0,0.0,0.0,0.0,0.0,0.0,0.0,0.0,0.0,0.0,0.0,0.0,0.0,0.0,0.0,0.0,0.0,0.0,0.0,0.0,0.0,0.0,0.0,0.0,0.0,0.0,0.0,0.0,0.0,0.0,0.0,0.0,0.0,0.0,0.0,0.0,0.0,0.0,0.0,0.0,0.0,0.0,0.0,0.0,0.0,0.0,0.0,0.0,0.0,0.0,0.0,0.0,0.0,0.0,0.0,0.0,0.0,0.0,0.0,0.0,0.0,0.0,0.0,0.0,0.0,0.0,0.0,0.0,0.0,0.0,0.0,0.0,0.0,0.0,0.0,0.0,0.0,0.0,0.0,0.0,0.0,0.0,-2.1724,-2.5114,-2.557,-2.2772,-1.98,-1.7597,0.0,0.0,0.0,0.0,0.0,0.0,0.0,0.0,0.0,0.0,0.0,0.0,0.0,0.0,0.0,0.0,0.0,0.0,0.0,0.0,0.0,0.0,0.0,0.0,0.0,0.0,0.0,0.0,0.0,0.0,0.0,0.0,0.0,0.0,0.0,0.0,0.0,0.0,0.0,0.0,0.0,0.0,0.0,0.0,0.0,0.0,0.0,0.0,0.0,0.0,0.0,0.0,0.0,0.0,0.0,0.0,0.0,0.0,0.0,0.0,0.0,0.0,0.0,0.0,0.0,0.0,0.0,0.0,0.0,0.0,0.0,0.0,0.0,0.0,0.0,0.0,0.0,0.0,0.0,0.0,0.0,0.0,0.0,0.0,0.0,0.0,0.0,0.0,0.0,0.0,0.0,0.0,0.0,0.0,0.0,0.0,0.0,0.0,0.0,0.0,0.0,0.0,0.0,0.0,0.0,0.0,0.0,0.0,-1.9894,-2.4257,-2.6542,-2.679,-2.4886,-2.1848,-1.9383,0.0,0.0,0.0,0.0,0.0,0.0,0.0,0.0,0.0,0.0,0.0,0.0,0.0,0.0,0.0,0.0,0.0,0.0,0.0,0.0,0.0,0.0,0.0,0.0,0.0,0.0,0.0,0.0,0.0,0.0,0.0,0.0,0.0,0.0,0.0,0.0,0.0,0.0,0.0,0.0,0.0,0.0,0.0,0.0,0.0,0.0,0.0,0.0,0.0,0.0,0.0,0.0,0.0,0.0,0.0,0.0,0.0,0.0,0.0,0.0,0.0,0.0,0.0,0.0,0.0,0.0,0.0,0.0,0.0,0.0,0.0,0.0,0.0,0.0,0.0,0.0,0.0,0.0,0.0,0.0,0.0,0.0,0.0,0.0,0.0,0.0,0.0,0.0,0.0,0.0,0.0,0.0,0.0,0.0,0.0,0.0,0.0,0.0,0.0,0.0,0.0,0.0,0.0,0.0,0.0,0.0,0.0,0.0,-2.1173,-2.6614,-2.7656,-2.7927,-2.7459,-2.4584,-2.148,0.0,0.0,0.0,0.0,0.0,0.0,0.0,0.0,0.0,0.0,0.0,0.0,0.0,0.0,0.0,0.0,0.0,0.0,0.0,0.0,0.0,0.0,0.0,0.0,0.0,0.0,0.0,0.0,0.0,0.0,0.0,0.0,0.0,0.0,0.0,0.0,0.0,0.0,0.0,0.0,0.0,0.0,0.0,0.0,0.0,0.0,0.0,0.0,0.0,0.0,0.0,0.0,0.0,0.0,0.0,0.0,0.0,0.0,0.0,0.0,0.0,0.0,0.0,0.0,0.0,0.0,0.0,0.0,0.0,0.0,0.0,0.0,0.0,0.0,0.0,0.0,0.0,0.0,0.0,0.0,0.0,0.0,0.0,0.0,0.0,0.0,0.0,0.0,0.0,0.0,0.0,0.0,0.0,0.0,0.0,0.0,0.0,0.0,0.0,0.0,0.0,0.0,0.0,0.0,0.0,0.0,0.0,0.0,-2.2686,-2.6353,-2.7556,-2.8179,-2.8304,-2.4866,-2.1482,0.0,0.0,0.0,0.0,0.0,0.0,0.0,0.0,0.0,0.0,0.0,0.0,0.0,0.0,0.0,0.0,0.0,0.0,0.0,0.0,0.0,0.0,0.0,0.0,0.0,0.0,0.0,0.0,0.0,0.0,0.0,0.0,0.0,0.0,0.0,0.0,0.0,0.0,0.0,0.0,0.0,0.0,0.0,0.0,0.0,0.0,0.0,0.0,-0.9552,0.0,0.0,0.0,0.0,0.0,0.0,0.0,0.0,0.0,0.0,0.0,0.0,0.0,0.0,0.0,0.0,0.0,0.0,0.0,0.0,0.0,0.0,0.0,0.0,0.0,0.0,0.0,0.0,0.0,0.0,0.0,0.0,0.0,0.0,0.0,0.0,0.0,0.0,0.0,0.0,0.0,0.0,0.0,0.0,0.0,0.0,0.0,0.0,0.0,0.0,0.0,0.0,0.0,0.0,0.0,0.0,0.0,0.0,0.0,-2.3185,-2.6563,-2.7438,-2.8024,-2.8275,-2.622,-2.3068,0.0,0.0,0.0,0.0,0.0,0.0,0.0,0.0,0.0,0.0,0.0,0.0,0.0,0.0,0.0,0.0,0.0,0.0,0.0,0.0,0.0,0.0,0.0,0.0,0.0,0.0,0.0,0.0,0.0,0.0,0.0,0.0,0.0,0.0,0.0,0.0,0.0,0.0,0.0,0.0,0.0,0.0,0.0,0.0,0.0,0.0,0.0,0.0,0.0,0.0,0.0,0.0,0.0,0.0,0.0,0.0,0.0,0.0,0.0,0.0,0.0,0.0,0.0,0.0,0.0,0.0,0.0,0.0,0.0,0.0,0.0,0.0,0.0,0.0,0.0,0.0,0.0,0.0,0.0,0.0,0.0,0.0,0.0,0.0,0.0,0.0,0.0,0.0,0.0,0.0,0.0,0.0,0.0,0.0,0.0,0.0,0.0,0.0,0.0,0.0,0.0,0.0,0.0,0.0,0.0,0.0,0.0,-2.0389,-2.3212,-2.6803,-2.7384,-2.7757,-2.8057,-2.7774,-2.4987,-1.9546,0.0,0.0,0.0,0.0,0.0,0.0,0.0,0.0,0.0,0.0,0.0,0.0,0.0,0.0,0.0,0.0,0.0,0.0,0.0,0.0,0.0,0.0,0.0,0.0,0.0,0.0,0.0,0.0,0.0,0.0,0.0,0.0,0.0,0.0,0.0,0.0,0.0,0.0,-0.9237,-1.0705,0.0,0.0,0.0,0.0,0.0,0.0,0.0,0.0,-1.0303,0.0,0.0,0.0,0.0,0.0,0.0,0.0,0.0,0.0,0.0,0.0,0.0,0.0,0.0,0.0,0.0,0.0,0.0,0.0,0.0,0.0,0.0,0.0,0.0,0.0,0.0,0.0,0.0,0.0,0.0,0.0,0.0,0.0,0.0,0.0,0.0,0.0,0.0,0.0,0.0,0.0,0.0,0.0,0.0,0.0,0.0,0.0,0.0,0.0,0.0,0.0,0.0,0.0,0.0,0.0,0.0,-2.0577,-2.1131,-2.3184,-2.679,-2.7353,-2.7728,-2.801,-2.8283,-2.555,-1.9704,0.0,0.0,0.0,0.0,0.0,0.0,0.0,0.0,0.0,0.0,0.0,0.0,0.0,0.0,0.0,0.0,0.0,0.0,0.0,0.0,0.0,0.0,0.0,0.0,0.0,0.0,0.0,0.0,0.0,0.0,0.0,0.0,0.0,0.0,0.0,0.0,0.0,0.0,0.0,-1.3545,-1.405,0.0,0.0,0.0,0.0,0.0,0.0,0.0,0.0,-1.0452,0.0,0.0,0.0,0.0,0.0,0.0,0.0,0.0,0.0,0.0,0.0,0.0,0.0,0.0,0.0,0.0,0.0,0.0,0.0,0.0,0.0,0.0,0.0,0.0,0.0,0.0,0.0,0.0,0.0,0.0,0.0,0.0,0.0,0.0,0.0,0.0,0.0,0.0,0.0,0.0,0.0,0.0,0.0,0.0,0.0,0.0,0.0,0.0,0.0,0.0,0.0,0.0,0.0,0.0,0.0,-1.9379,-2.2201,-2.4679,-2.6807,-2.712,-2.74,-2.7786,-2.8106,-2.5391,0.0,0.0,0.0,0.0,0.0,0.0,0.0,0.0,0.0,0.0,0.0,0.0,0.0,0.0,0.0,0.0,0.0,0.0,0.0,0.0,0.0,0.0,0.0,0.0,0.0,0.0,0.0,0.0,0.0,0.0,0.0,0.0,0.0,0.0,0.0,0.0,0.0,0.0,0.0,0.0,-1.3933,-1.4587,-1.543,0.0,0.0,0.0,0.0,0.0,0.0,-1.1831,-1.113,0.0,0.0,0.0,0.0,0.0,0.0,0.0,0.0,0.0,0.0,0.0,0.0,0.0,0.0,0.0,0.0,0.0,0.0,0.0,0.0,0.0,0.0,0.0,0.0,0.0,0.0,0.0,0.0,0.0,0.0,0.0,0.0,0.0,0.0,0.0,0.0,0.0,0.0,0.0,0.0,0.0,0.0,0.0,0.0,0.0,0.0,0.0,0.0,0.0,0.0,0.0,0.0,0.0,0.0,0.0,-1.7912,-2.257,-2.5689,-2.6978,-2.6961,-2.7172,-2.7746,-2.7842,-2.5052,0.0,0.0,0.0,0.0,0.0,0.0,0.0,0.0,0.0,0.0,0.0,0.0,0.0,0.0,0.0,0.0,0.0,0.0,0.0,0.0,0.0,0.0,0.0,0.0,0.0,0.0,0.0,0.0,0.0,0.0,0.0,0.0,0.0,0.0,0.0,0.0,0.0,0.0,0.0,0.0,0.0,-1.5021,-1.6045,-1.4884,0.0,0.0,0.0,0.0,-1.3559,-1.3011,0.0,0.0,0.0,0.0,0.0,0.0,0.0,0.0,0.0,0.0,0.0,0.0,0.0,0.0,0.0,0.0,0.0,0.0,0.0,0.0,0.0,0.0,0.0,0.0,0.0,0.0,0.0,0.0,0.0,0.0,0.0,0.0,0.0,0.0,0.0,0.0,0.0,0.0,0.0,0.0,0.0,0.0,0.0,0.0,0.0,0.0,0.0,0.0,0.0,0.0,0.0,0.0,0.0,0.0,0.0,0.0,-1.7811,-2.1025,-2.4323,-2.7469,-2.7165,-2.7364,-2.8275,-2.7759,-2.4756,0.0,0.0,0.0,0.0,0.0,0.0,0.0,0.0,0.0,0.0,0.0,0.0,0.0,0.0,0.0,0.0,0.0,0.0,0.0,0.0,0.0,0.0,0.0,0.0,0.0,0.0,0.0,0.0,0.0,0.0,0.0,0.0,0.0,0.0,0.0,0.0,0.0,0.0,0.0,0.0,0.0,-1.6471,-1.4809,-1.4716,-1.4626,0.0,0.0,-1.408,-1.5681,-1.5339,0.0,0.0,0.0,0.0,0.0,0.0,0.0,0.0,0.0,0.0,0.0,0.0,0.0,0.0,0.0,0.0,0.0,0.0,0.0,0.0,0.0,0.0,0.0,0.0,0.0,0.0,0.0,0.0,0.0,0.0,0.0,0.0,0.0,0.0,0.0,0.0,0.0,0.0,0.0,0.0,0.0,0.0,0.0,0.0,0.0,0.0,0.0,0.0,0.0,0.0,0.0,0.0,0.0,0.0,0.0,-1.6622,-1.7929,-2.282,-2.6201,-2.7739,-2.7995,-2.8134,-2.8185,-2.8021,-2.4979,0.0,0.0,0.0,0.0,0.0,0.0,0.0,0.0,0.0,0.0,0.0,0.0,0.0,0.0,0.0,0.0,0.0,0.0,0.0,0.0,0.0,0.0,0.0,0.0,0.0,0.0,0.0,0.0,0.0,0.0,0.0,0.0,0.0,0.0,0.0,0.0,0.0,0.0,0.0,0.0,0.0,0.0,-1.6136,-1.5622,0.0,0.0,0.0,-1.5968,-1.7085,0.0,0.0,0.0,0.0,0.0,0.0,0.0,0.0,0.0,0.0,0.0,0.0,0.0,0.0,0.0,0.0,0.0,0.0,0.0,0.0,0.0,0.0,0.0,0.0,0.0,0.0,0.0,0.0,0.0,0.0,0.0,0.0,0.0,0.0,0.0,0.0,0.0,0.0,0.0,0.0,0.0,0.0,0.0,0.0,0.0,0.0,0.0,0.0,0.0,0.0,0.0,0.0,0.0,0.0,0.0,0.0,0.0,-1.8189,-2.4494,-2.7993,-2.8365,-2.8772,-2.886,-2.8541,-2.8357,0.0,0.0,0.0,0.0,0.0,0.0,0.0,0.0,0.0,0.0,0.0,0.0,0.0,0.0,0.0,0.0,0.0,0.0,0.0,0.0,0.0,0.0,0.0,0.0,0.0,0.0,0.0,-0.562,0.0,0.0,0.0,0.0,0.0,0.0,0.0,0.0,0.0,0.0,0.0,0.0,0.0,0.0,-1.4897,-1.6983,-1.6692,-1.6698,0.0,0.0,-1.7807,-1.8607,-1.9202,-1.879,0.0,0.0,0.0,0.0,0.0,0.0,0.0,0.0,0.0,0.0,0.0,0.0,0.0,0.0,0.0,0.0,0.0,0.0,0.0,0.0,0.0,0.0,0.0,0.0,0.0,0.0,0.0,0.0,0.0,0.0,0.0,0.0,0.0,0.0,0.0,0.0,0.0,0.0,0.0,0.0,0.0,0.0,0.0,0.0,0.0,0.0,0.0,0.0,0.0,0.0,0.0,0.0,0.0,0.0,-1.8212,-1.9007,-2.473,-2.85,-2.9871,-2.9313,-2.9314,-2.9905,-2.8587,-2.5094,0.0,0.0,0.0,0.0,0.0,0.0,0.0,0.0,0.0,0.0,0.0,0.0,0.0,0.0,0.0,0.0,0.0,0.0,0.0,0.0,0.0,0.0,0.0,0.0,0.0,0.0,0.0,0.0,0.0,0.0,0.0,0.0,0.0,0.0,0.0,0.0,0.0,0.0,0.0,0.0,0.0,-1.5122,-1.6007,-1.7679,-1.8933,0.0,-1.9215,-1.9575,-2.0551,-2.0837,-1.972,-1.6062,0.0,0.0,0.0,0.0,0.0,0.0,0.0,0.0,0.0,0.0,0.0,0.0,0.0,0.0,0.0,0.0,0.0,0.0,0.0,0.0,0.0,0.0,0.0,0.0,0.0,0.0,0.0,0.0,0.0,0.0,0.0,0.0,0.0,0.0,0.0,0.0,0.0,0.0,0.0,0.0,0.0,0.0,0.0,0.0,0.0,0.0,0.0,0.0,0.0,0.0,0.0,0.0,0.0,-1.8246,-1.8973,-2.5253,-2.9042,-3.0057,-3.026,-3.0277,-3.0108,-2.9514,-2.6877,0.0,0.0,0.0,0.0,0.0,0.0,0.0,0.0,0.0,0.0,0.0,0.0,0.0,0.0,0.0,0.0,0.0,0.0,0.0,0.0,0.0,0.0,0.0,0.0,0.0,0.0,0.0,0.0,-1.0223,-1.0558,-0.9727,0.0,0.0,0.0,0.0,0.0,0.0,0.0,0.0,0.0,0.0,-1.6034,-1.7301,-1.8176,0.0,0.0,-1.9989,-2.0614,-2.1808,-2.128,-2.0125,-1.8325,-1.6448,0.0,0.0,0.0,0.0,0.0,0.0,0.0,0.0,0.0,0.0,0.0,0.0,0.0,0.0,0.0,0.0,0.0,0.0,0.0,0.0,0.0,0.0,0.0,0.0,0.0,0.0,0.0,0.0,0.0,0.0,0.0,0.0,0.0,0.0,0.0,0.0,0.0,0.0,0.0,0.0,0.0,0.0,0.0,0.0,0.0,0.0,0.0,0.0,0.0,0.0,0.0,0.0,-1.8562,-1.9237,-2.5879,-2.9668,-3.0429,-3.0937,-3.0954,-3.0463,-3.0226,-2.8197,0.0,0.0,0.0,0.0,0.0,0.0,0.0,0.0,0.0,0.0,0.0,0.0,0.0,0.0,0.0,0.0,0.0,0.0,0.0,0.0,0.0,0.0,0.0,0.0,0.0,0.0,0.0,0.0,-1.1055,-1.102,-0.9677,0.0,0.0,0.0,0.0,0.0,0.0,0.0,0.0,0.0,0.0,-1.7166,-1.8603,-1.9056,-1.9499,-2.0247,-2.0469,-2.0873,-2.1809,-2.1137,-2.0196,-1.9141,0.0,0.0,0.0,0.0,0.0,0.0,0.0,0.0,0.0,0.0,0.0,0.0,0.0,0.0,0.0,0.0,0.0,0.0,0.0,0.0,0.0,0.0,0.0,0.0,0.0,0.0,0.0,-1.1093,0.0,0.0,-0.9969,0.0,0.0,0.0,0.0,0.0,0.0,0.0,0.0,0.0,0.0,0.0,0.0,0.0,0.0,0.0,0.0,0.0,0.0,0.0,0.0,0.0,0.0,-1.9295,-2.0018,-2.6607,-3.0412,-3.1123,-3.119,-3.1173,-3.114,-3.0497,-2.867,-2.5576,0.0,0.0,0.0,0.0,0.0,0.0,0.0,0.0,0.0,0.0,0.0,0.0,0.0,0.0,0.0,0.0,0.0,0.0,0.0,0.0,0.0,0.0,0.0,0.0,0.0,0.0,-0.7274,-0.8131,-0.8886,0.0,0.0,0.0,0.0,0.0,0.0,0.0,0.0,0.0,0.0,-1.67,-1.8481,-1.9638,-2.0556,-2.1159,-2.1204,-2.0689,-2.0294,-2.043,-2.0489,-1.9855,0.0,0.0,0.0,0.0,0.0,0.0,0.0,0.0,0.0,0.0,0.0,0.0,0.0,0.0,0.0,0.0,0.0,0.0,0.0,0.0,0.0,0.0,0.0,0.0,0.0,0.0,0.0,-1.4782,-1.4251,0.0,0.0,0.0,0.0,0.0,0.0,0.0,0.0,0.0,0.0,0.0,-1.9826,-2.0382,0.0,0.0,0.0,0.0,0.0,0.0,0.0,0.0,0.0,0.0,0.0,0.0,-1.9329,-2.0255,-2.6657,-3.0463,-3.1157,-3.119,-3.119,-3.119,-3.0954,-2.9178,-2.571,0.0,0.0,0.0,0.0,0.0,0.0,0.0,0.0,0.0,0.0,0.0,0.0,0.0,0.0,0.0,0.0,0.0,0.0,0.0,0.0,0.0,0.0,0.0,0.0,0.0,-0.9853,0.0,0.0,0.0,0.0,0.0,0.0,0.0,0.0,0.0,0.0,0.0,-1.4135,-1.5743,-1.819,-2.0118,-2.0894,-2.1909,-2.2702,0.0,0.0,0.0,0.0,0.0,0.0,0.0,0.0,0.0,0.0,0.0,0.0,0.0,0.0,-1.5994,-1.3654,-1.2568,-1.1895,-1.1574,0.0,0.0,0.0,0.0,0.0,0.0,0.0,0.0,0.0,0.0,0.0,0.0,0.0,0.0,-1.7983,0.0,-1.6948,0.0,0.0,0.0,0.0,0.0,0.0,0.0,0.0,-2.0646,-2.1966,-2.2781,-2.3321,-2.2938,0.0,-2.0934,-1.9221,0.0,0.0,0.0,0.0,0.0,0.0,0.0,0.0,-2.009,-2.1738,-2.7452,-3.0717,-3.1157,-3.119,-3.119,-3.119,-3.119,-2.9939,-2.7249,-2.4526,-2.226,0.0,0.0,0.0,0.0,0.0,0.0,0.0,0.0,0.0,0.0,0.0,0.0,0.0,0.0,0.0,0.0,0.0,0.0,0.0,0.0,0.0,0.0,0.0,-1.0983,0.0,0.0,0.0,0.0,0.0,0.0,0.0,0.0,0.0,-1.1511,-1.4144,-1.6606,-1.8086,-2.0369,-2.2017,-2.2409,0.0,0.0,0.0,0.0,0.0,0.0,0.0,-1.9957,-2.1105,-1.8907,-1.7028,-1.7145,-1.7609,-1.7926,-1.7771,0.0,0.0,-1.6011,-1.4974,-1.4391,-1.4193,-1.4304,-1.441,-1.4193,-1.488,-1.5497,0.0,0.0,0.0,0.0,0.0,0.0,0.0,0.0,-2.0857,-2.0713,0.0,-2.0584,0.0,0.0,0.0,0.0,-1.5687,-1.882,0.0,0.0,-2.5288,-2.679,-2.6921,-2.6823,-2.6842,-2.6825,-2.5929,-2.4425,-2.231,-1.9564,0.0,0.0,0.0,0.0,0.0,0.0,-2.1586,-2.4508,-2.8908,-3.119,-3.119,-3.119,-3.119,-3.119,-3.119,-3.0852,-3.004,-2.6623,-2.4288,-2.3374,-1.6591,0.0,0.0,0.0,0.0,0.0,0.0,0.0,0.0,0.0,0.0,0.0,0.0,0.0,0.0,0.0,0.0,0.0,0.0,0.0,0.0,-1.1515,0.0,0.0,0.0,0.0,0.0,0.0,0.0,0.0,0.0,0.0,-1.4674,-1.6747,-1.9178,-2.126,0.0,0.0,0.0,0.0,-2.4007,-2.4036,-2.2962,-2.2222,-2.2236,-2.2181,-2.1992,-2.1545,0.0,0.0,-1.946,-1.9962,-2.0113,-1.8593,-1.9133,-1.9798,-1.9698,-1.8391,-1.7262,-1.6735,-1.7036,-1.7225,-1.6864,-1.8042,-1.9447,-2.5134,0.0,0.0,0.0,0.0,-2.2645,-2.3821,-2.6122,-2.5245,-2.4538,-2.3951,-2.34,0.0,0.0,0.0,0.0,0.0,0.0,-2.1323,-2.3544,-2.4268,-2.5454,-2.6991,-2.6926,-2.6876,-2.6876,-2.6538,-2.6098,-2.5552,-2.4655,-2.0569,-1.3642,0.0,0.0,0.0,0.0,-2.4441,-2.5456,-2.9194,-3.119,-3.119,-3.119,-3.119,-3.119,-3.119,-3.1106,-3.0886,-2.933,-2.7148,-2.4305,-2.1647,0.0,0.0,0.0,0.0,0.0,0.0,0.0,0.0,0.0,0.0,0.0,0.0,0.0,0.0,0.0,0.0,0.0,0.0,0.0,-0.876,-1.168,-1.3029,0.0,0.0,0.0,0.0,0.0,0.0,0.0,0.0,0.0,-1.944,-2.0508,-2.1345,0.0,0.0,-2.4425,-2.3502,-2.4869,-2.5952,-2.5977,-2.5647,0.0,-2.544,-2.3525,-2.2481,-2.3742,-2.3057,-2.2094,-2.1471,-2.0991,-2.0541,-2.0038,-1.9861,-1.9798,-1.9773,-1.9459,-1.9032,-1.892,-1.8995,-1.9058,-1.897,-1.9434,-1.9798,-2.8678,-2.6387,-2.5209,-2.5428,-2.6453,-2.5684,-2.6611,-2.8652,-2.7883,-2.7281,-2.6796,-2.6308,-2.4584,-2.1905,-2.0776,0.0,0.0,0.0,-2.3594,-2.5495,-2.581,-2.6512,-2.7482,-2.7858,-2.7896,-2.7725,-2.7369,-2.7386,-2.7725,-2.7317,-2.4002,-1.807,0.0,0.0,-1.864,-2.3224,-2.6201,-2.7435,-2.9888,-3.119,-3.119,-3.119,-3.119,-3.119,-3.119,-3.119,-3.119,-3.0497,-2.8924,-2.6386,-2.4441,-2.2023,0.0,0.0,0.0,0.0,0.0,0.0,0.0,0.0,0.0,0.0,0.0,-0.7609,-0.5645,0.0,0.0,0.0,-1.1544,-1.2213,-1.2202,-1.4659,0.0,0.0,0.0,0.0,0.0,0.0,0.0,-1.7706,-2.0305,-2.2205,-2.2884,-2.3674,-2.3965,-2.3257,-2.4653,-2.5417,-2.4676,0.0,-2.6794,-2.6794,-2.6794,-2.6794,-2.6765,-2.4964,-2.3818,-2.4524,-2.3554,-2.2648,-2.2581,-2.1895,-2.1295,-2.1018,-2.0553,-2.0075,-1.9849,-1.9798,-1.9798,-1.9798,-1.9798,-1.9798,-1.9798,-1.9798,-1.9798,-3.1194,-3.0273,-2.8739,-2.8357,-2.8703,-2.8503,-2.8774,-2.9314,-2.9104,-2.9028,-2.8987,-2.8987,-2.7354,-2.4502,-2.3043,0.0,-2.5247,-2.6271,-2.7194,-2.8035,-2.8988,-2.9079,-2.8471,-2.9245,-2.942,-2.8977,-2.837,-2.8404,-2.8925,-2.8246,-2.6877,-2.4982,-2.4255,-2.4137,-2.4609,-2.5541,-2.7418,-3.0142,-3.0852,-3.119,-3.119,-3.119,-3.119,-3.119,-3.119,-3.119,-3.1173,-3.0565,-2.9854,-2.9044,-2.5743,-2.3494,-2.2685,0.0,0.0,0.0,0.0,0.0,0.0,0.0,0.0,0.0,0.0,0.0,0.0,0.0,0.0,0.0,-1.7144,0.0,-1.8825,-1.9029,0.0,0.0,0.0,-1.5535,-1.6329,-1.811,-1.9571,-2.0365,0.0,0.0,-2.514,-2.61,-2.6594,-2.6029,-2.6433,-2.6777,-2.6649,-2.6678,-2.6794,-2.6794,-2.6794,-2.6794,-2.6753,-2.609,-2.5163,-2.4195,-2.3514,-2.31,-2.3032,-2.2606,-2.2108,-2.1644,-2.1131,-2.0629,-2.0037,-2.0012,-1.9936,-1.9987,-1.9924,-1.9886,-1.9911,-1.9974,-2.0049,-3.2077,-3.1258,-3.0855,-3.0374,-2.9815,-2.961,-2.9519,-2.9523,-2.9332,-2.9149,-2.8987,-2.8987,-2.8583,-2.7831,-2.7464,-2.7451,-2.7755,-2.8563,-2.8914,-2.885,-2.9318,-2.9528,-2.9448,-2.9265,-2.9174,-2.914,-2.888,-2.8842,-2.8993,-2.8805,-2.8721,-2.8772,-2.8602,-2.7452,-2.5541,-2.8332,-3.0209,-3.0937,-3.1106,-3.119,-3.119,-3.119,-3.119,-3.119,-3.119,-3.119,-3.119,-3.1021,-3.0598,-2.9854,-2.8433,-2.73,-2.6471,-2.0174,0.0,0.0,0.0,0.0,0.0,0.0,0.0,0.0,0.0,-1.1692,-0.9354,0.0,-1.2817,0.0,-1.9348,-1.9914,-1.6545,-1.8404,0.0,0.0,-1.82,-1.8593,-2.2198,-2.2047,-2.2363,-2.4215,-2.5585,-2.6376,-2.6376,-2.6625,-2.6753,-2.6621,-2.67,-2.6431,-2.5477,-2.617,-2.6794,-2.6794,-2.6794,-2.6794,-2.67,-2.5907,-2.4823,-2.3543,-2.3185,-2.3108,-2.3095,-2.2656,-2.2259,-2.2121,-2.1656,-2.1295,-2.1079,-2.1119,-2.1079,-2.1081,-2.0779,-2.049,-2.0503,-2.0805,-2.1079,-3.2948,-3.214,-3.2133,-3.1804,-3.124,-3.0292,-2.9734,-2.9446,-2.9345,-2.9185,-2.8987,-2.8987,-2.8987,-2.8987,-2.8987,-2.91,-2.9326,-2.9706,-2.9926,-3.0054,-3.0439,-3.0558,-3.0429,-3.0369,-3.0256,-3.0128,-3.0053,-3.0012,-2.9974,-2.9956,-3.0192,-3.0581,-3.0581,-2.9753,-2.8264,-3.0159,-3.0869,-3.0245,-3.0869,-3.119,-3.119,-3.119,-3.0734,-2.9734,-3.0666,-3.0717,-2.9736,-3.0666,-3.0243,-2.8213,-2.7706,-2.691,-2.5581,-2.1626,-1.9631,0.0,0.0,0.0,0.0,0.0,0.0,0.0,0.0,0.0,0.0,0.0,-1.5521,-1.7169,-2.0907,-2.1881,-1.8575,-2.0683,-2.2236,-2.2222,-2.1441,-2.2068,-2.4955,-2.4495,-2.4558,-2.6068,-2.6573,-2.6794,-2.6794,-2.6794,-2.6794,-2.6794,-2.6794,-2.6533,-2.5937,-2.6358,-2.6794,-2.6794,-2.6794,-2.658,-2.6096,-2.5674,-2.4866,-2.3471,-2.3365,-2.3454,-2.3155,-2.2857,-2.2581,-2.2359,-2.2058,-2.1769,-2.1543,-2.1481,-2.1481,-2.1481,-2.1483,-2.1345,-2.1119,-2.1267,-2.1481,-3.3832,-3.2976,-3.2976,-3.2869,-3.2569,-3.0918,-3.001,-2.9661,-2.9508,-2.9266,-2.8987,-2.8987,-2.8987,-2.8987,-2.8987,-2.9372,-3.0044,-3.0094,-3.0508,-3.1222,-3.1639,-3.1676,-3.1398,-3.176,-3.1695,-3.1315,-3.1312,-3.1254,-3.119,-3.119,-3.119,-3.119,-3.119,-3.1106,-3.0937,-3.1106,-3.0584,-2.9331,-3.0362,-3.0922,-3.092,-3.0939,-2.9973,-2.8162,-3.0057,-3.0277,-2.8398,-3.0142,-2.9685,-2.6556,-2.61,-2.5195,-2.3604,-2.2914,-2.176,0.0,-2.0019,0.0,0.0,0.0,0.0,0.0,0.0,0.0,0.0,-1.8853,-1.9081,-1.802,-2.2155,-2.4176,-2.2534,-2.401,-2.5019,-2.4994,-2.5027,-2.5288,-2.585,-2.5934,-2.6141,-2.6721,-2.6794,-2.6794,-2.6794,-2.6794,-2.6794,-2.6794,-2.6794,-2.675,-2.6791,-2.675,-2.6794,-2.6794,-2.6794,-2.6447,-2.5564,-2.5633,-2.5258,-2.3738,-2.3662,-2.3868,-2.3228,-2.3095,-2.2945,-2.2548,-2.2406,-2.2272,-2.1782,-2.1732,-2.1732,-2.1782,-2.2096,-2.2196,-2.1757,-2.1719,-2.1694,-3.4709,-3.3866,-3.3846,-3.3412,-3.2665,-3.2144,-3.1789,-3.1509,-3.0668,-2.9802,-2.9005,-2.8987,-2.8987,-2.8987,-2.8987,-2.9078,-2.9262,-2.9844,-3.0539,-3.1281,-3.1363,-3.1767,-3.2355,-3.1753,-3.1447,-3.1443,-3.1288,-3.121,-3.119,-3.119,-3.119,-3.119,-3.119,-3.0598,-2.9534,0.0,0.0,0.0,-2.9907,-2.9416,-2.9416,-2.9416,-2.9213,-2.884,-3.0328,0.0,-3.0615,-3.097,-3.0886,-3.0159,-2.868,0.0,0.0,0.0,0.0,0.0,0.0,0.0,0.0,0.0,0.0,0.0,-1.9151,-1.9543,-1.9949,-2.2461,-2.3105,-2.0966,-2.3415,-2.5031,-2.4569,-2.5267,-2.5744,-2.5658,-2.6097,-2.6474,-2.6617,-2.6591,-2.6675,-2.6765,-2.6794,-2.6794,-2.6794,-2.6794,-2.6794,-2.6794,-2.6794,-2.6794,-2.6794,-2.6794,-2.6794,-2.6794,-2.6779,-2.6527,-2.5825,-2.5811,-2.5439,-2.4292,-2.3985,-2.3839,-2.3275,-2.3095,-2.3095,-2.2932,-2.2957,-2.292,-2.2782,-2.2794,-2.2719,-2.2782,-2.2857,-2.2782,-2.2284,-2.2493,-2.2794,-3.517,-3.4683,-3.4683,-3.4408,0.0,-3.3582,-3.3379,-3.3183,-3.1722,-3.0764,-3.0191,-3.0191,-3.0191,-3.0191,-3.0155,-3.0351,-3.0741,-3.108,-3.1649,-3.2356,-3.226,-3.2327,-3.2537,-3.1895,-3.1506,-3.1387,-3.1269,-3.119,-3.119,-3.119,-3.119,-3.119,-3.119,-3.0838,-3.0144,-3.0818,-3.119,-3.119,-3.0482,-3.0093,-3.0093,-3.0093,-2.9551,-2.8518,-3.0209,0.0,0.0,0.0,0.0,0.0,0.0,0.0,0.0,0.0,0.0,-2.2763,-2.1512,-2.0572,-2.0183,-2.0453,-2.1201,-2.2503,-2.3236,-2.3432,-2.304,-2.4695,-2.5224,-2.4052,-2.528,-2.6123,-2.6048,-2.625,-2.6363,-2.6326,-2.6602,-2.6794,-2.6794,-2.6794,-2.6794,-2.6794,-2.6794,-2.6794,-2.6794,-2.6794,-2.6794,-2.6794,-2.6794,-2.6794,-2.6794,-2.6794,-2.6794,-2.6779,-2.65,-2.6138,-2.5619,-2.5743,-2.5342,-2.4089,-2.4105,-2.4076,-2.3275,-2.3095,-2.3095,-2.3095,-2.3095,-2.3095,-2.3095,-2.3095,-2.3095,-2.3095,-2.3095,-2.3182,-2.3114,-2.3145,-2.3095,-3.542,-3.5308,-3.5308,-3.5262,-3.5157,-3.4714,-3.4453,-3.4252,0.0,0.0,0.0,-3.1403,-3.1403,-3.1403,-3.1352,-3.168,-3.229,-3.2241,-3.2611,-3.3288,-3.2946,-3.2674,-3.2419,-3.1864,-3.1481,-3.1278,-3.1097,-3.1072,-3.119,-3.119,-3.119,-3.119,-3.119,-3.119,-3.119,-3.119,-3.119,-3.1173,-3.0937,-3.0818,-3.0801,-3.0818,-2.9922,-2.8043,-3.0074,-3.0273,-2.8391,-2.9712,-2.9327,-2.6824,-2.6112,-2.5362,-2.4425,-2.4048,-2.424,-2.5075,-2.5523,-2.5468,-2.4844,-2.5315,-2.5636,-2.5779,-2.6273,-2.6363,-2.5809,-2.6174,-2.6485,-2.6609,-2.6912,-2.7067,-2.7015,-2.6937,-2.6873,-2.682,-2.6794,-2.6794,-2.6794,-2.6794,-2.6794,-2.6794,-2.6794,-2.6794,-2.6794,-2.6794,-2.6794,-2.6794,-2.6794,-2.6794,-2.6794,-2.6794,-2.6794,-2.6753,-2.6474,-2.5934,-2.5564,-2.5756,-2.5328,-2.3959,-2.4394,-2.4509,-2.3501,-2.3095,-2.3095,-2.3095,-2.3095,-2.3095,-2.3095,-2.3095,-2.3095,-2.3095,-2.3228,-2.3424,-2.3897,-2.378,-2.3531,-3.542,-3.5308,-3.5308,-3.5262,-3.5157,-3.4695,-3.4272,-3.3815,-3.288,-3.207,-3.1403,-3.1403,-3.1403,-3.1403,-3.1384,-3.1427,-3.1537,-3.1479,-3.1879,-3.2593,-3.1885,-3.1914,-3.2468,-3.1112,-3.074,-3.121,-3.0605,-3.0581,-3.114,-3.119,-3.119,-3.119,-3.119,-3.119,-3.119,-3.119,-3.119,-3.1173,-2.9958,-2.9314,-2.9314,-2.9297,-2.9179,-2.8942,-3.0362,-3.0878,-3.0168,-3.0352,-3.0128,-2.9296,-2.827,-2.7579,-2.7287,-2.624,-2.5674,-2.5673,-2.5663,-2.5555,-2.5457,-2.5555,-2.5854,-2.6393,-2.6542,-2.6557,-2.6482,-2.7026,-2.7415,-2.7415,-2.7439,-2.7423,-2.7207,-2.713,-2.7026,-2.6846,-2.6794,-2.6794,-2.6794,-2.6794,-2.6794,-2.6794,-2.6794,-2.6794,-2.6794,-2.6794,-2.6794,-2.6794,-2.6794,-2.6794,-2.6794,-2.6794,-2.6794,-2.6794,-2.6727,-2.6647,-2.6394,-2.658,-2.6015,-2.4964,-2.4838,-2.461,-2.3471,-2.3155,-2.3125,-2.3125,-2.3125,-2.3095,-2.3095,-2.3095,-2.3125,-2.3155,-2.3531,-2.3956,-2.4176,-2.4452,-2.4696,-3.5446,-3.5338,-3.5315,-3.5278,-3.5218,-3.4705,-3.4307,-3.3974,-3.3456,-3.3054,-3.2706,-3.2706,-3.2706,-3.2687,-3.2667,-3.2653,-3.264,-3.2534,-3.2698,-3.3016,-3.2634,-3.2426,-3.2314,-3.1272,-3.0916,-3.1186,-3.0448,-3.0497,-3.114,-3.119,-3.119,-3.119,-3.119,-3.119,-3.119,-3.119,-3.119,-3.1193,-3.0514,-3.0192,-3.0211,-3.0194,-3.0211,-3.0192,-3.0656,-3.0736,-3.0518,-3.0016,-2.9645,-2.9416,-2.859,-2.8148,-2.8163,-2.7398,-2.6801,-2.6468,-2.6603,-2.6537,-2.6168,-2.6467,-2.6821,-2.7121,-2.7151,-2.7151,-2.7151,-2.742,-2.7575,-2.7473,-2.7437,-2.731,-2.7119,-2.7015,-2.6937,-2.6806,-2.6794,-2.6794,-2.6794,-2.6794,-2.6794,-2.6794,-2.6794,-2.6794,-2.6794,-2.6794,-2.6794,-2.6794,-2.6794,-2.6794,-2.6794,-2.6794,-2.6794,-2.6753,-2.6541,-2.634,-2.634,-2.6299,-2.5934,-2.5133,-2.5007,-2.4781,-2.4134,-2.3679,-2.3305,-2.3514,-2.3352,-2.3125,-2.3095,-2.3095,-2.3245,-2.3632,-2.3839,-2.4276,-2.4907,-2.5564,-2.5811,-3.546,-3.5386,-3.5323,-3.5262,-3.5168,-3.4714,-3.4375,-3.4185,-3.3908,-3.3807,-3.3807,-3.3807,-3.3807,-3.3807,-3.3753,-3.3726,-3.3698,-3.3605,-3.3534,-3.3506,-3.336,-3.2943,-3.2281,-3.1459,-3.101,-3.093,-3.0362,-3.0412,-3.0903,-3.0954,-3.0954,-3.0954,-3.0937,-3.1021,-3.119,-3.119,-3.119,-3.119,-3.119,-3.119,-3.119,-3.1095,-3.1035,-3.1015,-3.0576,-3.0309,-3.0145,-2.9467,-2.9067,-2.8928,-2.8446,-2.8235,-2.8275,-2.7989,-2.7599,-2.721,-2.74,-2.7375,-2.6901,-2.73,-2.7585,-2.7585,-2.7585,-2.7585,-2.7585,-2.7575,-2.7524,-2.7437,-2.7335,-2.7196,-2.7081,-2.6951,-2.6846,-2.682,-2.6794,-2.6794,-2.6794,-2.6794,-2.6794,-2.6794,-2.6794,-2.6794,-2.6794,-2.6794,-2.6794,-2.6794,-2.6794,-2.6794,-2.6794,-2.6794,-2.6794,-2.67,-2.6394,-2.6206,-2.6111,-2.6152,-2.5921,-2.53,-2.5077,-2.4979,-2.4753,-2.4018,-2.356,-2.3914,-2.3826,-2.356,-2.3395,-2.3335,-2.3619,-2.4118,-2.435,-2.4723,-2.5839,-2.6353,-2.6647,-3.546,-3.5386,-3.5323,-3.5155,-3.4917,-3.4614,-3.4375,-3.4166,-3.3921,-3.3807,-3.3807,-3.3807,-3.3807,-3.3807,-3.3775,-3.3793,-3.3793,-3.3712,-3.3661,-3.3545,-3.3208,-3.2766,-3.2212,-3.1168,-3.0501,-3.0247,-3.0089,-3.0021,-3.0192,-3.0209,-3.0192,-3.0209,-3.0209,-3.0514,-3.1089,-3.1157,-3.1157,-3.119,-3.119,-3.119,-3.1171,-3.0781,-3.0559,-3.0559,-3.0118,-2.9661,-2.9303,-2.9143,-2.8881,-2.8517,-2.8308,-2.8137,-2.8054,-2.788,-2.771,-2.753,-2.758,-2.7555,-2.751,-2.7555,-2.7585,-2.7585,-2.7585,-2.7585,-2.76,-2.7473,-2.7463,-2.7499,-2.7437,-2.7299,-2.7181,-2.7041,-2.6925,-2.682,-2.6794,-2.6794,-2.6794,-2.6794,-2.6794,-2.6794,-2.6794,-2.6794,-2.6794,-2.6794,-2.6794,-2.6794,-2.6794,-2.6794,-2.6794,-2.6794,-2.6794,-2.6794,-2.67,-2.6674,-2.6659,-2.67,-2.642,-2.5907,-2.5356,-2.5175,-2.5007,-2.4595,-2.4089,-2.4379,-2.4481,-2.4481,-2.4089,-2.4015,-2.4176,-2.4509,-2.4823,-2.5273,-2.6353,-2.6727,-2.6727,-3.5479,-3.5405,-3.5342,-3.5223,-3.5046,-3.4665,-3.4453,-3.4348,-3.3954,-3.3807,-3.3807,-3.3807,-3.3807,-3.3807,-3.3807,-3.3807,-3.3807,-3.3707,-3.3657,-3.3536,-3.2915,-3.2494,-3.2158,-3.0413,-2.9748,-2.9976,-2.9176,-2.8991,-2.9381,-2.945,-2.9431,-2.9431,-2.945,-2.9619,-2.9873,-2.9907,-2.9888,-2.9888,-2.9907,-2.9907,-2.9971,-3.0306,-3.0497,-3.0398,-2.9777,-2.9303,-2.9097,-2.8826,-2.8597,-2.8396,-2.8201,-2.8103,-2.8128,-2.784,-2.7715,-2.77,-2.7665,-2.7585,-2.7585,-2.7585,-2.7585,-2.7585,-2.7585,-2.7585,-2.76,-2.7463,-2.7412,-2.7437,-2.7299,-2.7093,-2.6974,-2.691,-2.6873,-2.682,-2.6794,-2.6794,-2.6794,-2.6794,-2.6794,-2.6794,-2.6794,-2.6794,-2.6794,-2.6794,-2.6794,-2.6794,-2.6794,-2.6794,-2.6794,-2.6794,-2.6794,-2.6794,-2.6794,-2.6794,-2.6794,-2.6794,-2.6674,-2.642,-2.5934,-2.5591,-2.5811,-2.5203,-2.4738,-2.5076,-2.509,-2.4823,-2.4147,-2.4131,-2.4218,-2.4595,-2.5217,-2.5701,-2.6192,-2.6553,-2.6727,-3.5486,-3.5412,-3.535,-3.5243,-3.5157,-3.4774,-3.4603,-3.4559,-3.4099,-3.3908,-3.3895,-3.3847,-3.3807,-3.3788,-3.378,-3.378,-3.3775,-3.3712,-3.3661,-3.3532,-3.2916,-3.24,-3.184,-3.0366,-2.9501,-2.932,-2.8601,-2.8331,-2.8653,-2.867,-2.8653,-2.867,-2.8671,-2.8772,-2.8976,-2.8993,-2.8993,-2.901,-2.8993,-2.8993,-2.9072,-2.947,-2.9737,-2.9687,-2.9201,-2.8841,-2.8653,-2.8441,-2.8348,-2.8348,-2.8103,-2.8005,-2.8063,-2.7775,-2.765,-2.774,-2.765,-2.7585,-2.7585,-2.7585,-2.7585,-2.7585,-2.7585,-2.76,-2.7524,-2.7437,-2.731,-2.7273,-2.7081,-2.691,-2.6899,-2.6806,-2.6794,-2.6794,-2.6794,-2.6794,-2.6794,-2.6794,-2.6794,-2.6794,-2.6794,-2.6794,-2.6794,-2.6794,-2.6794,-2.6794,-2.6794,-2.6794,-2.6794,-2.6794,-2.6794,-2.6794,-2.6794,-2.6794,-2.6794,-2.6794,-2.6794,-2.6674,-2.626,-2.6056,-2.6594,-2.5811,-2.5273,-2.5495,-2.5342,-2.509,-2.4567,-2.4379,-2.4205,-2.4494,-2.5118,-2.5907,-2.626,-2.6568,-2.6727,-3.55,-3.5467,-3.5338,-3.5243,-3.5166,-3.4954,-3.486,-3.4802,-3.4367,-3.4173,-3.4111,-3.3895,-3.3807,-3.3807,-3.3726,-3.3721,-3.378,-3.3602,-3.3514,-3.35,-3.332,-3.2613,-3.1312,-3.1105,-2.9952,-2.8249,-2.8467,-2.8399,-2.7874,-2.7841,-2.7858,-2.7858,-2.7858,-2.8247,-2.8773,-2.8824,-2.8959,-2.884,-2.8824,-2.8908,-2.8815,-2.8198,-2.7875,-2.7837,-2.8191,-2.8098,-2.7658,-2.7946,-2.8195,-2.821,-2.7965,-2.7815,-2.7815,-2.769,-2.76,-2.7585,-2.7585,-2.7585,-2.7585,-2.7585,-2.7585,-2.7585,-2.7585,-2.7549,-2.7437,-2.731,-2.7196,-2.7041,-2.6925,-2.6873,-2.6925,-2.6846,-2.6794,-2.6794,-2.6794,-2.6794,-2.6794,-2.6794,-2.6794,-2.6794,-2.6794,-2.6794,-2.6794,-2.6794,-2.6794,-2.6794,-2.6794,-2.6794,-2.6794,-2.6794,-2.6794,-2.6794,-2.6794,-2.6794,-2.6794,-2.6794,-2.6794,-2.67,-2.6447,-2.6125,-2.6286,-2.634,-2.6098,-2.5893,-2.577,-2.5508,-2.5021,-2.4681,-2.4452,-2.4681,-2.5314,-2.5948,-2.6233,-2.6621,-2.6753,-3.5453,-3.5364,-3.5331,-3.5258,-3.5185,-3.4992,-3.4803,-3.4622,-3.4333,-3.4099,-3.3947,-3.3847,-3.3807,-3.3788,-3.3684,-3.3671,-3.3671,-3.3131,-3.2794,-3.2643,-3.1706,-3.0927,-3.0414,-2.9455,-2.8652,-2.7911,-2.7621,-2.7385,-2.7148,-2.7097,-2.7097,-2.7097,-2.7097,-2.7266,-2.7503,-2.752,-2.7537,-2.7537,-2.7503,-2.7415,-2.7199,-2.7022,-2.6587,-2.595,-2.6676,-2.7211,-2.7396,-2.7493,-2.7752,-2.818,-2.7955,-2.7815,-2.779,-2.7675,-2.7585,-2.7585,-2.7585,-2.7585,-2.7585,-2.7585,-2.7585,-2.7585,-2.7585,-2.7575,-2.7499,-2.7321,-2.7181,-2.7119,-2.691,-2.6846,-2.6846,-2.682,-2.6794,-2.6794,-2.6794,-2.6794,-2.6794,-2.6794,-2.6794,-2.6794,-2.6794,-2.6794,-2.6794,-2.6794,-2.6794,-2.6794,-2.6794,-2.6794,-2.6794,-2.6794,-2.6794,-2.6794,-2.6794,-2.6794,-2.6794,-2.6794,-2.6779,-2.6753,-2.6621,-2.6568,-2.6647,-2.6647,-2.642,-2.6313,-2.6192,-2.5591,-2.4992,-2.4423,-2.4308,-2.441,-2.5063,-2.5797,-2.6179,-2.6474,-2.6539,-3.542,-3.5308,-3.5316,-3.5258,-3.5166,-3.4973,-3.4793,-3.4601,-3.4321,-3.4099,-3.3952,-3.3847,-3.3807,-3.3793,-3.3666,-3.3465,-3.3237,-3.2625,-3.226,-3.2021,-3.0713,-2.9876,-2.9355,-2.8406,-2.7726,-2.7436,-2.6962,-2.6708,-2.6708,-2.6708,-2.6708,-2.6708,-2.6708,-2.6708,-2.6674,-2.6556,-2.6487,-2.6453,-2.6298,-2.6087,-2.5901,-2.5879,-2.5556,-2.4999,-2.5354,-2.5915,-2.6589,-2.6672,-2.693,-2.7363,-2.7412,-2.7425,-2.7458,-2.7534,-2.7509,-2.7357,-2.7499,-2.7585,-2.7585,-2.7585,-2.7585,-2.7585,-2.7585,-2.7585,-2.7524,-2.7335,-2.7181,-2.7078,-2.6937,-2.6794,-2.6794,-2.6794,-2.6794,-2.6794,-2.6794,-2.6794,-2.6794,-2.6794,-2.6794,-2.6794,-2.6794,-2.6794,-2.6794,-2.6794,-2.6794,-2.6794,-2.6794,-2.6794,-2.6794,-2.6794,-2.6794,-2.6794,-2.6794,-2.6794,-2.6794,-2.6794,-2.6794,-2.6753,-2.6753,-2.6779,-2.6779,-2.6779,-2.6753,-2.6674,-2.6245,-2.5564,-2.4908,-2.4292,-2.4134,-2.4108,-2.4739,-2.5564,-2.592,-2.6285,-2.6338,-3.542,-3.5315,-3.5308,-3.5262,-3.5185,-3.4992,-3.4889,-3.4782,-3.4379,-3.4173,-3.4074,-3.3895,-3.3807,-3.3793,-3.3726,-3.3255,-3.2689,-3.2292,-3.1892,-3.1523,-3.0667,-2.9564,-2.8463,-2.8275,-2.7667,-2.6843,-2.6725,-2.6708,-2.6708,-2.6708,-2.6708,-2.6708,-2.6708,-2.6657,-2.6674,-2.6262,-2.6015,-2.5924,-2.5561,-2.5335,-2.5346,-2.4985,-2.4762,-2.4675,-2.4384,-2.4459,-2.5052,-2.5516,-2.5878,-2.5998,-2.6438,-2.6653,-2.6868,-2.728,-2.7331,-2.6971,-2.728,-2.756,-2.7585,-2.7585,-2.7585,-2.7585,-2.7585,-2.7564,-2.7412,-2.7284,-2.7155,-2.7015,-2.6884,-2.6794,-2.6794,-2.6794,-2.6794,-2.6794,-2.6794,-2.6794,-2.6794,-2.6794,-2.6794,-2.6794,-2.6794,-2.6794,-2.6794,-2.6794,-2.6794,-2.6794,-2.6794,-2.6794,-2.6794,-2.6794,-2.6794,-2.6794,-2.6794,-2.6794,-2.6794,-2.6794,-2.6794,-2.6794,-2.6779,-2.6779,-2.6753,-2.6753,-2.6753,-2.6633,-2.5974,-2.53,-2.4652,-2.4147,-2.4352,-2.4469,-2.5035,-2.5467,-2.5865,-2.6231,-2.6204,-3.542,-3.5315,-3.5308,-3.5262,-3.5166,-3.4992,-3.4793,-3.4593,-3.4302,-3.4099,-3.3934,-3.3847,-3.3807,-3.3793,-3.3726,-3.3538,-3.32,-3.206,-3.0988,-3.0095,-2.924,-2.8447,-2.7721,-2.7574,-2.7276,-2.6775,-2.6708,-2.6708,-2.6708,-2.6708,-2.6708,-2.6691,-2.6657,-2.6469,-2.6227,-2.5995,-2.576,-2.5449,-2.5297,-2.5086,-2.4883,-2.4684,-2.4441,-2.4141,-2.3946,-2.396,-2.407,-2.4724,-2.5304,-2.5749,-2.6309,-2.6639,-2.6799,-2.7255,-2.728,-2.6852,-2.7255,-2.7585,-2.7585,-2.7585,-2.7585,-2.7585,-2.7585,-2.7539,-2.7401,-2.7299,-2.713,-2.7003,-2.6899,-2.6794,-2.6794,-2.6794,-2.6794,-2.6794,-2.6794,-2.6794,-2.6794,-2.6794,-2.6794,-2.6794,-2.6794,-2.6794,-2.6794,-2.6794,-2.6794,-2.6794,-2.6794,-2.6794,-2.6794,-2.6794,-2.6794,-2.6794,-2.6794,-2.6794,-2.6794,-2.6794,-2.6794,-2.6753,-2.6753,-2.6686,-2.6686,-2.658,-2.6606,-2.6379,-2.5715,-2.5091,-2.4452,-2.4308,-2.4525,-2.4909,-2.5398,-2.5756,-2.6015,-2.6096,-2.6069,-3.542,-3.5315,-3.5308,-3.5262,-3.5157,-3.4898,-3.4663,-3.4464,-3.4191,-3.3947,-3.3815,-3.3807,-3.3807,-3.3807,-3.3766,-3.3346,-3.2688,-3.1586,-3.0256,-2.8856,-2.8252,-2.7622,-2.7068,-2.7021,-2.6923,-2.6741,-2.6708,-2.6708,-2.6708,-2.6674,-2.6674,-2.6657,-2.6606,-2.6348,-2.5941,-2.5649,-2.5313,-2.495,-2.4697,-2.4527,-2.4338,-2.4256,-2.4069,-2.3846,-2.376,-2.3696,-2.364,-2.4094,-2.4664,-2.5325,-2.592,-2.6268,-2.6397,-2.689,-2.6982,-2.6654,-2.71,-2.7585,-2.7585,-2.7585,-2.7585,-2.7585,-2.7585,-2.7524,-2.7412,-2.7325,-2.7196,-2.7029,-2.6925,-2.6873,-2.682,-2.6794,-2.6794,-2.6794,-2.6794,-2.6794,-2.6794,-2.6794,-2.6794,-2.6794,-2.6794,-2.6794,-2.6794,-2.6794,-2.6794,-2.6794,-2.6794,-2.6794,-2.6794,-2.6794,-2.6794,-2.6794,-2.6794,-2.6794,-2.6794,-2.6794,-2.6794,-2.6727,-2.6659,-2.6566,-2.6525,-2.6285,-2.6218,-2.6069,-2.5577,-2.5161,-2.458,-2.4666,-2.4851,-2.53,-2.5577,-2.5674,-2.577,-2.5866,-2.5893,-3.542,-3.5315,-3.5308,-3.5254,-3.5113,-3.4705,-3.4508,-3.4409,-3.4018,-3.3802,-3.3807,-3.3807,-3.3752,-3.3715,-3.3592,-3.2823,-3.1451,-3.1102,-2.9963,-2.846,-2.7783,-2.738,-2.6841,-2.6758,-2.6741,-2.6708,-2.6708,-2.6708,-2.6691,-2.6623,-2.6606,-2.6589,-2.6503,-2.6224,-2.574,-2.5221,-2.4812,-2.4348,-2.3921,-2.3767,-2.3824,-2.3702,-2.3681,-2.376,-2.3674,-2.3595,-2.3625,-2.3879,-2.4193,-2.4686,-2.5433,-2.5845,-2.598,-2.639,-2.651,-2.6095,-2.6982,-2.7484,-2.7585,-2.7585,-2.7585,-2.7585,-2.76,-2.7564,-2.7427,-2.7376,-2.7273,-2.7029,-2.7003,-2.6951,-2.6832,-2.6794,-2.6794,-2.6794,-2.6794,-2.6794,-2.6794,-2.6794,-2.6794,-2.6794,-2.6794,-2.6794,-2.6794,-2.6794,-2.6794,-2.6794,-2.6794,-2.6794,-2.6794,-2.6794,-2.6794,-2.6794,-2.6794,-2.6794,-2.6779,-2.6633,-2.6633,-2.6553,-2.6486,-2.6392,-2.6324,-2.6123,-2.5797,-2.5646,-2.5508,-2.5118,-2.4921,-2.4963,-2.4991,-2.516,-2.5328,-2.5384,-2.5536,-2.5688,-2.5893,-3.5453,-3.5352,-3.5323,-3.5168,-3.4953,-3.4615,-3.4428,-3.425,-3.3947,-3.3807,-3.3807,-3.3807,-3.3476,-3.2949,-3.2931,-3.2305,-3.1325,-3.0604,-2.9832,-2.8718,-2.7941,-2.7338,-2.6825,-2.6708,-2.6708,-2.6708,-2.6708,-2.6674,-2.664,-2.6589,-2.6571,-2.6537,-2.6365,-2.5957,-2.5278,-2.5024,-2.4527,-2.3921,-2.3687,-2.3616,-2.3653,-2.3631,-2.3595,-2.3638,-2.3595,-2.3595,-2.3714,-2.4582,-2.5121,-2.5329,-2.5531,-2.5948,-2.6397,-2.659,-2.663,-2.659,-2.7111,-2.7585,-2.7585,-2.7585,-2.7585,-2.7585,-2.7585,-2.7524,-2.7427,-2.7401,-2.7273,-2.7081,-2.7003,-2.6951,-2.6832,-2.6794,-2.6794,-2.6794,-2.6794,-2.6794,-2.6794,-2.6794,-2.6794,-2.6794,-2.6794,-2.6794,-2.6794,-2.6794,-2.6794,-2.6794,-2.6794,-2.6794,-2.6794,-2.6794,-2.6794,-2.6794,-2.6794,-2.6794,-2.6727,-2.6539,-2.6418,-2.6365,-2.6258,-2.6165,-2.6123,-2.6015,-2.5633,-2.53,-2.5272,-2.4991,-2.502,-2.5061,-2.509,-2.5159,-2.5397,-2.5619,-2.5605,-2.5702,-2.5961,-3.546,-3.5398,-3.5342,-3.5152,-3.4879,-3.4605,-3.4394,-3.4185,-3.3939,-3.3807,-3.3807,-3.3807,-3.3348,-3.2651,-3.2601,-3.1889,-3.0788,-3.0221,-2.9427,-2.8397,-2.762,-2.7069,-2.6758,-2.6708,-2.6691,-2.6674,-2.6657,-2.6623,-2.6571,-2.6503,-2.6452,-2.6365,-2.6119,-2.5596,-2.5024,-2.4704,-2.4313,-2.3724,-2.3595,-2.3595,-2.3595,-2.3595,-2.3595,-2.3595,-2.3595,-2.3595,-2.3723,-2.4431,-2.5076,-2.5539,-2.5922,-2.6303,-2.6637,-2.6709,-2.6709,-2.6736,-2.7265,-2.7585,-2.7585,-2.7585,-2.7585,-2.7585,-2.7585,-2.7524,-2.7427,-2.7401,-2.7299,-2.7055,-2.7003,-2.6925,-2.6832,-2.6794,-2.6794,-2.6794,-2.6794,-2.6794,-2.6794,-2.6794,-2.6794,-2.6794,-2.6794,-2.6794,-2.6794,-2.6794,-2.6794,-2.6794,-2.6794,-2.6794,-2.6794,-2.6794,-2.6794,-2.6794,-2.6753,-2.6727,-2.6606,-2.6418,-2.6285,-2.6231,-2.6015,-2.5907,-2.5866,-2.5811,-2.5384,-2.502,-2.4991,-2.4991,-2.4991,-2.509,-2.5285,-2.5425,-2.5674,-2.5743,-2.573,-2.5771,-2.6042,-3.546,-3.5405,-3.5315,-3.5127,-3.4851,-3.4584,-3.4337,-3.4117,-3.3895,-3.3733,-3.3623,-3.366,-3.2999,-3.2362,-3.2001,-3.1388,-2.9898,-2.9764,-2.895,-2.7956,-2.7165,-2.6725,-2.6708,-2.6708,-2.6657,-2.6623,-2.6623,-2.6554,-2.6485,-2.6365,-2.6243,-2.6085,-2.5723,-2.5291,-2.4823,-2.4492,-2.4078,-2.3681,-2.3595,-2.3595,-2.3595,-2.3595,-2.3595,-2.3595,-2.3595,-2.3595,-2.3672,-2.4006,-2.4557,-2.5561,-2.6134,-2.6315,-2.6512,-2.666,-2.6736,-2.6893,-2.7306,-2.7585,-2.7585,-2.7585,-2.7585,-2.7585,-2.7585,-2.7549,-2.7478,-2.7412,-2.7299,-2.7067,-2.7003,-2.6925,-2.6846,-2.6794,-2.6794,-2.6794,-2.6794,-2.6794,-2.6794,-2.6794,-2.6794,-2.6794,-2.6794,-2.6794,-2.6794,-2.6794,-2.6794,-2.6794,-2.6794,-2.6794,-2.6794,-2.6794,-2.6794,-2.6794,-2.6727,-2.6659,-2.6472,-2.627,-2.6163,-2.6055,-2.577,-2.5619,-2.5564,-2.5411,-2.502,-2.4821,-2.4935,-2.4907,-2.4821,-2.5005,-2.5285,-2.5439,-2.5508,-2.5633,-2.5771,-2.5893,-2.6082,-3.55,-3.5453,-3.5239,-3.4971,-3.4724,-3.4469,-3.4166,-3.3895,-3.3829,-3.3421,-3.2968,-3.2871,-3.2051,-3.0797,-3.0766,-3.0033,-2.9186,-2.9021,-2.8465,-2.7754,-2.7021,-2.6691,-2.664,-2.6657,-2.6657,-2.6606,-2.6606,-2.652,-2.6365,-2.626,-2.6067,-2.5705,-2.5484,-2.5121,-2.4513,-2.4328,-2.4057,-2.3681,-2.3595,-2.3595,-2.3595,-2.3595,-2.3595,-2.3595,-2.3595,-2.3595,-2.3729,-2.4142,-2.4812,-2.5245,-2.5145,-2.5372,-2.6374,-2.6306,-2.6493,-2.7163,-2.7473,-2.7585,-2.7585,-2.7585,-2.76,-2.76,-2.7575,-2.7585,-2.7564,-2.7452,-2.7325,-2.7155,-2.7067,-2.691,-2.6806,-2.6794,-2.6794,-2.6794,-2.6794,-2.6794,-2.6794,-2.6794,-2.6794,-2.6794,-2.6794,-2.6794,-2.6794,-2.6794,-2.6794,-2.6794,-2.6794,-2.6794,-2.6794,-2.6794,-2.6753,-2.6727,-2.6659,-2.6539,-2.6218,-2.6042,-2.5948,-2.5893,-2.5647,-2.5495,-2.5439,-2.5257,-2.4948,-2.4907,-2.4963,-2.4907,-2.4793,-2.4878,-2.5146,-2.5216,-2.5341,-2.5536,-2.5743,-2.5907,-2.6109,-3.5441,-3.5346,-3.5163,-3.4908,-3.4599,-3.4367,-3.4124,-3.3808,-3.338,-3.3005,-3.2564,-3.2247,-3.1317,-3.021,-3.0082,-2.9637,-2.8814,-2.8352,-2.8041,-2.7565,-2.7005,-2.664,-2.6606,-2.6572,-2.6555,-2.6469,-2.6452,-2.6382,-2.6241,-2.603,-2.576,-2.5465,-2.516,-2.4739,-2.4302,-2.4099,-2.3852,-2.3659,-2.3595,-2.3595,-2.3595,-2.3595,-2.3595,-2.3595,-2.3595,-2.3595,-2.3655,-2.3666,-2.4082,-2.4387,-2.4333,-2.5006,-2.6573,-2.6544,-2.6745,-2.7382,-2.7585,-2.7585,-2.7585,-2.7585,-2.756,-2.7514,-2.7499,-2.7448,-2.7412,-2.7299,-2.7196,-2.7093,-2.7003,-2.6873,-2.682,-2.6794,-2.6794,-2.6794,-2.6794,-2.6794,-2.6794,-2.6794,-2.6794,-2.6794,-2.6794,-2.6794,-2.6794,-2.6794,-2.6794,-2.6794,-2.6794,-2.6794,-2.6794,-2.6779,-2.6659,-2.6592,-2.6566,-2.6379,-2.5989,-2.5771,-2.5702,-2.5647,-2.5536,-2.5481,-2.5467,-2.5257,-2.5005,-2.5005,-2.5005,-2.5005,-2.4948,-2.5005,-2.5061,-2.5285,-2.5467,-2.5536,-2.5674,-2.5866,-2.6069,-3.5211,-3.5141,-3.5053,-3.4831,-3.448,-3.4197,-3.3883,-3.3594,-3.28,-3.2302,-3.2106,-3.1494,-3.0699,-3.0039,-2.9856,-2.9357,-2.8631,-2.8041,-2.7716,-2.7474,-2.694,-2.6657,-2.6572,-2.6537,-2.6434,-2.6278,-2.6313,-2.6277,-2.6099,-2.5756,-2.5503,-2.5294,-2.4699,-2.4323,-2.4135,-2.3846,-2.3616,-2.3595,-2.3595,-2.3595,-2.3595,-2.3595,-2.3595,-2.3595,-2.3595,-2.3508,-2.3421,-2.3327,-2.3297,-2.3607,-2.3866,-2.5181,-2.6549,-2.7045,-2.6893,-2.7433,-2.7484,-2.7585,-2.7585,-2.76,-2.7549,-2.7437,-2.7412,-2.7361,-2.7258,-2.7144,-2.7055,-2.6977,-2.6899,-2.682,-2.6794,-2.6794,-2.6794,-2.6794,-2.6794,-2.6794,-2.6794,-2.6794,-2.6794,-2.6794,-2.6794,-2.6794,-2.6794,-2.6794,-2.6794,-2.6794,-2.6794,-2.6794,-2.6794,-2.6753,-2.6633,-2.6472,-2.6445,-2.6192,-2.5825,-2.5495,-2.5397,-2.5397,-2.5355,-2.5383,-2.5383,-2.5188,-2.5005,-2.5005,-2.5005,-2.5005,-2.5005,-2.5005,-2.5131,-2.5383,-2.5439,-2.5397,-2.555,-2.5798,-2.596,-3.447,-3.4926,-3.4761,-3.4604,-3.436,-3.3557,-3.3105,-3.2784,-3.2139,-3.1274,-3.0705,-3.0467,-3.0014,-2.9373,-2.9077,-2.8692,-2.8259,-2.7829,-2.7537,-2.7307,-2.6858,-2.6623,-2.6537,-2.6468,-2.6397,-2.6276,-2.6224,-2.6206,-2.6063,-2.5756,-2.5294,-2.4962,-2.4497,-2.4114,-2.3824,-2.3601,-2.3595,-2.3595,-2.3595,-2.3595,-2.3595,-2.3595,-2.3595,-2.3573,-2.3551,-2.3399,-2.3246,-2.3348,-2.3592,-2.3814,-2.3835,-2.467,-2.5846,-2.648,-2.6797,-2.6971,-2.7382,-2.7585,-2.7585,-2.7575,-2.76,-2.7549,-2.7437,-2.7376,-2.7273,-2.7144,-2.7003,-2.6951,-2.6873,-2.6794,-2.6794,-2.6794,-2.6794,-2.6794,-2.6794,-2.6794,-2.6794,-2.6794,-2.6794,-2.6794,-2.6794,-2.6794,-2.6794,-2.6794,-2.6794,-2.6794,-2.6794,-2.6794,-2.6794,-2.6727,-2.6606,-2.6472,-2.6324,-2.6002,-2.5619,-2.5328,-2.5103,-2.5159,-2.5131,-2.5131,-2.5131,-2.5075,-2.5005,-2.5005,-2.5005,-2.5005,-2.5005,-2.5005,-2.5047,-2.5188,-2.5188,-2.516,-2.5301,-2.5437,-2.5682,-3.4272,-3.4713,-3.4626,-3.4484,-3.4132,-3.3271,-3.3044,-3.3103,-3.2016,-3.1207,-3.0809,-3.0381,-2.9722,-2.9058,-2.8852,-2.8538,-2.8075,-2.7622,-2.7369,-2.7133,-2.6792,-2.6572,-2.6468,-2.6398,-2.631,-2.6151,-2.6012,-2.5886,-2.5793,-2.5387,-2.5001,-2.4578,-2.4162,-2.3824,-2.3674,-2.3595,-2.3595,-2.3595,-2.3595,-2.3595,-2.3595,-2.3595,-2.3595,-2.3551,-2.3399,-2.326,-2.3297,-2.312,-2.3423,-2.3807,-2.4395,-2.4824,-2.5427,-2.6287,-2.7008,-2.6878,-2.7255,-2.7585,-2.7575,-2.7539,-2.7463,-2.7386,-2.7258,-2.7144,-2.7093,-2.6963,-2.6899,-2.6873,-2.6873,-2.6794,-2.6794,-2.6794,-2.6794,-2.6794,-2.6794,-2.6794,-2.6794,-2.6794,-2.6794,-2.6794,-2.6794,-2.6794,-2.6794,-2.6794,-2.6794,-2.6794,-2.6779,-2.6779,-2.6753,-2.6606,-2.6433,-2.6192,-2.5988,-2.566,-2.5383,-2.5216,-2.5005,-2.5005,-2.5005,-2.5005,-2.5005,-2.5005,-2.5005,-2.5005,-2.5005,-2.4882,-2.4991,-2.4978,-2.4991,-2.491,-2.4735,-2.4655,-2.4874,-2.5051,-2.5291,-3.413,-3.4517,-3.4517,-3.4381,-3.3988,-3.3198,-3.3136,-3.3313,-3.2059,-3.1409,-3.1292,-3.0577,-2.9801,-2.915,-2.8742,-2.8391,-2.7922,-2.7382,-2.7197,-2.7022,-2.6725,-2.652,-2.645,-2.6328,-2.6151,-2.5937,-2.574,-2.5519,-2.5446,-2.502,-2.4619,-2.4307,-2.3846,-2.3595,-2.3595,-2.3595,-2.3595,-2.3595,-2.3595,-2.3595,-2.3573,-2.3588,-2.3588,-2.3573,-2.3224,-2.3238,-2.329,-2.3268,-2.3209,-2.3674,-2.4335,-2.4976,-2.499,-2.6253,-2.6959,-2.6808,-2.7214,-2.7499,-2.7524,-2.7437,-2.7335,-2.7258,-2.7093,-2.6963,-2.6884,-2.6899,-2.682,-2.6794,-2.6794,-2.6794,-2.6794,-2.6794,-2.6794,-2.6794,-2.6794,-2.6794,-2.6794,-2.6794,-2.6794,-2.6794,-2.6794,-2.6794,-2.6794,-2.6794,-2.6794,-2.67,-2.67,-2.6566,-2.6539,-2.6326,-2.6138,-2.5825,-2.5536,-2.5258,-2.509,-2.5131,-2.5005,-2.5005,-2.5005,-2.5005,-2.5005,-2.5005,-2.4978,-2.4868,-2.4692,-2.4611,-2.4801,-2.4774,-2.4529,-2.434,-2.4164,-2.419,-2.4416,-2.4625,-2.4815,-3.3786,-3.4245,-3.4245,-3.4221,-3.4043,-3.3259,-3.2902,-3.2865,-3.198,-3.1452,-3.1458,-3.065,-3.021,-2.963,-2.8621,-2.7929,-2.7474,-2.7211,-2.7021,-2.6808,-2.664,-2.6537,-2.6485,-2.6365,-2.5975,-2.5684,-2.5503,-2.5503,-2.5256,-2.4699,-2.4385,-2.4177,-2.3824,-2.3595,-2.3595,-2.3595,-2.3595,-2.3595,-2.3573,-2.3566,-2.3516,-2.3509,-2.3509,-2.3494,-2.3414,-2.3312,-2.3201,-2.3246,-2.3334,-2.3142,-2.3606,-2.4086,-2.4534,-2.5184,-2.5956,-2.6473,-2.7023,-2.7427,-2.7401,-2.7299,-2.7222,-2.717,-2.7081,-2.7003,-2.6925,-2.6846,-2.6794,-2.6794,-2.6794,-2.6794,-2.6794,-2.6794,-2.6794,-2.6794,-2.6794,-2.6794,-2.6794,-2.6794,-2.6794,-2.6794,-2.6794,-2.6794,-2.6794,-2.6794,-2.6779,-2.6686,-2.6566,-2.6445,-2.6285,-2.6096,-2.5825,-2.5508,-2.5355,-2.509,-2.5005,-2.5005,-2.4828,-2.4868,-2.4841,-2.48,-2.4597,-2.4516,-2.476,-2.4651,-2.4421,-2.4109,-2.4042,-2.3933,-2.3865,-2.3784,-2.3672,-2.3797,-2.3996,-2.4182,-2.4355,-3.3781,-3.3577,-3.4011,-3.4173,-3.4043,-3.3222,-3.3087,-3.3196,-3.2513,-3.2113,-3.2045,-3.1751,-3.0947,-2.9677,-2.8273,-2.7504,-2.7197,-2.7021,-2.6842,-2.6674,-2.6572,-2.6486,-2.6295,-2.6031,-2.5652,-2.5465,-2.5063,-2.4744,-2.4643,-2.4517,-2.4213,-2.3909,-2.3717,-2.3595,-2.3595,-2.3595,-2.3566,-2.3538,-2.3458,-2.3407,-2.3385,-2.3385,-2.3385,-2.34,-2.3201,-2.3172,-2.3238,-2.3135,-2.3312,-2.3319,-2.3813,-2.4424,-2.5011,-2.5628,-2.6278,-2.6836,-2.7052,-2.7248,-2.735,-2.7196,-2.7119,-2.7041,-2.6977,-2.6884,-2.6873,-2.6846,-2.6794,-2.6794,-2.6794,-2.6794,-2.6794,-2.6794,-2.6794,-2.6794,-2.6794,-2.6794,-2.6794,-2.6794,-2.6794,-2.6794,-2.6794,-2.6794,-2.6779,-2.6738,-2.6659,-2.6498,-2.6392,-2.6258,-2.6042,-2.5825,-2.555,-2.523,-2.5118,-2.5005,-2.5005,-2.4991,-2.4597,-2.4516,-2.4367,-2.4272,-2.3947,-2.3906,-2.415,-2.4082,-2.3743,-2.3472,-2.3269,-2.3323,-2.3418,-2.3345,-2.324,-2.3342,-2.3466,-2.3712,-2.3865,-3.385,-3.3094,-3.3863,-3.4173,-3.4074,-3.3389,-3.3419,-3.3792,-3.3191,-3.2784,-3.2465,-3.1952,-3.0713,-2.929,-2.7903,-2.7197,-2.7053,-2.6808,-2.6691,-2.6606,-2.6537,-2.6451,-2.6242,-2.5868,-2.5481,-2.5332,-2.4719,-2.4349,-2.4183,-2.4073,-2.3909,-2.3616,-2.3616,-2.3595,-2.3595,-2.3573,-2.3566,-2.3509,-2.3319,-2.3253,-2.3253,-2.3231,-2.3231,-2.3164,-2.3038,-2.2994,-2.315,-2.3238,-2.3304,-2.3312,-2.3644,-2.4204,-2.515,-2.5453,-2.6153,-2.6711,-2.7041,-2.7041,-2.7144,-2.7107,-2.6977,-2.6925,-2.6873,-2.6806,-2.6806,-2.6794,-2.6794,-2.6794,-2.6794,-2.6794,-2.6794,-2.6794,-2.6794,-2.6794,-2.6794,-2.6794,-2.6794,-2.6794,-2.6794,-2.6794,-2.6794,-2.6794,-2.6753,-2.6686,-2.6551,-2.6336,-2.6176,-2.6028,-2.5741,-2.5425,-2.5218,-2.4871,-2.4463,-2.4462,-2.4624,-2.4584,-2.4313,-2.4096,-2.3933,-2.3771,-2.3472,-2.3378,-2.3513,-2.331,-2.304,-2.2903,-2.278,-2.2875,-2.2955,-2.2663,-2.246,-2.2724,-2.2921,-2.3188,-2.3363,-3.385,-3.3064,-3.3863,-3.4179,-3.4185,-3.4006,-3.3924,-3.3972,-3.3737,-3.3185,-3.2305,-3.0749,-2.9517,-2.8462,-2.7689,-2.7005,-2.6741,-2.6708,-2.6691,-2.664,-2.6555,-2.6451,-2.6154,-2.574,-2.5272,-2.4922,-2.4395,-2.4015,-2.3767,-2.3782,-2.3659,-2.3595,-2.3595,-2.3595,-2.3573,-2.3551,-2.3516,-2.3422,-2.3223,-2.3127,-2.3127,-2.3105,-2.3105,-2.3149,-2.3179,-2.3083,-2.2649,-2.3083,-2.3172,-2.2912,-2.3088,-2.3748,-2.4772,-2.4941,-2.56,-2.6499,-2.6881,-2.6922,-2.7003,-2.6951,-2.6846,-2.682,-2.682,-2.6794,-2.6794,-2.6794,-2.6794,-2.6794,-2.6794,-2.6794,-2.6794,-2.6794,-2.6794,-2.6794,-2.6794,-2.6794,-2.6794,-2.6794,-2.6794,-2.6794,-2.6765,-2.6709,-2.6428,-2.6277,-2.632,-2.6174,-2.581,-2.5618,-2.5135,-2.4791,-2.4722,-2.4422,-2.3811,-2.373,-2.4014,-2.392,-2.3676,-2.3459,-2.3283,-2.3201,-2.3066,-2.2999,-2.2769,-2.2742,-2.2551,-2.2388,-2.2291,-2.2332,-2.2235,-2.1798,-2.1774,-2.2309,-2.2659,-2.293,-2.3025,-3.413,-3.38,-3.4067,-3.4216,-3.4166,-3.4061,-3.3998,-3.3928,-3.3616,-3.2911,-3.1895,-3.0295,-2.915,-2.8343,-2.7381,-2.6841,-2.6708,-2.6708,-2.6674,-2.6606,-2.6503,-2.6259,-2.5885,-2.5422,-2.4922,-2.4517,-2.412,-2.3809,-2.3638,-2.3595,-2.3566,-2.3566,-2.3588,-2.3595,-2.3573,-2.3465,-2.3363,-2.3246,-2.309,-2.2992,-2.2992,-2.297,-2.297,-2.2992,-2.3105,-2.2881,-2.2595,-2.3061,-2.2971,-2.2822,-2.2889,-2.3652,-2.4467,-2.4583,-2.5264,-2.6276,-2.6602,-2.6817,-2.6873,-2.6846,-2.6794,-2.6794,-2.6794,-2.6794,-2.6794,-2.6794,-2.6794,-2.6794,-2.6794,-2.6794,-2.6794,-2.6794,-2.6794,-2.6794,-2.6794,-2.6794,-2.675,-2.6721,-2.6518,-2.6428,-2.6492,-2.6527,-2.615,-2.5761,-2.5889,-2.597,-2.5563,-2.5135,-2.4613,-2.4191,-2.4096,-2.3906,-2.3323,-2.3161,-2.3445,-2.3283,-2.3039,-2.2849,-2.2671,-2.2551,-2.2442,-2.2077,-2.1914,-2.1955,-2.2049,-2.19,-2.183,-2.1776,-2.1678,-2.1612,-2.1831,-2.2236,-2.2514,-2.2729,-2.282,-3.4316,-3.4209,-3.4216,-3.4185,-3.4142,-3.4049,-3.3915,-3.377,-3.3447,-3.2552,-3.1315,-2.9911,-2.89,-2.8114,-2.7248,-2.6928,-2.6928,-2.6843,-2.6826,-2.6687,-2.6461,-2.6026,-2.5519,-2.502,-2.4578,-2.4219,-2.3867,-2.3595,-2.3595,-2.3595,-2.3545,-2.3538,-2.3538,-2.3545,-2.3458,-2.3326,-2.3201,-2.3082,-2.297,-2.2888,-2.291,-2.291,-2.291,-2.2865,-2.2843,-2.2646,-2.2457,-2.2686,-2.2754,-2.2649,-2.2818,-2.3475,-2.4101,-2.4694,-2.5216,-2.5923,-2.6486,-2.6765,-2.6794,-2.6794,-2.6794,-2.6794,-2.6794,-2.6794,-2.6794,-2.6794,-2.6794,-2.6794,-2.6794,-2.6794,-2.6794,-2.6794,-2.6794,-2.6794,-2.6794,-2.6779,-2.6649,-2.6562,-2.6253,-2.6006,-2.6049,-2.5992,-2.5449,-2.4969,-2.4807,-2.4848,-2.4542,-2.4218,-2.3946,-2.3594,-2.3418,-2.3188,-2.2822,-2.2808,-2.2876,-2.2564,-2.2293,-2.2185,-2.202,-2.1898,-2.1697,-2.1426,-2.1385,-2.1589,-2.1616,-2.144,-2.144,-2.1534,-2.1604,-2.163,-2.1935,-2.2263,-2.2532,-2.2752,-2.2843,-3.4316,-3.4228,-3.416,-3.4111,-3.3981,-3.4005,-3.3784,-3.3429,-3.315,-3.219,-3.0626,-2.9141,-2.8305,-2.7827,-2.7233,-2.7385,-2.757,-2.7163,-2.6991,-2.7119,-2.6477,-2.5889,-2.5326,-2.4815,-2.4328,-2.4183,-2.3852,-2.3595,-2.3595,-2.3588,-2.3538,-2.3487,-2.3429,-2.3385,-2.3282,-2.3179,-2.3105,-2.3097,-2.297,-2.291,-2.2888,-2.2888,-2.2888,-2.282,-2.2638,-2.2463,-2.2333,-2.248,-2.2549,-2.242,-2.2617,-2.3403,-2.4495,-2.4492,-2.5167,-2.6431,-2.6675,-2.6806,-2.6794,-2.6794,-2.6794,-2.6794,-2.6794,-2.6794,-2.6794,-2.6794,-2.6794,-2.6794,-2.6794,-2.6794,-2.6794,-2.6794,-2.6794,-2.6794,-2.6794,-2.6634,-2.6489,-2.63,-2.5992,-2.5419,-2.5319,-2.52,-2.462,-2.4118,-2.3796,-2.3606,-2.3412,-2.3267,-2.3174,-2.3052,-2.2863,-2.2537,-2.2253,-2.2239,-2.2185,-2.1805,-2.1548,-2.1453,-2.148,-2.1494,-2.148,-2.1412,-2.1385,-2.1385,-2.1385,-2.1385,-2.1385,-2.1399,-2.1554,-2.1722,-2.1983,-2.2263,-2.2532,-2.2737,-2.2843,-3.4316,-3.4148,-3.3444,-3.3066,-3.3036,-3.3496,-3.3472,-3.3049,-3.2096,-3.0727,-2.9317,-2.8716,-2.8389,-2.8011,-2.8078,-2.8197,-2.8382,-2.8324,-2.8132,-2.7061,-2.6528,-2.567,-2.5012,-2.4508,-2.412,-2.3852,-2.3616,-2.3573,-2.3595,-2.3545,-2.3458,-2.3385,-2.3304,-2.3135,-2.3149,-2.3105,-2.3097,-2.2978,-2.291,-2.2888,-2.2888,-2.2888,-2.2888,-2.288,-2.2669,-2.244,-2.2254,-2.2472,-2.2434,-2.2422,-2.2708,-2.3614,-2.4476,-2.4517,-2.5467,-2.6242,-2.6457,-2.6779,-2.6794,-2.6794,-2.6794,-2.6794,-2.6794,-2.6794,-2.6794,-2.6794,-2.6794,-2.6794,-2.6794,-2.6794,-2.6794,-2.6794,-2.6794,-2.6794,-2.6707,-2.6457,-2.6239,-2.6021,-2.5662,-2.4901,-2.4499,-2.417,-2.3641,-2.3225,-2.2892,-2.2832,-2.2709,-2.2671,-2.2632,-2.2524,-2.2386,-2.1955,-2.1683,-2.1643,-2.1521,-2.144,-2.1399,-2.1426,-2.1426,-2.1412,-2.1399,-2.1385,-2.1385,-2.1385,-2.1385,-2.1385,-2.1385,-2.1434,-2.165,-2.1864,-2.2077,-2.2356,-2.2669,-2.282,-2.2865,-3.3738,-3.3305,-3.2613,-3.2137,-3.1947,-3.2351,-3.2498,-3.223,-3.1201,-2.9868,-2.8835,-2.8897,-2.8535,-2.8095,-2.8044,-2.8722,-2.8856,-2.8456,-2.7979,-2.6899,-2.6607,-2.5624,-2.4699,-2.4151,-2.3888,-2.3653,-2.3581,-2.3581,-2.3545,-2.3473,-2.3378,-2.3245,-2.3227,-2.3204,-2.3131,-2.3015,-2.2992,-2.291,-2.2888,-2.2888,-2.2888,-2.2888,-2.2888,-2.2797,-2.2601,-2.2333,-2.2402,-2.244,-2.2463,-2.2628,-2.3094,-2.3833,-2.4326,-2.4892,-2.5705,-2.6112,-2.646,-2.6779,-2.6794,-2.6794,-2.6794,-2.6794,-2.6794,-2.6794,-2.6794,-2.6794,-2.6794,-2.6794,-2.6794,-2.6765,-2.675,-2.675,-2.6721,-2.6707,-2.6576,-2.6326,-2.5865,-2.5633,-2.505,-2.4269,-2.3698,-2.3252,-2.2799,-2.235,-2.1999,-2.2018,-2.2036,-2.2077,-2.2117,-2.2061,-2.1979,-2.1681,-2.1426,-2.1453,-2.1467,-2.1412,-2.1385,-2.1385,-2.1385,-2.1385,-2.1385,-2.1385,-2.1385,-2.1385,-2.1385,-2.1385,-2.1385,-2.1482,-2.165,-2.1888,-2.2123,-2.2426,-2.2806,-2.2888,-2.2888,-3.2631,-3.1849,-3.1752,-3.1348,-3.0835,-3.0714,-3.0805,-3.1021,-3.0523,-2.9827,-2.9108,-2.8828,-2.8535,-2.7874,-2.7266,-2.7876,-2.8753,-2.8167,-2.7431,-2.6836,-2.635,-2.5288,-2.4497,-2.3958,-2.3928,-2.3744,-2.3679,-2.3784,-2.3584,-2.3378,-2.3223,-2.3207,-2.3385,-2.3252,-2.3026,-2.291,-2.291,-2.2888,-2.2888,-2.2888,-2.2888,-2.282,-2.2775,-2.2578,-2.224,-2.2325,-2.2362,-2.2334,-2.2427,-2.2655,-2.3047,-2.3809,-2.4404,-2.4839,-2.5705,-2.6373,-2.6736,-2.6779,-2.6794,-2.6794,-2.6794,-2.6794,-2.6794,-2.6794,-2.6794,-2.6794,-2.6794,-2.6794,-2.6779,-2.6721,-2.6704,-2.6646,-2.6588,-2.6518,-2.646,-2.6042,-2.5535,-2.4997,-2.4336,-2.3707,-2.3215,-2.2738,-2.2298,-2.183,-2.1602,-2.1616,-2.1697,-2.167,-2.1697,-2.1656,-2.1589,-2.1562,-2.1399,-2.1399,-2.1385,-2.1385,-2.1385,-2.1385,-2.1385,-2.1385,-2.1385,-2.1385,-2.1385,-2.1385,-2.1385,-2.1385,-2.1385,-2.1482,-2.164,-2.1864,-2.2147,-2.244,-2.2797,-2.2865,-2.2888,-3.2135,-3.1704,-3.0766,-3.0179,-2.9732,-2.8762,-2.864,-2.9106,-2.887,-2.8357,-2.7674,-2.8013,-2.8281,-2.8604,-2.8451,-2.8942,-2.9019,-2.8732,-2.7578,-2.6818,-2.6141,-2.5056,-2.4402,-2.4079,-2.4201,-2.4253,-2.4201,-2.4119,-2.4052,-2.3658,-2.3178,-2.3043,-2.331,-2.3142,-2.3033,-2.2888,-2.2888,-2.2843,-2.282,-2.282,-2.2715,-2.2555,-2.2463,-2.2194,-2.203,-2.223,-2.2606,-2.2592,-2.2798,-2.3383,-2.3572,-2.4109,-2.4747,-2.527,-2.5981,-2.662,-2.6779,-2.6794,-2.6794,-2.6779,-2.6736,-2.6692,-2.6692,-2.6779,-2.6794,-2.6692,-2.6678,-2.6663,-2.6518,-2.6358,-2.617,-2.6083,-2.5941,-2.5771,-2.5658,-2.5275,-2.4749,-2.4253,-2.3612,-2.3012,-2.25,-2.2246,-2.1798,-2.1681,-2.148,-2.1412,-2.1385,-2.1385,-2.1385,-2.1385,-2.1385,-2.1385,-2.1385,-2.1385,-2.1385,-2.1385,-2.1385,-2.1385,-2.1385,-2.1385,-2.1385,-2.1385,-2.1385,-2.1385,-2.1385,-2.1385,-2.1385,-2.1482,-2.1592,-2.1912,-2.2217,-2.2486,-2.2729,-2.282,-2.2888,-3.1187,-3.0616,-2.9826,-2.9264,-2.8709,-2.7764,-2.7575,-2.7939,-2.8048,-2.781,-2.7486,-2.7707,-2.8043,-2.8383,-2.8433,-2.8652,-2.8937,-2.8498,-2.7459,-2.614,-2.6004,-2.4985,-2.4383,-2.4231,-2.4485,-2.4559,-2.4528,-2.4428,-2.4412,-2.4197,-2.3769,-2.3708,-2.3467,-2.3302,-2.3258,-2.3076,-2.2752,-2.2646,-2.2601,-2.2638,-2.244,-2.2147,-2.1945,-2.1851,-2.1756,-2.2138,-2.2888,-2.2862,-2.3112,-2.3739,-2.39,-2.4234,-2.4936,-2.5647,-2.6228,-2.6779,-2.6794,-2.6794,-2.675,-2.646,-2.6431,-2.6329,-2.6239,-2.5981,-2.6083,-2.6068,-2.6199,-2.6271,-2.6054,-2.5836,-2.5618,-2.54,-2.5108,-2.4842,-2.4581,-2.4335,-2.3897,-2.3463,-2.2884,-2.2235,-2.1896,-2.1657,-2.1485,-2.141,-2.1385,-2.1385,-2.1385,-2.1385,-2.1385,-2.1385,-2.1385,-2.1385,-2.1385,-2.1385,-2.1385,-2.1385,-2.1385,-2.1385,-2.1385,-2.1385,-2.1385,-2.1385,-2.1385,-2.1385,-2.1385,-2.1385,-2.1385,-2.1423,-2.1544,-2.1912,-2.224,-2.2486,-2.2706,-2.2843,-2.2888,-2.9986,-2.9065,-2.8945,-2.8536,-2.789,-2.7467,-2.7332,-2.7352,-2.7774,-2.7981,-2.7879,-2.7793,-2.774,-2.7925,-2.7841,-2.7858,-2.7967,-2.775,-2.6833,-2.5227,-2.5597,-2.4946,-2.4197,-2.4246,-2.4545,-2.4499,-2.4415,-2.4351,-2.467,-2.4343,-2.4018,-2.4602,-2.394,-2.3499,-2.3255,-2.2936,-2.2523,-2.2147,-2.2016,-2.1945,-2.1959,-2.1684,-2.1334,-2.1261,-2.1184,-2.1311,-2.2418,-2.2804,-2.2776,-2.3502,-2.3994,-2.4235,-2.5168,-2.605,-2.6591,-2.6765,-2.6779,-2.6649,-2.6489,-2.6195,-2.5865,-2.5604,-2.5241,-2.5183,-2.5342,-2.5506,-2.5691,-2.5691,-2.5448,-2.5094,-2.4823,-2.4615,-2.4379,-2.4013,-2.3678,-2.3386,-2.3029,-2.2688,-2.2352,-2.1828,-2.1664,-2.1458,-2.1434,-2.1385,-2.1385,-2.1385,-2.1385,-2.1385,-2.1385,-2.1385,-2.1385,-2.1385,-2.1385,-2.1385,-2.1385,-2.1385,-2.1385,-2.1385,-2.1385,-2.1385,-2.1385,-2.1385,-2.1385,-2.1385,-2.1385,-2.1385,-2.141,-2.1471,-2.1664,-2.2006,-2.2287,-2.2463,-2.2661,-2.2843,-2.2888,-2.9434,-2.8964,-2.8399,-2.7926,-2.7617,-2.7374,-2.7315,-2.73,-2.7244,-2.7298,-2.7247,-2.7215,-2.7368,-2.7638,-2.73,-2.7334,-2.7548,-2.6939,-2.597,-2.5245,-2.5165,-2.4813,-2.3914,-2.4306,-2.459,-2.4537,-2.4363,-2.4214,-2.4052,-2.3743,-2.3487,-2.3528,-2.3288,-2.3165,-2.2877,-2.2516,-2.2198,-2.1612,-2.1348,-2.1334,-2.1407,-2.1115,-2.0771,-2.0746,-2.0725,-2.1235,-2.2079,-2.2403,-2.2935,-2.3656,-2.3829,-2.4501,-2.5535,-2.6329,-2.6707,-2.6779,-2.6736,-2.6489,-2.6166,-2.5803,-2.5444,-2.5139,-2.4853,-2.4839,-2.4897,-2.4984,-2.5013,-2.4955,-2.4771,-2.4341,-2.4038,-2.3861,-2.3636,-2.3197,-2.2828,-2.252,-2.2227,-2.2004,-2.1794,-2.1629,-2.1461,-2.1423,-2.1385,-2.1385,-2.1385,-2.1385,-2.1385,-2.1385,-2.1385,-2.1385,-2.1385,-2.1385,-2.1385,-2.1385,-2.1385,-2.1385,-2.1385,-2.1385,-2.1385,-2.1385,-2.1385,-2.1385,-2.1385,-2.1385,-2.1385,-2.1385,-2.1458,-2.1616,-2.1855,-2.2123,-2.2356,-2.2555,-2.2706,-2.2888,-2.2888,-2.9155,-2.8682,-2.801,-2.763,-2.7452,-2.7345,-2.7315,-2.7266,-2.7121,-2.704,-2.6975,-2.6893,-2.7013,-2.7418,-2.7164,-2.6944,-2.7175,-2.6461,-2.575,-2.5144,-2.4642,-2.4477,-2.435,-2.441,-2.4768,-2.4834,-2.5023,-2.4794,-2.396,-2.395,-2.4003,-2.3893,-2.3583,-2.2825,-2.2524,-2.2364,-2.1811,-2.1066,-2.0736,-2.0698,-2.082,-2.0446,-2.0245,-2.0258,-2.0437,-2.0979,-2.1602,-2.2033,-2.2623,-2.3356,-2.3735,-2.4301,-2.5164,-2.5894,-2.6431,-2.6602,-2.6515,-2.617,-2.5759,-2.5309,-2.4892,-2.4544,-2.4056,-2.3858,-2.3809,-2.3911,-2.4143,-2.4099,-2.3867,-2.3493,-2.331,-2.3139,-2.2838,-2.2442,-2.2267,-2.2055,-2.1846,-2.1663,-2.1564,-2.1512,-2.141,-2.141,-2.1385,-2.1385,-2.1385,-2.1385,-2.1385,-2.1385,-2.1385,-2.1385,-2.1385,-2.1385,-2.1385,-2.1385,-2.1385,-2.1385,-2.1385,-2.1385,-2.1385,-2.1385,-2.1385,-2.1385,-2.1385,-2.1385,-2.1385,-2.1385,-2.1482,-2.1688,-2.1902,-2.2123,-2.2379,-2.2623,-2.276,-2.2888,-2.2888,-2.9049,-2.841,-2.7771,-2.745,-2.7392,-2.7346,-2.7315,-2.7283,-2.7152,-2.7055,-2.6975,-2.6792,-2.6725,-2.6945,-2.7197,-2.6943,-2.6526,-2.594,-2.5424,-2.4959,-2.4539,-2.4242,-2.4275,-2.45,-2.4706,-2.5065,-2.533,-2.5174,-2.4739,-2.4546,-2.4505,-2.5048,-2.423,-2.3003,-2.2895,-2.2492,-2.1765,-2.1001,-2.0553,-2.031,-2.008,-1.9798,-1.985,-1.985,-1.99,-2.0411,-2.1121,-2.1642,-2.2088,-2.2883,-2.3571,-2.4266,-2.4778,-2.5429,-2.5807,-2.6079,-2.5879,-2.5604,-2.5241,-2.4583,-2.4161,-2.3688,-2.3157,-2.296,-2.2975,-2.3128,-2.336,-2.3331,-2.3091,-2.2898,-2.2732,-2.252,-2.2198,-2.1902,-2.1783,-2.1712,-2.1544,-2.1423,-2.1423,-2.1385,-2.1385,-2.1385,-2.1385,-2.1385,-2.1385,-2.1385,-2.1385,-2.1385,-2.1385,-2.1375,-2.1375,-2.1375,-2.1375,-2.1375,-2.1385,-2.1385,-2.1385,-2.1385,-2.1385,-2.1385,-2.1385,-2.1385,-2.1385,-2.1385,-2.1385,-2.1385,-2.153,-2.1736,-2.1935,-2.217,-2.2486,-2.2752,-2.2783,-2.2888,-2.2888,-2.9027,-2.8363,-2.7774,-2.745,-2.7376,-2.7313,-2.7315,-2.7283,-2.7088,-2.7007,-2.6958,-2.6792,-2.6708,-2.6691,-2.6433,-2.6241,-2.6147,-2.5525,-2.4957,-2.4477,-2.4137,-2.3899,-2.4022,-2.4483,-2.4405,-2.4664,-2.4893,-2.4572,-2.4636,-2.4359,-2.3928,-2.3789,-2.3609,-2.2856,-2.2452,-2.2085,-2.1758,-2.0937,-2.0563,-2.0408,-1.9977,-1.9798,-1.9798,-1.9798,-1.9837,-2.0254,-2.0675,-2.0866,-2.1485,-2.2324,-2.3259,-2.3969,-2.451,-2.4882,-2.5197,-2.5371,-2.5197,-2.4863,-2.4428,-2.4074,-2.3659,-2.3258,-2.2902,-2.2902,-2.2917,-2.2931,-2.3076,-2.3053,-2.2863,-2.2666,-2.25,-2.2338,-2.2067,-2.1722,-2.1506,-2.1506,-2.1434,-2.141,-2.1385,-2.1385,-2.1385,-2.1385,-2.1385,-2.1385,-2.1385,-2.1385,-2.1385,-2.1385,-2.1385,-2.1375,-2.1375,-2.1375,-2.1375,-2.1375,-2.1385,-2.1385,-2.1385,-2.1385,-2.1385,-2.1385,-2.1385,-2.1385,-2.1385,-2.1385,-2.1385,-2.1385,-2.1554,-2.1759,-2.1983,-2.224,-2.2615,-2.2865,-2.2888,-2.2888,-2.2888]},{"header":{"parameterUnit":"m.s-1","parameterCategory":1,"la1":31.0,"la2":29.5877,"lo1":-88.7671,"lo2":-86.6584,"dx":0.0162,"dy":0.0185,"nx":115,"ny":88,"refTime":"2023-01-10T06:00:00:Z","depth":0,"parameterNumber":3,"parameterNumberName":"V-component_of_WINDS"},"data":[0.0,0.0,0.0,0.0,0.0,0.0,0.0,0.0,0.0,0.0,0.0,0.0,0.0,0.0,0.0,0.0,0.0,0.0,0.0,0.0,0.0,0.0,0.0,0.0,0.0,0.0,0.0,0.0,0.0,0.0,0.0,0.0,0.0,0.0,0.0,0.0,0.0,0.0,0.0,0.0,0.0,0.0,0.0,0.0,0.0,0.0,0.0,0.0,0.0,0.0,0.0,0.0,0.0,0.0,0.0,0.0,0.0,0.0,0.0,0.0,0.0,0.0,0.0,0.0,0.0,0.0,0.0,0.0,0.0,0.0,0.0,0.0,0.0,0.0,0.0,0.0,0.0,0.0,0.0,0.0,0.0,0.0,0.0,0.0,0.0,0.0,0.0,0.0,0.0,0.0,0.0,0.0,0.0,0.0,0.0,0.0,0.0,0.0,0.0,0.0,0.0,0.0,0.0,0.0,0.0,0.0,0.0,0.0,0.0,0.0,0.0,0.0,0.0,0.0,0.0,0.0,0.0,0.0,0.0,0.0,0.0,0.0,0.0,0.0,0.0,0.0,0.0,0.0,0.0,0.0,0.0,0.0,0.0,0.0,0.0,0.0,0.0,0.0,0.0,0.0,0.0,0.0,0.0,0.0,0.0,0.0,0.0,0.0,0.0,0.0,0.0,0.0,0.0,0.0,0.0,0.0,0.0,0.0,0.0,0.0,0.0,0.0,0.0,0.0,0.0,0.0,0.0,0.0,0.0,0.0,0.0,0.0,0.0,0.0,0.0,0.0,0.0,0.0,0.0,0.0,0.0,0.0,0.0,0.0,0.0,0.0,0.0,0.0,0.0,0.0,0.0,0.0,0.0,0.0,0.0,0.0,0.0,0.0,0.0,0.0,0.0,0.0,0.0,0.0,0.0,0.0,0.0,0.0,0.0,0.0,0.0,0.0,0.0,0.0,0.0,0.0,0.0,0.0,0.0,0.0,0.0,0.0,0.0,0.0,0.0,0.0,0.0,0.0,0.0,0.0,0.0,0.0,0.0,0.0,0.0,0.0,0.0,0.0,0.0,0.0,0.0,0.0,0.0,0.0,0.0,0.0,0.0,0.0,0.0,0.0,0.0,0.0,0.0,0.0,0.0,0.0,0.0,0.0,0.0,0.0,0.0,0.0,0.0,0.0,0.0,0.0,0.0,0.0,0.0,0.0,0.0,0.0,0.0,0.0,0.0,0.0,0.0,0.0,0.0,0.0,0.0,0.0,0.0,0.0,0.0,0.0,0.0,0.0,0.0,0.0,0.0,0.0,0.0,0.0,0.0,0.0,0.0,0.0,0.0,0.0,0.0,0.0,0.0,0.0,0.0,0.0,0.0,0.0,0.0,0.0,0.0,0.0,0.0,0.0,0.0,0.0,0.0,0.0,0.0,0.0,0.0,0.0,0.0,0.0,0.0,0.0,0.0,0.0,0.0,0.0,0.0,0.0,0.0,0.0,0.0,0.0,0.0,0.0,0.0,0.0,0.0,0.0,0.0,0.0,0.0,0.0,0.0,0.0,0.0,0.0,0.0,0.0,0.0,0.0,0.0,0.0,0.0,0.0,0.0,0.0,0.0,0.0,0.0,0.0,0.0,0.0,0.0,0.0,0.0,0.0,0.0,0.0,0.0,0.0,0.0,0.0,0.0,0.0,0.0,0.0,0.0,0.0,0.0,0.0,0.0,0.0,0.0,0.0,0.0,0.0,0.0,0.0,0.0,0.0,0.0,0.0,0.0,0.0,0.0,0.0,0.0,0.0,0.0,0.0,0.0,0.0,0.0,0.0,0.0,0.0,0.0,0.0,0.0,0.0,0.0,0.0,0.0,0.0,0.0,0.0,0.0,0.0,0.0,0.0,0.0,0.0,0.0,0.0,0.0,0.0,0.0,0.0,0.0,0.0,0.0,0.0,0.0,0.0,0.0,0.0,0.0,0.0,0.0,0.0,0.0,0.0,0.0,0.0,0.0,0.0,0.0,0.0,0.0,0.0,0.0,0.0,0.0,0.0,0.0,0.0,0.0,0.0,0.0,0.0,0.0,0.0,0.0,0.0,0.0,0.0,0.0,0.0,0.0,0.0,0.0,0.0,0.0,0.0,0.0,0.0,0.0,0.0,0.0,0.0,0.0,0.0,0.0,0.0,0.0,0.0,0.0,0.0,0.0,0.0,0.0,0.0,0.0,0.0,0.0,0.0,0.0,0.0,0.0,0.0,0.0,0.0,0.0,0.0,0.0,0.0,0.0,0.0,0.0,0.0,0.0,0.0,0.0,0.0,0.0,0.0,0.0,0.0,0.0,0.0,0.0,0.0,0.0,0.0,0.0,0.0,0.0,0.0,0.0,0.0,0.0,0.0,0.0,0.0,0.0,0.0,0.0,0.0,0.0,0.0,0.0,0.0,0.0,0.0,0.0,0.0,0.0,0.0,0.0,0.0,0.0,0.0,0.0,0.0,0.0,0.0,0.0,0.0,0.0,0.0,0.0,0.0,0.0,0.0,0.0,0.0,0.0,0.0,0.0,0.0,0.0,0.0,0.0,0.0,0.0,0.0,0.0,0.0,0.0,0.0,0.0,0.0,0.0,0.0,0.0,0.0,0.0,0.0,0.0,0.0,0.0,0.0,0.0,0.0,0.0,0.0,0.0,0.0,0.0,0.0,0.0,0.0,0.0,0.0,0.0,0.0,0.0,0.0,0.0,0.0,0.0,0.0,0.0,0.0,0.0,0.0,0.0,0.0,0.0,0.0,0.0,0.0,0.0,0.0,0.0,0.0,0.0,0.0,0.0,0.0,0.0,0.0,0.0,0.0,0.0,0.0,0.0,0.0,0.0,0.0,0.0,0.0,0.0,0.0,0.0,0.0,0.0,0.0,0.0,0.0,0.0,0.0,0.0,0.0,0.0,0.0,0.0,0.0,0.0,0.0,0.0,0.0,0.0,0.0,0.0,0.0,0.0,0.0,0.0,0.0,0.0,0.0,0.0,0.0,0.0,0.0,0.0,0.0,0.0,0.0,0.0,0.0,0.0,0.0,0.0,0.0,0.0,0.0,0.0,0.0,0.0,0.0,0.0,0.0,0.0,0.0,0.0,0.0,0.0,0.0,0.0,0.0,0.0,0.0,0.0,0.0,0.0,0.0,0.0,0.0,0.0,0.0,0.0,0.0,0.0,0.0,0.0,0.0,0.0,0.0,0.0,0.0,0.0,0.0,0.0,0.0,0.0,0.0,0.0,0.0,0.0,0.0,0.0,0.0,0.0,0.0,0.0,0.0,0.0,0.0,0.0,0.0,0.0,0.0,0.0,0.0,0.0,0.0,0.0,0.0,0.0,0.0,0.0,0.0,0.0,0.0,0.0,0.0,0.0,0.0,0.0,0.0,0.0,0.0,0.0,0.0,0.0,0.0,0.0,0.0,0.0,0.0,0.0,0.0,0.0,0.0,0.0,0.0,0.0,0.0,0.0,0.0,0.0,0.0,0.0,0.0,0.0,0.0,0.0,0.0,0.0,0.0,0.0,0.0,0.0,0.0,0.0,0.0,0.0,0.0,0.0,0.0,0.0,0.0,0.0,0.0,0.0,0.0,0.0,0.0,0.0,0.0,0.0,0.0,0.0,0.0,0.0,0.0,0.0,0.0,0.0,0.0,0.0,0.0,0.0,0.0,0.0,0.0,0.0,0.0,0.0,0.0,0.0,0.0,0.0,0.0,0.0,0.0,0.0,0.0,0.0,0.0,0.0,0.0,0.0,0.0,0.0,0.0,0.0,0.0,0.0,0.0,0.0,0.0,0.0,0.0,0.0,0.0,0.0,0.0,0.0,0.0,0.0,0.0,0.0,0.0,0.0,0.0,0.0,0.0,0.0,0.0,0.0,0.0,0.0,0.0,0.0,0.0,0.0,0.0,0.0,0.0,0.0,0.0,0.0,0.0,0.0,0.0,0.0,0.0,0.0,0.0,0.0,0.0,0.0,0.0,0.0,0.0,0.0,0.0,0.0,0.0,0.0,0.0,0.0,0.0,0.0,0.0,0.0,0.0,0.0,0.0,0.0,0.0,0.0,0.0,0.0,0.0,0.0,0.0,0.0,0.0,0.0,0.0,0.0,0.0,0.0,0.0,0.0,0.0,0.0,0.0,0.0,0.0,0.0,0.0,0.0,0.0,0.0,0.0,0.0,0.0,0.0,0.0,0.0,0.0,0.0,0.0,0.0,0.0,0.0,0.0,0.0,0.0,0.0,0.0,0.0,0.0,-0.2373,0.0,0.0,0.0,-0.1631,0.0,0.0,0.0,0.0,0.0,0.0,0.0,0.0,0.0,0.0,0.0,0.0,0.0,0.0,0.0,0.0,0.0,0.0,0.0,0.0,0.0,0.0,0.0,0.0,0.0,0.0,0.0,0.0,0.0,0.0,0.0,0.0,0.0,0.0,0.0,0.0,0.0,0.0,0.0,0.0,0.0,0.0,0.0,0.0,0.0,0.0,0.0,0.0,0.0,0.0,0.0,0.0,0.0,0.0,0.0,0.0,0.0,0.0,0.0,0.0,0.0,0.0,0.0,0.0,0.0,0.0,0.0,0.0,0.0,0.0,0.0,0.0,0.0,0.0,0.0,0.0,0.0,0.0,0.0,0.0,0.0,0.0,0.0,0.0,0.0,0.0,0.0,0.0,0.0,0.0,0.0,0.0,0.0,0.0,0.0,0.0,0.0,0.0,0.0,0.0,0.0,0.0,0.0,0.0,0.0,0.0,0.0,0.0,0.0,0.0,-0.2266,-0.1502,-0.1986,-0.2013,-0.1479,0.0,0.0,0.0,0.0,0.0,0.0,0.0,0.0,0.0,0.0,0.0,0.0,0.0,0.0,0.0,0.0,0.0,0.0,0.0,0.0,0.0,0.0,0.0,0.0,0.0,0.0,0.0,0.0,0.0,0.0,0.0,0.0,0.0,0.0,0.0,0.0,0.0,0.0,0.0,0.0,0.0,0.0,0.0,0.0,0.0,0.0,0.0,0.0,0.0,0.0,0.0,0.0,0.0,0.0,0.0,0.0,0.0,0.0,0.0,0.0,0.0,0.0,0.0,0.0,0.0,0.0,0.0,0.0,0.0,0.0,0.0,0.0,0.0,0.0,0.0,0.0,0.0,0.0,0.0,0.0,0.0,0.0,0.0,0.0,0.0,0.0,0.0,0.0,0.0,0.0,0.0,0.0,0.0,0.0,0.0,0.0,0.0,0.0,0.0,0.0,0.0,0.0,0.0,0.0,0.0,0.0,0.0,0.0,0.0,0.0,0.0,0.0,-0.2142,-0.2172,-0.1644,0.0,0.0,0.0,0.0,0.0,0.0,0.0,0.0,0.0,0.0,0.0,0.0,0.0,0.0,0.0,0.0,0.0,0.0,0.0,0.0,0.0,0.0,0.0,0.0,0.0,0.0,0.0,0.0,0.0,0.0,0.0,0.0,0.0,0.0,0.0,0.0,0.0,0.0,0.0,0.0,0.0,0.0,0.0,0.0,0.0,0.0,0.0,0.0,0.0,0.0,0.0,0.0,0.0,0.0,0.0,0.0,0.0,0.0,0.0,0.0,0.0,0.0,0.0,0.0,0.0,0.0,0.0,0.0,0.0,0.0,0.0,0.0,0.0,0.0,0.0,0.0,0.0,0.0,0.0,0.0,0.0,0.0,0.0,0.0,0.0,0.0,0.0,0.0,0.0,0.0,0.0,0.0,0.0,0.0,0.0,0.0,0.0,0.0,0.0,0.0,0.0,0.0,0.0,0.0,0.0,0.0,0.0,0.0,0.0,0.0,-0.2059,-0.2139,-0.2141,0.0,-0.2222,0.0,0.0,0.0,0.0,0.0,0.0,0.0,0.0,0.0,0.0,0.0,0.0,0.0,0.0,0.0,0.0,0.0,0.0,0.0,0.0,0.0,0.0,0.0,0.0,0.0,0.0,0.0,0.0,0.0,0.0,0.0,0.0,0.0,0.0,0.0,0.0,0.0,0.0,0.0,0.0,0.0,0.0,0.0,0.0,0.0,0.0,0.0,0.0,0.0,0.0,0.0,0.0,0.0,0.0,0.0,0.0,0.0,0.0,0.0,0.0,0.0,0.0,0.0,0.0,0.0,0.0,0.0,0.0,0.0,0.0,0.0,0.0,0.0,0.0,0.0,0.0,0.0,0.0,0.0,0.0,0.0,0.0,0.0,0.0,0.0,0.0,0.0,0.0,0.0,0.0,0.0,0.0,0.0,0.0,0.0,0.0,0.0,0.0,0.0,0.0,0.0,0.0,0.0,0.0,0.0,0.0,0.0,0.0,0.0,0.0,-0.2603,-0.2373,-0.2197,-0.2112,0.0,0.0,0.0,0.0,0.0,0.0,0.0,0.0,0.0,0.0,0.0,0.0,0.0,0.0,0.0,0.0,0.0,0.0,0.0,0.0,0.0,0.0,0.0,0.0,0.0,0.0,0.0,0.0,0.0,0.0,0.0,0.0,0.0,0.0,0.0,0.0,0.0,0.0,0.0,0.0,0.0,0.0,0.0,0.0,0.0,0.0,0.0,0.0,0.0,0.0,0.0,0.0,0.0,0.0,0.0,0.0,0.0,0.0,0.0,0.0,0.0,0.0,0.0,0.0,0.0,0.0,0.0,0.0,0.0,0.0,0.0,0.0,0.0,0.0,0.0,0.0,0.0,0.0,0.0,0.0,0.0,0.0,0.0,0.0,0.0,0.0,0.0,0.0,0.0,0.0,0.0,0.0,0.0,0.0,0.0,0.0,0.0,0.0,0.0,0.0,0.0,0.0,0.0,0.0,0.0,0.0,0.0,0.0,0.0,0.0,-0.3341,-0.318,-0.287,-0.2439,-0.2154,-0.2026,0.0,0.0,0.0,0.0,0.0,0.0,0.0,0.0,0.0,0.0,0.0,0.0,0.0,0.0,0.0,0.0,0.0,0.0,0.0,0.0,0.0,0.0,0.0,0.0,0.0,0.0,0.0,0.0,0.0,0.0,0.0,0.0,0.0,0.0,0.0,0.0,0.0,0.0,0.0,0.0,0.0,0.0,0.0,0.0,0.0,0.0,0.0,0.0,0.0,0.0,0.0,0.0,0.0,0.0,0.0,0.0,0.0,0.0,0.0,0.0,0.0,0.0,0.0,0.0,0.0,0.0,0.0,0.0,0.0,0.0,0.0,0.0,0.0,0.0,0.0,0.0,0.0,0.0,0.0,0.0,0.0,0.0,0.0,0.0,0.0,0.0,0.0,0.0,0.0,0.0,0.0,0.0,0.0,0.0,0.0,0.0,0.0,0.0,0.0,0.0,0.0,0.0,0.0,0.0,0.0,0.0,0.0,0.0,-0.4511,-0.3981,-0.3697,-0.3744,-0.292,-0.2361,0.0,0.0,0.0,0.0,0.0,0.0,0.0,0.0,0.0,0.0,0.0,0.0,0.0,0.0,0.0,0.0,0.0,0.0,0.0,0.0,0.0,0.0,0.0,0.0,0.0,0.0,0.0,0.0,0.0,0.0,0.0,0.0,0.0,0.0,0.0,0.0,0.0,0.0,0.0,0.0,0.0,0.0,0.0,0.0,0.0,0.0,0.0,0.0,0.0,0.0,0.0,0.0,0.0,0.0,0.0,0.0,0.0,0.0,0.0,0.0,0.0,0.0,0.0,0.0,0.0,0.0,0.0,0.0,0.0,0.0,0.0,0.0,0.0,0.0,0.0,0.0,0.0,0.0,0.0,0.0,0.0,0.0,0.0,0.0,0.0,0.0,0.0,0.0,0.0,0.0,0.0,0.0,0.0,0.0,0.0,0.0,0.0,0.0,0.0,0.0,0.0,0.0,0.0,0.0,0.0,0.0,0.0,0.0,0.0,-0.3751,-0.3578,-0.382,-0.4548,-0.329,-0.2713,0.0,0.0,0.0,0.0,0.0,0.0,0.0,0.0,0.0,0.0,0.0,0.0,0.0,0.0,0.0,0.0,0.0,0.0,0.0,0.0,0.0,0.0,0.0,0.0,0.0,0.0,0.0,0.0,0.0,0.0,0.0,0.0,0.0,0.0,0.0,0.0,0.0,0.0,0.0,0.0,0.0,0.0,0.0,0.0,0.0,0.0,0.0,0.0,0.0,0.0,0.0,0.0,0.0,0.0,0.0,0.0,0.0,0.0,0.0,0.0,0.0,0.0,0.0,0.0,0.0,0.0,0.0,0.0,0.0,0.0,0.0,0.0,0.0,0.0,0.0,0.0,0.0,0.0,0.0,0.0,0.0,0.0,0.0,0.0,0.0,0.0,0.0,0.0,0.0,0.0,0.0,0.0,0.0,0.0,0.0,0.0,0.0,0.0,0.0,0.0,0.0,0.0,0.0,0.0,0.0,0.0,0.0,0.0,0.0,-0.402,-0.4338,-0.4684,-0.4969,-0.3726,-0.3014,0.0,0.0,0.0,0.0,0.0,0.0,0.0,0.0,0.0,0.0,0.0,0.0,0.0,0.0,0.0,0.0,0.0,0.0,0.0,0.0,0.0,0.0,0.0,0.0,0.0,0.0,0.0,0.0,0.0,0.0,0.0,0.0,0.0,0.0,0.0,0.0,0.0,0.0,0.0,0.0,0.0,0.0,0.0,0.0,0.0,0.0,0.0,0.0,0.0,0.0,0.0,0.0,0.0,0.0,0.0,0.0,0.0,0.0,0.0,0.0,0.0,0.0,0.0,0.0,0.0,0.0,0.0,0.0,0.0,0.0,0.0,0.0,0.0,0.0,0.0,0.0,0.0,0.0,0.0,0.0,0.0,0.0,0.0,0.0,0.0,0.0,0.0,0.0,0.0,0.0,0.0,0.0,0.0,0.0,0.0,0.0,0.0,0.0,0.0,0.0,0.0,0.0,0.0,0.0,0.0,0.0,0.0,0.0,-0.4145,-0.5505,-0.6414,-0.6208,-0.4966,-0.425,-0.3257,0.0,0.0,0.0,0.0,0.0,0.0,0.0,0.0,0.0,0.0,0.0,0.0,0.0,0.0,0.0,0.0,0.0,0.0,0.0,0.0,0.0,0.0,0.0,0.0,0.0,0.0,0.0,0.0,0.0,0.0,0.0,0.0,0.0,0.0,0.0,0.0,0.0,0.0,0.0,0.0,0.0,0.0,0.0,0.0,0.0,0.0,0.0,0.0,0.0,0.0,0.0,0.0,0.0,0.0,0.0,0.0,0.0,0.0,0.0,0.0,0.0,0.0,0.0,0.0,0.0,0.0,0.0,0.0,0.0,0.0,0.0,0.0,0.0,0.0,0.0,0.0,0.0,0.0,0.0,0.0,0.0,0.0,0.0,0.0,0.0,0.0,0.0,0.0,0.0,0.0,0.0,0.0,0.0,0.0,0.0,0.0,0.0,0.0,0.0,0.0,0.0,0.0,0.0,0.0,0.0,0.0,0.0,0.0,0.0,-0.4402,-0.5639,-0.6127,-0.5709,-0.4543,-0.3909,0.0,0.0,0.0,0.0,0.0,0.0,0.0,0.0,0.0,0.0,0.0,0.0,0.0,0.0,0.0,0.0,0.0,0.0,0.0,0.0,0.0,0.0,0.0,0.0,0.0,0.0,0.0,0.0,0.0,0.0,0.0,0.0,0.0,0.0,0.0,0.0,0.0,0.0,0.0,0.0,0.0,0.0,0.0,0.0,0.0,0.0,0.0,0.0,0.0,0.0,0.0,0.0,0.0,0.0,0.0,0.0,0.0,0.0,0.0,0.0,0.0,0.0,0.0,0.0,0.0,0.0,0.0,0.0,0.0,0.0,0.0,0.0,0.0,0.0,0.0,0.0,0.0,0.0,0.0,0.0,0.0,0.0,0.0,0.0,0.0,0.0,0.0,0.0,0.0,0.0,0.0,0.0,0.0,0.0,0.0,0.0,0.0,0.0,0.0,0.0,0.0,0.0,0.0,0.0,0.0,0.0,0.0,0.0,0.0,-0.5106,-0.6396,-0.6937,-0.6575,-0.5315,-0.4599,-0.4493,0.0,0.0,0.0,0.0,0.0,0.0,0.0,0.0,0.0,0.0,0.0,0.0,0.0,0.0,0.0,0.0,0.0,0.0,0.0,0.0,0.0,0.0,0.0,0.0,0.0,0.0,0.0,0.0,0.0,0.0,0.0,0.0,0.0,0.0,0.0,0.0,0.0,0.0,0.0,0.0,0.0,0.0,0.0,0.0,0.0,0.0,0.0,0.0,0.0,0.0,0.0,0.0,0.0,0.0,0.0,0.0,0.0,0.0,0.0,0.0,0.0,0.0,0.0,0.0,0.0,0.0,0.0,0.0,0.0,0.0,0.0,0.0,0.0,0.0,0.0,0.0,0.0,0.0,0.0,0.0,0.0,0.0,0.0,0.0,0.0,0.0,0.0,0.0,0.0,0.0,0.0,0.0,0.0,0.0,0.0,0.0,0.0,0.0,0.0,0.0,0.0,0.0,0.0,0.0,0.0,0.0,0.0,0.0,-0.713,-0.8428,-0.8546,-0.7374,-0.6413,-0.5303,0.0,0.0,0.0,0.0,0.0,0.0,0.0,0.0,0.0,0.0,0.0,0.0,0.0,0.0,0.0,0.0,0.0,0.0,0.0,0.0,0.0,0.0,0.0,0.0,0.0,0.0,0.0,0.0,0.0,0.0,0.0,0.0,0.0,0.0,0.0,0.0,0.0,0.0,0.0,0.0,0.0,0.0,0.0,0.0,0.0,0.0,0.0,0.0,0.0,0.0,0.0,0.0,0.0,0.0,0.0,0.0,0.0,0.0,0.0,0.0,0.0,0.0,0.0,0.0,0.0,0.0,0.0,0.0,0.0,0.0,0.0,0.0,0.0,0.0,0.0,0.0,0.0,0.0,0.0,0.0,0.0,0.0,0.0,0.0,0.0,0.0,0.0,0.0,0.0,0.0,0.0,0.0,0.0,0.0,0.0,0.0,0.0,0.0,0.0,0.0,0.0,0.0,0.0,0.0,0.0,0.0,0.0,0.0,0.0,-0.864,-0.9893,-0.9688,-0.7952,-0.6745,-0.576,0.0,0.0,0.0,0.0,0.0,0.0,0.0,0.0,0.0,0.0,0.0,0.0,0.0,0.0,0.0,0.0,0.0,0.0,0.0,0.0,0.0,0.0,0.0,0.0,0.0,0.0,0.0,0.0,0.0,0.0,0.0,0.0,0.0,0.0,0.0,0.0,0.0,0.0,0.0,0.0,0.0,0.0,0.0,0.0,0.0,0.0,0.0,0.0,0.0,0.0,0.0,0.0,0.0,0.0,0.0,0.0,0.0,0.0,0.0,0.0,0.0,0.0,0.0,0.0,0.0,0.0,0.0,0.0,0.0,0.0,0.0,0.0,0.0,0.0,0.0,0.0,0.0,0.0,0.0,0.0,0.0,0.0,0.0,0.0,0.0,0.0,0.0,0.0,0.0,0.0,0.0,0.0,0.0,0.0,0.0,0.0,0.0,0.0,0.0,0.0,0.0,0.0,0.0,0.0,0.0,0.0,0.0,0.0,-0.9329,-1.0484,-1.1301,-1.096,-0.9398,-0.7871,-0.6698,0.0,0.0,0.0,0.0,0.0,0.0,0.0,0.0,0.0,0.0,0.0,0.0,0.0,0.0,0.0,0.0,0.0,0.0,0.0,0.0,0.0,0.0,0.0,0.0,0.0,0.0,0.0,0.0,0.0,0.0,0.0,0.0,0.0,0.0,0.0,0.0,0.0,0.0,0.0,0.0,0.0,0.0,0.0,0.0,0.0,0.0,0.0,0.0,0.0,0.0,0.0,0.0,0.0,0.0,0.0,0.0,0.0,0.0,0.0,0.0,0.0,0.0,0.0,0.0,0.0,0.0,0.0,0.0,0.0,0.0,0.0,0.0,0.0,0.0,0.0,0.0,0.0,0.0,0.0,0.0,0.0,0.0,0.0,0.0,0.0,0.0,0.0,0.0,0.0,0.0,0.0,0.0,0.0,0.0,0.0,0.0,0.0,0.0,0.0,0.0,0.0,0.0,0.0,0.0,0.0,0.0,0.0,0.0,-1.0759,-1.234,-1.2458,-1.2035,-1.1129,-0.9314,-0.7739,0.0,0.0,0.0,0.0,0.0,0.0,0.0,0.0,0.0,0.0,0.0,0.0,0.0,0.0,0.0,0.0,0.0,0.0,0.0,0.0,0.0,0.0,0.0,0.0,0.0,0.0,0.0,0.0,0.0,0.0,0.0,0.0,0.0,0.0,0.0,0.0,0.0,0.0,0.0,0.0,0.0,0.0,0.0,0.0,0.0,0.0,0.0,0.0,0.0,0.0,0.0,0.0,0.0,0.0,0.0,0.0,0.0,0.0,0.0,0.0,0.0,0.0,0.0,0.0,0.0,0.0,0.0,0.0,0.0,0.0,0.0,0.0,0.0,0.0,0.0,0.0,0.0,0.0,0.0,0.0,0.0,0.0,0.0,0.0,0.0,0.0,0.0,0.0,0.0,0.0,0.0,0.0,0.0,0.0,0.0,0.0,0.0,0.0,0.0,0.0,0.0,0.0,0.0,0.0,0.0,0.0,0.0,0.0,-1.1747,-1.2889,-1.2631,-1.2143,-1.1436,-0.9452,-0.7792,0.0,0.0,0.0,0.0,0.0,0.0,0.0,0.0,0.0,0.0,0.0,0.0,0.0,0.0,0.0,0.0,0.0,0.0,0.0,0.0,0.0,0.0,0.0,0.0,0.0,0.0,0.0,0.0,0.0,0.0,0.0,0.0,0.0,0.0,0.0,0.0,0.0,0.0,0.0,0.0,0.0,0.0,0.0,0.0,0.0,0.0,0.0,0.0,-0.8888,0.0,0.0,0.0,0.0,0.0,0.0,0.0,0.0,0.0,0.0,0.0,0.0,0.0,0.0,0.0,0.0,0.0,0.0,0.0,0.0,0.0,0.0,0.0,0.0,0.0,0.0,0.0,0.0,0.0,0.0,0.0,0.0,0.0,0.0,0.0,0.0,0.0,0.0,0.0,0.0,0.0,0.0,0.0,0.0,0.0,0.0,0.0,0.0,0.0,0.0,0.0,0.0,0.0,0.0,0.0,0.0,0.0,0.0,0.0,-1.2393,-1.3901,-1.3382,-1.2734,-1.1966,-1.0494,-0.874,0.0,0.0,0.0,0.0,0.0,0.0,0.0,0.0,0.0,0.0,0.0,0.0,0.0,0.0,0.0,0.0,0.0,0.0,0.0,0.0,0.0,0.0,0.0,0.0,0.0,0.0,0.0,0.0,0.0,0.0,0.0,0.0,0.0,0.0,0.0,0.0,0.0,0.0,0.0,0.0,0.0,0.0,0.0,0.0,0.0,0.0,0.0,0.0,0.0,0.0,0.0,0.0,0.0,0.0,0.0,0.0,0.0,0.0,0.0,0.0,0.0,0.0,0.0,0.0,0.0,0.0,0.0,0.0,0.0,0.0,0.0,0.0,0.0,0.0,0.0,0.0,0.0,0.0,0.0,0.0,0.0,0.0,0.0,0.0,0.0,0.0,0.0,0.0,0.0,0.0,0.0,0.0,0.0,0.0,0.0,0.0,0.0,0.0,0.0,0.0,0.0,0.0,0.0,0.0,0.0,0.0,0.0,-1.136,-1.2833,-1.4895,-1.4142,-1.3351,-1.2565,-1.1647,-0.9843,-0.7114,0.0,0.0,0.0,0.0,0.0,0.0,0.0,0.0,0.0,0.0,0.0,0.0,0.0,0.0,0.0,0.0,0.0,0.0,0.0,0.0,0.0,0.0,0.0,0.0,0.0,0.0,0.0,0.0,0.0,0.0,0.0,0.0,0.0,0.0,0.0,0.0,0.0,0.0,-0.6558,-0.8122,0.0,0.0,0.0,0.0,0.0,0.0,0.0,0.0,-1.0191,0.0,0.0,0.0,0.0,0.0,0.0,0.0,0.0,0.0,0.0,0.0,0.0,0.0,0.0,0.0,0.0,0.0,0.0,0.0,0.0,0.0,0.0,0.0,0.0,0.0,0.0,0.0,0.0,0.0,0.0,0.0,0.0,0.0,0.0,0.0,0.0,0.0,0.0,0.0,0.0,0.0,0.0,0.0,0.0,0.0,0.0,0.0,0.0,0.0,0.0,0.0,0.0,0.0,0.0,0.0,0.0,-1.182,-1.1834,-1.2884,-1.508,-1.4201,-1.3411,-1.2765,-1.1897,-1.0064,-0.7196,0.0,0.0,0.0,0.0,0.0,0.0,0.0,0.0,0.0,0.0,0.0,0.0,0.0,0.0,0.0,0.0,0.0,0.0,0.0,0.0,0.0,0.0,0.0,0.0,0.0,0.0,0.0,0.0,0.0,0.0,0.0,0.0,0.0,0.0,0.0,0.0,0.0,0.0,0.0,-1.1416,-1.2,0.0,0.0,0.0,0.0,0.0,0.0,0.0,0.0,-1.0567,0.0,0.0,0.0,0.0,0.0,0.0,0.0,0.0,0.0,0.0,0.0,0.0,0.0,0.0,0.0,0.0,0.0,0.0,0.0,0.0,0.0,0.0,0.0,0.0,0.0,0.0,0.0,0.0,0.0,0.0,0.0,0.0,0.0,0.0,0.0,0.0,0.0,0.0,0.0,0.0,0.0,0.0,0.0,0.0,0.0,0.0,0.0,0.0,0.0,0.0,0.0,0.0,0.0,0.0,0.0,-1.116,-1.2561,-1.3892,-1.5128,-1.4725,-1.4112,-1.329,-1.2551,-1.0713,0.0,0.0,0.0,0.0,0.0,0.0,0.0,0.0,0.0,0.0,0.0,0.0,0.0,0.0,0.0,0.0,0.0,0.0,0.0,0.0,0.0,0.0,0.0,0.0,0.0,0.0,0.0,0.0,0.0,0.0,0.0,0.0,0.0,0.0,0.0,0.0,0.0,0.0,0.0,0.0,-1.2518,-1.3279,-1.4326,0.0,0.0,0.0,0.0,0.0,0.0,-1.2386,-1.1326,0.0,0.0,0.0,0.0,0.0,0.0,0.0,0.0,0.0,0.0,0.0,0.0,0.0,0.0,0.0,0.0,0.0,0.0,0.0,0.0,0.0,0.0,0.0,0.0,0.0,0.0,0.0,0.0,0.0,0.0,0.0,0.0,0.0,0.0,0.0,0.0,0.0,0.0,0.0,0.0,0.0,0.0,0.0,0.0,0.0,0.0,0.0,0.0,0.0,0.0,0.0,0.0,0.0,0.0,0.0,-1.0342,-1.29,-1.4645,-1.5341,-1.5254,-1.4792,-1.3947,-1.3354,-1.1483,0.0,0.0,0.0,0.0,0.0,0.0,0.0,0.0,0.0,0.0,0.0,0.0,0.0,0.0,0.0,0.0,0.0,0.0,0.0,0.0,0.0,0.0,0.0,0.0,0.0,0.0,0.0,0.0,0.0,0.0,0.0,0.0,0.0,0.0,0.0,0.0,0.0,0.0,0.0,0.0,0.0,-1.4162,-1.5494,-1.4531,0.0,0.0,0.0,0.0,-1.4382,-1.3474,0.0,0.0,0.0,0.0,0.0,0.0,0.0,0.0,0.0,0.0,0.0,0.0,0.0,0.0,0.0,0.0,0.0,0.0,0.0,0.0,0.0,0.0,0.0,0.0,0.0,0.0,0.0,0.0,0.0,0.0,0.0,0.0,0.0,0.0,0.0,0.0,0.0,0.0,0.0,0.0,0.0,0.0,0.0,0.0,0.0,0.0,0.0,0.0,0.0,0.0,0.0,0.0,0.0,0.0,0.0,0.0,-1.0283,-1.2139,-1.4043,-1.5859,-1.5487,-1.5051,-1.4758,-1.4182,-1.2108,0.0,0.0,0.0,0.0,0.0,0.0,0.0,0.0,0.0,0.0,0.0,0.0,0.0,0.0,0.0,0.0,0.0,0.0,0.0,0.0,0.0,0.0,0.0,0.0,0.0,0.0,0.0,0.0,0.0,0.0,0.0,0.0,0.0,0.0,0.0,0.0,0.0,0.0,0.0,0.0,0.0,-1.4895,-1.4939,-1.4367,-1.4124,0.0,0.0,-1.5231,-1.6027,-1.5541,0.0,0.0,0.0,0.0,0.0,0.0,0.0,0.0,0.0,0.0,0.0,0.0,0.0,0.0,0.0,0.0,0.0,0.0,0.0,0.0,0.0,0.0,0.0,0.0,0.0,0.0,0.0,0.0,0.0,0.0,0.0,0.0,0.0,0.0,0.0,0.0,0.0,0.0,0.0,0.0,0.0,0.0,0.0,0.0,0.0,0.0,0.0,0.0,0.0,0.0,0.0,0.0,0.0,0.0,0.0,-0.9332,-1.0352,-1.3208,-1.5165,-1.6056,-1.6082,-1.5837,-1.5423,-1.4821,-1.2796,0.0,0.0,0.0,0.0,0.0,0.0,0.0,0.0,0.0,0.0,0.0,0.0,0.0,0.0,0.0,0.0,0.0,0.0,0.0,0.0,0.0,0.0,0.0,0.0,0.0,0.0,0.0,0.0,0.0,0.0,0.0,0.0,0.0,0.0,0.0,0.0,0.0,0.0,0.0,0.0,0.0,0.0,-1.6782,-1.6355,0.0,0.0,0.0,-1.6754,-1.7385,0.0,0.0,0.0,0.0,0.0,0.0,0.0,0.0,0.0,0.0,0.0,0.0,0.0,0.0,0.0,0.0,0.0,0.0,0.0,0.0,0.0,0.0,0.0,0.0,0.0,0.0,0.0,0.0,0.0,0.0,0.0,0.0,0.0,0.0,0.0,0.0,0.0,0.0,0.0,0.0,0.0,0.0,0.0,0.0,0.0,0.0,0.0,0.0,0.0,0.0,0.0,0.0,0.0,0.0,0.0,0.0,0.0,-1.0528,-1.4177,-1.6202,-1.6418,-1.6611,-1.6536,-1.6189,-1.5557,0.0,0.0,0.0,0.0,0.0,0.0,0.0,0.0,0.0,0.0,0.0,0.0,0.0,0.0,0.0,0.0,0.0,0.0,0.0,0.0,0.0,0.0,0.0,0.0,0.0,0.0,0.0,-0.4027,0.0,0.0,0.0,0.0,0.0,0.0,0.0,0.0,0.0,0.0,0.0,0.0,0.0,0.0,-1.6151,-1.8292,-1.8136,-1.8104,0.0,0.0,-1.7963,-1.8405,-1.7984,-1.6844,0.0,0.0,0.0,0.0,0.0,0.0,0.0,0.0,0.0,0.0,0.0,0.0,0.0,0.0,0.0,0.0,0.0,0.0,0.0,0.0,0.0,0.0,0.0,0.0,0.0,0.0,0.0,0.0,0.0,0.0,0.0,0.0,0.0,0.0,0.0,0.0,0.0,0.0,0.0,0.0,0.0,0.0,0.0,0.0,0.0,0.0,0.0,0.0,0.0,0.0,0.0,0.0,0.0,0.0,-1.033,-1.0946,-1.4314,-1.6496,-1.7246,-1.6924,-1.6882,-1.7266,-1.6463,-1.427,0.0,0.0,0.0,0.0,0.0,0.0,0.0,0.0,0.0,0.0,0.0,0.0,0.0,0.0,0.0,0.0,0.0,0.0,0.0,0.0,0.0,0.0,0.0,0.0,0.0,0.0,0.0,0.0,0.0,0.0,0.0,0.0,0.0,0.0,0.0,0.0,0.0,0.0,0.0,0.0,0.0,-1.6502,-1.8253,-1.8711,-1.9266,0.0,-1.9426,-1.8698,-1.8914,-1.8803,-1.7562,-1.421,0.0,0.0,0.0,0.0,0.0,0.0,0.0,0.0,0.0,0.0,0.0,0.0,0.0,0.0,0.0,0.0,0.0,0.0,0.0,0.0,0.0,0.0,0.0,0.0,0.0,0.0,0.0,0.0,0.0,0.0,0.0,0.0,0.0,0.0,0.0,0.0,0.0,0.0,0.0,0.0,0.0,0.0,0.0,0.0,0.0,0.0,0.0,0.0,0.0,0.0,0.0,0.0,0.0,-1.0349,-1.0927,-1.458,-1.6768,-1.7353,-1.7471,-1.748,-1.7383,-1.7083,-1.5439,0.0,0.0,0.0,0.0,0.0,0.0,0.0,0.0,0.0,0.0,0.0,0.0,0.0,0.0,0.0,0.0,0.0,0.0,0.0,0.0,0.0,0.0,0.0,0.0,0.0,0.0,0.0,0.0,-0.854,-0.8839,-0.7912,0.0,0.0,0.0,0.0,0.0,0.0,0.0,0.0,0.0,0.0,-1.8203,-2.0078,-2.0454,0.0,0.0,-2.0609,-2.0125,-2.0115,-1.8952,-1.7456,-1.5685,-1.4745,0.0,0.0,0.0,0.0,0.0,0.0,0.0,0.0,0.0,0.0,0.0,0.0,0.0,0.0,0.0,0.0,0.0,0.0,0.0,0.0,0.0,0.0,0.0,0.0,0.0,0.0,0.0,0.0,0.0,0.0,0.0,0.0,0.0,0.0,0.0,0.0,0.0,0.0,0.0,0.0,0.0,0.0,0.0,0.0,0.0,0.0,0.0,0.0,0.0,0.0,0.0,0.0,-1.0582,-1.1134,-1.4941,-1.7129,-1.7568,-1.7861,-1.7871,-1.7588,-1.7451,-1.6279,0.0,0.0,0.0,0.0,0.0,0.0,0.0,0.0,0.0,0.0,0.0,0.0,0.0,0.0,0.0,0.0,0.0,0.0,0.0,0.0,0.0,0.0,0.0,0.0,0.0,0.0,0.0,0.0,-0.94,-0.9412,-0.8247,0.0,0.0,0.0,0.0,0.0,0.0,0.0,0.0,0.0,0.0,-1.9574,-2.1353,-2.1397,-2.1233,-2.1336,-2.0604,-2.0025,-1.994,-1.8907,-1.779,-1.686,0.0,0.0,0.0,0.0,0.0,0.0,0.0,0.0,0.0,0.0,0.0,0.0,0.0,0.0,0.0,0.0,0.0,0.0,0.0,0.0,0.0,0.0,0.0,0.0,0.0,0.0,0.0,-0.326,0.0,0.0,-0.2788,0.0,0.0,0.0,0.0,0.0,0.0,0.0,0.0,0.0,0.0,0.0,0.0,0.0,0.0,0.0,0.0,0.0,0.0,0.0,0.0,0.0,0.0,-1.1112,-1.1616,-1.54,-1.7559,-1.7969,-1.8008,-1.7998,-1.7978,-1.7607,-1.6553,-1.4803,0.0,0.0,0.0,0.0,0.0,0.0,0.0,0.0,0.0,0.0,0.0,0.0,0.0,0.0,0.0,0.0,0.0,0.0,0.0,0.0,0.0,0.0,0.0,0.0,0.0,0.0,-0.6309,-0.696,-0.764,0.0,0.0,0.0,0.0,0.0,0.0,0.0,0.0,0.0,0.0,-1.8918,-2.0391,-2.1714,-2.1148,-2.0657,-2.0611,-1.9167,-1.8033,-1.8115,-1.8692,-1.8801,0.0,0.0,0.0,0.0,0.0,0.0,0.0,0.0,0.0,0.0,0.0,0.0,0.0,0.0,0.0,0.0,0.0,0.0,0.0,0.0,0.0,0.0,0.0,0.0,0.0,0.0,0.0,-0.4625,-0.4425,0.0,0.0,0.0,0.0,0.0,0.0,0.0,0.0,0.0,0.0,0.0,-1.0047,-1.0246,0.0,0.0,0.0,0.0,0.0,0.0,0.0,0.0,0.0,0.0,0.0,0.0,-1.1131,-1.1753,-1.5429,-1.7588,-1.7988,-1.8008,-1.8008,-1.8008,-1.7871,-1.6846,-1.4844,0.0,0.0,0.0,0.0,0.0,0.0,0.0,0.0,0.0,0.0,0.0,0.0,0.0,0.0,0.0,0.0,0.0,0.0,0.0,0.0,0.0,0.0,0.0,0.0,0.0,-0.8641,0.0,0.0,0.0,0.0,0.0,0.0,0.0,0.0,0.0,0.0,0.0,-1.6771,-1.8762,-2.0651,-2.2149,-2.3053,-2.2936,-2.2652,0.0,0.0,0.0,0.0,0.0,0.0,0.0,0.0,0.0,0.0,0.0,0.0,0.0,0.0,-1.9189,-1.6308,-1.5382,-1.4921,-1.4453,0.0,0.0,0.0,0.0,0.0,0.0,0.0,0.0,0.0,0.0,0.0,0.0,0.0,0.0,-0.6083,0.0,-0.5671,0.0,0.0,0.0,0.0,0.0,0.0,0.0,0.0,-0.9518,-1.0654,-1.2113,-1.2302,-1.2357,0.0,-1.1904,-1.0847,0.0,0.0,0.0,0.0,0.0,0.0,0.0,0.0,-1.157,-1.2582,-1.585,-1.7734,-1.7988,-1.8008,-1.8008,-1.8008,-1.8008,-1.7285,-1.5732,-1.416,-1.2852,0.0,0.0,0.0,0.0,0.0,0.0,0.0,0.0,0.0,0.0,0.0,0.0,0.0,0.0,0.0,0.0,0.0,0.0,0.0,0.0,0.0,0.0,0.0,-0.9781,0.0,0.0,0.0,0.0,0.0,0.0,0.0,0.0,0.0,-1.3568,-1.6379,-1.9104,-2.0897,-2.2131,-2.3049,-2.3512,0.0,0.0,0.0,0.0,0.0,0.0,0.0,-1.8692,-2.074,-1.9536,-1.8623,-1.9593,-2.0663,-2.1316,-2.1038,0.0,0.0,-1.8996,-1.8005,-1.7574,-1.7333,-1.7469,-1.7559,-1.7333,-1.7931,-1.851,0.0,0.0,0.0,0.0,0.0,0.0,0.0,0.0,-0.7156,-0.7564,0.0,-0.7517,0.0,0.0,0.0,0.0,-0.678,-0.7271,0.0,0.0,-1.213,-1.3284,-1.4884,-1.506,-1.5186,-1.5177,-1.4895,-1.4102,-1.2881,-1.1153,0.0,0.0,0.0,0.0,0.0,0.0,-1.2494,-1.4114,-1.6648,-1.8008,-1.8008,-1.8008,-1.8008,-1.8008,-1.8008,-1.7812,-1.7344,-1.5371,-1.3987,-1.3461,-0.9506,0.0,0.0,0.0,0.0,0.0,0.0,0.0,0.0,0.0,0.0,0.0,0.0,0.0,0.0,0.0,0.0,0.0,0.0,0.0,0.0,-1.03,0.0,0.0,0.0,0.0,0.0,0.0,0.0,0.0,0.0,0.0,-1.703,-1.864,-2.0838,-2.3354,0.0,0.0,0.0,0.0,-2.1616,-2.1642,-2.0675,-2.0009,-2.0022,-2.0775,-2.1565,-2.2311,0.0,0.0,-2.3037,-2.3789,-2.3917,-2.2158,-2.2802,-2.3595,-2.3475,-2.1869,-2.0572,-1.9944,-2.0303,-2.0528,-2.0142,-2.155,-2.3176,-0.4573,0.0,0.0,0.0,0.0,-0.6041,-0.6915,-0.7676,-0.8631,-0.8931,-0.8717,-0.8517,0.0,0.0,0.0,0.0,0.0,0.0,-0.9915,-1.2256,-1.2599,-1.3534,-1.5,-1.5156,-1.5205,-1.5205,-1.5245,-1.4992,-1.453,-1.4092,-1.1756,-0.7698,0.0,0.0,0.0,0.0,-1.4111,-1.4697,-1.6855,-1.8008,-1.8008,-1.8008,-1.8008,-1.8008,-1.8008,-1.7959,-1.7832,-1.6934,-1.5674,-1.3997,-1.2467,0.0,0.0,0.0,0.0,0.0,0.0,0.0,0.0,0.0,0.0,0.0,0.0,0.0,0.0,0.0,0.0,0.0,0.0,0.0,-0.7784,-1.0379,-1.1654,0.0,0.0,0.0,0.0,0.0,0.0,0.0,0.0,0.0,-2.0352,-2.133,-2.2151,0.0,0.0,-2.3433,-2.2646,-2.2989,-2.3367,-2.3339,-2.3093,0.0,-2.2856,-2.2082,-2.2237,-2.4425,-2.5495,-2.5925,-2.5531,-2.5016,-2.4425,-2.3827,-2.367,-2.3595,-2.3565,-2.3191,-2.2682,-2.2547,-2.2637,-2.2712,-2.2607,-2.3161,-2.3595,-0.5283,-0.5099,-0.5014,-0.5405,-0.6107,-0.7002,-0.7883,-0.876,-0.9669,-0.9963,-0.9753,-0.9608,-0.8978,-0.8,-0.7562,0.0,0.0,0.0,-1.0536,-1.2642,-1.2798,-1.3618,-1.4999,-1.5165,-1.5463,-1.5766,-1.5642,-1.5652,-1.5806,-1.5732,-1.3857,-1.038,0.0,0.0,-1.0762,-1.3408,-1.5127,-1.584,-1.7256,-1.8008,-1.8008,-1.8008,-1.8008,-1.8008,-1.8008,-1.8008,-1.8008,-1.7607,-1.6699,-1.5196,-1.4111,-1.2715,0.0,0.0,0.0,0.0,0.0,0.0,0.0,0.0,0.0,0.0,0.0,-0.6121,-0.4758,0.0,0.0,0.0,-1.0326,-1.0925,-1.0938,-1.3113,0.0,0.0,0.0,0.0,0.0,0.0,0.0,-1.7399,-1.991,-2.1821,-2.2635,-2.3113,-2.3346,-2.3257,-2.3703,-2.3806,-2.3111,0.0,-2.4125,-2.4125,-2.4125,-2.4125,-2.4099,-2.3432,-2.3663,-2.5786,-2.6623,-2.6991,-2.6971,-2.6093,-2.5322,-2.4993,-2.444,-2.3924,-2.3655,-2.3595,-2.3595,-2.3595,-2.3595,-2.3595,-2.3595,-2.3595,-2.3595,-0.5852,-0.5885,-0.5586,-0.6092,-0.719,-0.7871,-0.8626,-0.9454,-1.0199,-1.053,-1.0586,-1.0586,-0.999,-0.8918,-0.8358,0.0,-1.0297,-1.015,-1.116,-1.3036,-1.302,-1.3754,-1.5098,-1.5305,-1.5849,-1.6646,-1.6133,-1.6152,-1.6658,-1.6349,-1.5557,-1.4387,-1.4004,-1.3936,-1.4172,-1.4746,-1.583,-1.7402,-1.7812,-1.8008,-1.8008,-1.8008,-1.8008,-1.8008,-1.8008,-1.8008,-1.7998,-1.7646,-1.7236,-1.6726,-1.4825,-1.3564,-1.313,0.0,0.0,0.0,0.0,0.0,0.0,0.0,0.0,0.0,0.0,0.0,0.0,0.0,0.0,0.0,-1.5403,0.0,-1.695,-1.7133,0.0,0.0,0.0,-1.4614,-1.5564,-1.7796,-1.9486,-2.01,0.0,0.0,-2.4013,-2.4074,-2.4316,-2.4863,-2.4434,-2.4057,-2.3995,-2.4021,-2.4125,-2.4125,-2.4125,-2.4125,-2.4141,-2.4543,-2.5328,-2.652,-2.7229,-2.753,-2.751,-2.7001,-2.6348,-2.5794,-2.5128,-2.453,-2.3879,-2.3849,-2.3759,-2.3819,-2.3744,-2.3699,-2.3729,-2.3804,-2.3894,-0.5909,-0.604,-0.5963,-0.618,-0.6644,-0.7348,-0.8082,-0.878,-0.946,-1.0072,-1.0586,-1.0586,-1.0439,-1.0164,-1.003,-1.04,-1.1179,-1.1577,-1.2311,-1.3415,-1.4339,-1.4883,-1.5126,-1.5972,-1.6338,-1.6319,-1.6423,-1.6568,-1.6697,-1.6631,-1.6582,-1.6611,-1.6514,-1.585,-1.4746,-1.6357,-1.7441,-1.7861,-1.7959,-1.8008,-1.8008,-1.8008,-1.8008,-1.8008,-1.8008,-1.8008,-1.8008,-1.791,-1.7666,-1.7236,-1.6416,-1.5762,-1.5322,-1.1854,0.0,0.0,0.0,0.0,0.0,0.0,0.0,0.0,0.0,-0.9767,-0.8203,0.0,-1.1215,0.0,-1.7421,-1.7931,-1.493,-1.6571,0.0,0.0,-1.6824,-1.7262,-2.0296,-2.0604,-2.1037,-2.2287,-2.3393,-2.4063,-2.4063,-2.4079,-2.4141,-2.4287,-2.42,-2.3799,-2.299,-2.3563,-2.4125,-2.4125,-2.4125,-2.4125,-2.42,-2.4963,-2.5987,-2.7203,-2.7509,-2.76,-2.7585,-2.7061,-2.6527,-2.6363,-2.5809,-2.5322,-2.5121,-2.5113,-2.5121,-2.5068,-2.4709,-2.4365,-2.438,-2.4739,-2.5121,-0.6032,-0.6211,-0.6246,-0.6398,-0.6712,-0.7272,-0.8037,-0.8967,-0.9358,-0.9907,-1.0586,-1.0586,-1.0586,-1.0586,-1.0586,-1.0844,-1.1294,-1.1664,-1.2167,-1.2873,-1.4073,-1.4781,-1.5089,-1.6063,-1.6642,-1.6873,-1.7046,-1.7197,-1.7262,-1.7295,-1.7432,-1.7656,-1.7656,-1.7178,-1.6318,-1.7412,-1.7822,-1.7418,-1.7822,-1.8008,-1.8008,-1.8008,-1.7744,-1.721,-1.7705,-1.7734,-1.7168,-1.7705,-1.7461,-1.633,-1.5996,-1.5694,-1.5333,-1.3155,-1.2296,0.0,0.0,0.0,0.0,0.0,0.0,0.0,0.0,0.0,0.0,0.0,-1.3404,-1.5257,-1.8783,-1.9745,-1.6762,-1.8623,-2.0022,-2.0009,-1.9561,-2.0178,-2.2519,-2.2299,-2.2405,-2.3472,-2.3874,-2.4125,-2.4125,-2.4125,-2.4125,-2.4125,-2.4125,-2.389,-2.3354,-2.3733,-2.4125,-2.4125,-2.4125,-2.4303,-2.4765,-2.5175,-2.5919,-2.724,-2.7357,-2.728,-2.7534,-2.73,-2.6971,-2.6647,-2.6288,-2.5944,-2.5674,-2.56,-2.56,-2.56,-2.5546,-2.5382,-2.5113,-2.5345,-2.56,-0.6194,-0.641,-0.641,-0.665,-0.7034,-0.7423,-0.8287,-0.9459,-0.9552,-0.997,-1.0586,-1.0586,-1.0586,-1.0586,-1.0586,-1.0727,-1.0935,-1.114,-1.1482,-1.2024,-1.3186,-1.4186,-1.5018,-1.6008,-1.6897,-1.7672,-1.7716,-1.7818,-1.8008,-1.8008,-1.8008,-1.8008,-1.8008,-1.7959,-1.7861,-1.7959,-1.7613,-1.6892,-1.7529,-1.7808,-1.7852,-1.7818,-1.7305,-1.63,-1.7353,-1.748,-1.6437,-1.7402,-1.7139,-1.5332,-1.5183,-1.5064,-1.4821,-1.4633,-1.4437,0.0,-1.4712,0.0,0.0,0.0,0.0,0.0,0.0,0.0,0.0,-1.6209,-1.6333,-1.5769,-1.9731,-2.172,-2.0245,-2.1524,-2.2477,-2.2505,-2.2584,-2.282,-2.3276,-2.33,-2.3537,-2.406,-2.4125,-2.4125,-2.4125,-2.4125,-2.4125,-2.4125,-2.4125,-2.4086,-2.407,-2.4086,-2.4125,-2.4125,-2.4125,-2.4447,-2.5286,-2.5244,-2.5591,-2.7008,-2.71,-2.6919,-2.7499,-2.7585,-2.7405,-2.6871,-2.6761,-2.6542,-2.5959,-2.5899,-2.5899,-2.5959,-2.6333,-2.6452,-2.5929,-2.5884,-2.5854,-0.6394,-0.6544,-0.6541,-0.6722,-0.7055,-0.7754,-0.8518,-0.9296,-0.9707,-1.0153,-1.0593,-1.0586,-1.0586,-1.0586,-1.0586,-1.062,-1.0687,-1.1084,-1.1456,-1.1812,-1.3637,-1.4645,-1.5002,-1.6662,-1.7476,-1.7564,-1.7837,-1.7974,-1.8008,-1.8008,-1.8008,-1.8008,-1.8008,-1.7666,-1.7009,0.0,0.0,0.0,-1.7223,-1.6941,-1.6941,-1.6941,-1.6824,-1.6609,-1.751,0.0,-1.7676,-1.7881,-1.7832,-1.7412,-1.719,0.0,0.0,0.0,0.0,0.0,0.0,0.0,0.0,0.0,0.0,0.0,-1.607,-1.6544,-1.7151,-1.9353,-1.9952,-1.8185,-2.0399,-2.1904,-2.1689,-2.2404,-2.2927,-2.3052,-2.3498,-2.3838,-2.3913,-2.3942,-2.3965,-2.4099,-2.4125,-2.4125,-2.4125,-2.4125,-2.4125,-2.4125,-2.4125,-2.4125,-2.4125,-2.4125,-2.4125,-2.4125,-2.4112,-2.4361,-2.5048,-2.509,-2.5439,-2.651,-2.6814,-2.6945,-2.7433,-2.7585,-2.7585,-2.739,-2.742,-2.7375,-2.721,-2.7225,-2.7136,-2.721,-2.73,-2.721,-2.6557,-2.6866,-2.7225,-0.6479,-0.6742,-0.6742,-0.6922,0.0,-0.8529,-0.9218,-0.9554,-1.0002,-1.048,-1.0989,-1.0989,-1.0989,-1.0989,-1.1087,-1.1235,-1.1417,-1.1737,-1.2109,-1.2501,-1.3776,-1.469,-1.5259,-1.6559,-1.7329,-1.7623,-1.7872,-1.8008,-1.8008,-1.8008,-1.8008,-1.8008,-1.8008,-1.7759,-1.736,-1.7793,-1.8008,-1.8008,-1.7555,-1.733,-1.733,-1.733,-1.7019,-1.6465,-1.7441,0.0,0.0,0.0,0.0,0.0,0.0,0.0,0.0,0.0,0.0,-1.7625,-1.7381,-1.711,-1.6936,-1.7162,-1.779,-1.8882,-1.9497,-1.9749,-1.9548,-2.1278,-2.1831,-2.0678,-2.1975,-2.291,-2.2995,-2.3327,-2.3582,-2.3652,-2.39,-2.4125,-2.4125,-2.4125,-2.4125,-2.4125,-2.4125,-2.4125,-2.4125,-2.4125,-2.4125,-2.4125,-2.4125,-2.4125,-2.4125,-2.4125,-2.4125,-2.4112,-2.439,-2.475,-2.5231,-2.5132,-2.5508,-2.6695,-2.6654,-2.668,-2.7433,-2.7585,-2.7585,-2.7585,-2.7585,-2.7585,-2.7585,-2.7585,-2.7585,-2.7585,-2.7585,-2.7384,-2.6825,-2.7159,-2.7585,-0.6525,-0.6903,-0.6903,-0.7134,-0.7633,-0.9221,-1.0083,-1.0349,0.0,0.0,0.0,-1.143,-1.143,-1.143,-1.1567,-1.1805,-1.2073,-1.2255,-1.26,-1.307,-1.3858,-1.4633,-1.5463,-1.6279,-1.7048,-1.7696,-1.7818,-1.7939,-1.8008,-1.8008,-1.8008,-1.8008,-1.8008,-1.8008,-1.8008,-1.8008,-1.8008,-1.7998,-1.7861,-1.7793,-1.7783,-1.7793,-1.7275,-1.6232,-1.7363,-1.7566,-1.6682,-1.8163,-1.8415,-1.7254,-1.7696,-1.809,-1.828,-1.8453,-1.9066,-2.0305,-2.0993,-2.1181,-2.0893,-2.1242,-2.1559,-2.1631,-2.2046,-2.2121,-2.1656,-2.2404,-2.2821,-2.2676,-2.3343,-2.3789,-2.3848,-2.3936,-2.4037,-2.4096,-2.4125,-2.4125,-2.4125,-2.4125,-2.4125,-2.4125,-2.4125,-2.4125,-2.4125,-2.4125,-2.4125,-2.4125,-2.4125,-2.4125,-2.4125,-2.4125,-2.4125,-2.4141,-2.4419,-2.4935,-2.5286,-2.509,-2.5495,-2.6785,-2.639,-2.6283,-2.7214,-2.7585,-2.7585,-2.7585,-2.7585,-2.7585,-2.7585,-2.7585,-2.7585,-2.7585,-2.7499,-2.7306,-2.6893,-2.6997,-2.7188,-0.6525,-0.6903,-0.6903,-0.7134,-0.7633,-0.9216,-1.0683,-1.1933,-1.1765,-1.1593,-1.143,-1.143,-1.143,-1.143,-1.1423,-1.1477,-1.1517,-1.173,-1.1998,-1.243,-1.3905,-1.4839,-1.5313,-1.6455,-1.7259,-1.7658,-1.7537,-1.7656,-1.7978,-1.8008,-1.8008,-1.8008,-1.8008,-1.8008,-1.8008,-1.8008,-1.8008,-1.7998,-1.7252,-1.6882,-1.6882,-1.6872,-1.6804,-1.6668,-1.7529,-1.8234,-1.8578,-1.8874,-1.9194,-1.9575,-1.9795,-1.9991,-2.0191,-2.0409,-2.0744,-2.1117,-2.1344,-2.1443,-2.1408,-2.1443,-2.1694,-2.2146,-2.2272,-2.2284,-2.2221,-2.2728,-2.3055,-2.3055,-2.3177,-2.3318,-2.3599,-2.3688,-2.3806,-2.4067,-2.4125,-2.4125,-2.4125,-2.4125,-2.4125,-2.4125,-2.4125,-2.4125,-2.4125,-2.4125,-2.4125,-2.4125,-2.4125,-2.4125,-2.4125,-2.4125,-2.4125,-2.4125,-2.4171,-2.4258,-2.4505,-2.4303,-2.485,-2.5851,-2.5946,-2.6162,-2.724,-2.7534,-2.756,-2.756,-2.756,-2.7585,-2.7585,-2.7585,-2.756,-2.7534,-2.7188,-2.6841,-2.6616,-2.6336,-2.6081,-0.649,-0.6749,-0.6865,-0.7057,-0.7446,-0.9178,-1.0571,-1.1657,-1.2012,-1.2031,-1.1904,-1.1904,-1.1904,-1.1897,-1.2011,-1.2046,-1.2082,-1.2366,-1.2593,-1.2798,-1.3643,-1.4564,-1.5456,-1.5848,-1.6655,-1.7779,-1.7535,-1.7607,-1.7978,-1.8008,-1.8008,-1.8008,-1.8008,-1.8008,-1.8008,-1.8008,-1.8008,-1.7964,-1.7617,-1.7432,-1.7399,-1.7389,-1.7399,-1.7432,-1.8148,-1.8697,-1.8977,-1.9726,-2.0279,-2.0645,-2.1156,-2.1452,-2.1464,-2.1842,-2.1897,-2.1626,-2.2077,-2.2217,-2.1958,-2.2209,-2.2456,-2.2706,-2.2732,-2.2732,-2.2732,-2.2957,-2.3138,-2.3258,-2.333,-2.348,-2.373,-2.3848,-2.3936,-2.4083,-2.4125,-2.4125,-2.4125,-2.4125,-2.4125,-2.4125,-2.4125,-2.4125,-2.4125,-2.4125,-2.4125,-2.4125,-2.4125,-2.4125,-2.4125,-2.4125,-2.4125,-2.4141,-2.4374,-2.4563,-2.4563,-2.4578,-2.4935,-2.5687,-2.5783,-2.6,-2.6628,-2.706,-2.7408,-2.7229,-2.7342,-2.756,-2.7585,-2.7585,-2.7458,-2.7126,-2.6945,-2.6551,-2.5961,-2.5286,-2.5034,-0.6412,-0.6598,-0.6826,-0.7134,-0.7676,-0.9221,-1.0346,-1.1149,-1.1966,-1.2305,-1.2305,-1.2305,-1.2305,-1.2305,-1.2452,-1.2526,-1.2599,-1.29,-1.3083,-1.3156,-1.3521,-1.441,-1.557,-1.5429,-1.6229,-1.7678,-1.7529,-1.7559,-1.7842,-1.7871,-1.7871,-1.7871,-1.7861,-1.791,-1.8008,-1.8008,-1.8008,-1.8008,-1.8008,-1.8008,-1.8008,-1.8134,-1.8236,-1.8269,-1.8921,-1.9309,-1.9529,-2.0537,-2.1167,-2.1356,-2.2025,-2.2359,-2.234,-2.2665,-2.265,-2.2231,-2.2738,-2.292,-2.2573,-2.2857,-2.3095,-2.3095,-2.3095,-2.3095,-2.3095,-2.3138,-2.3198,-2.333,-2.345,-2.3641,-2.3802,-2.3949,-2.4067,-2.4096,-2.4125,-2.4125,-2.4125,-2.4125,-2.4125,-2.4125,-2.4125,-2.4125,-2.4125,-2.4125,-2.4125,-2.4125,-2.4125,-2.4125,-2.4125,-2.4125,-2.4125,-2.42,-2.4505,-2.4706,-2.4778,-2.4763,-2.4977,-2.5522,-2.5742,-2.581,-2.6027,-2.6733,-2.7163,-2.6852,-2.693,-2.7163,-2.7331,-2.7382,-2.7111,-2.6669,-2.6457,-2.6109,-2.5061,-2.452,-2.4258,-0.6412,-0.6598,-0.6826,-0.7553,-0.8585,-0.9518,-1.0346,-1.1143,-1.1929,-1.2305,-1.2305,-1.2305,-1.2305,-1.2305,-1.2335,-1.2342,-1.2342,-1.2562,-1.2753,-1.3003,-1.384,-1.476,-1.5667,-1.5924,-1.6561,-1.7375,-1.7416,-1.7376,-1.7432,-1.7441,-1.7432,-1.7441,-1.7441,-1.7617,-1.7949,-1.7988,-1.7988,-1.8008,-1.8008,-1.8008,-1.8042,-1.8586,-1.8911,-1.8911,-1.9606,-2.0291,-2.0805,-2.1028,-2.142,-2.203,-2.2266,-2.2482,-2.2616,-2.283,-2.2944,-2.2947,-2.304,-2.307,-2.3032,-2.307,-2.3095,-2.3095,-2.3095,-2.3095,-2.3108,-2.3258,-2.33,-2.3228,-2.333,-2.3522,-2.3628,-2.3819,-2.3979,-2.4096,-2.4125,-2.4125,-2.4125,-2.4125,-2.4125,-2.4125,-2.4125,-2.4125,-2.4125,-2.4125,-2.4125,-2.4125,-2.4125,-2.4125,-2.4125,-2.4125,-2.4125,-2.4125,-2.42,-2.4229,-2.4216,-2.42,-2.4476,-2.4963,-2.5467,-2.5618,-2.5783,-2.6203,-2.6695,-2.6431,-2.631,-2.631,-2.6695,-2.6788,-2.6616,-2.6283,-2.5987,-2.555,-2.452,-2.4171,-2.4171,-0.6416,-0.6602,-0.683,-0.7326,-0.8131,-0.9329,-1.0083,-1.0501,-1.1774,-1.2305,-1.2305,-1.2305,-1.2305,-1.2305,-1.2305,-1.2305,-1.2305,-1.2519,-1.2709,-1.2915,-1.3215,-1.4171,-1.5555,-1.5122,-1.5734,-1.722,-1.6887,-1.6738,-1.6963,-1.696,-1.6992,-1.6992,-1.696,-1.7058,-1.7204,-1.7223,-1.7256,-1.7256,-1.7223,-1.7223,-1.7347,-1.839,-1.9011,-1.9133,-2.0085,-2.0805,-2.1092,-2.1526,-2.1894,-2.2185,-2.2432,-2.2555,-2.2525,-2.2848,-2.3,-2.2987,-2.306,-2.3095,-2.3095,-2.3095,-2.3095,-2.3095,-2.3095,-2.3095,-2.3108,-2.33,-2.336,-2.333,-2.3522,-2.376,-2.3865,-2.3966,-2.4037,-2.4096,-2.4125,-2.4125,-2.4125,-2.4125,-2.4125,-2.4125,-2.4125,-2.4125,-2.4125,-2.4125,-2.4125,-2.4125,-2.4125,-2.4125,-2.4125,-2.4125,-2.4125,-2.4125,-2.4125,-2.4125,-2.4125,-2.4125,-2.4229,-2.4476,-2.4935,-2.5258,-2.5034,-2.5591,-2.6068,-2.5797,-2.5756,-2.5987,-2.6642,-2.6683,-2.6604,-2.6203,-2.5605,-2.5147,-2.4692,-2.4332,-2.4171,-0.6377,-0.6563,-0.6791,-0.713,-0.7633,-0.8993,-0.9556,-0.9787,-1.1285,-1.1966,-1.2003,-1.2194,-1.2305,-1.2298,-1.2378,-1.2378,-1.2335,-1.2562,-1.2753,-1.2872,-1.2842,-1.3795,-1.5315,-1.4729,-1.5235,-1.6715,-1.6555,-1.6398,-1.6543,-1.6553,-1.6543,-1.6553,-1.6512,-1.6611,-1.6687,-1.6697,-1.6697,-1.6707,-1.6697,-1.6697,-1.6912,-1.8148,-1.8899,-1.905,-2.0542,-2.1342,-2.1202,-2.1873,-2.2247,-2.2247,-2.2555,-2.2678,-2.2574,-2.2896,-2.3047,-2.2969,-2.3047,-2.3095,-2.3095,-2.3095,-2.3095,-2.3095,-2.3095,-2.3108,-2.3198,-2.333,-2.348,-2.3552,-2.3802,-2.3966,-2.4008,-2.4083,-2.4125,-2.4125,-2.4125,-2.4125,-2.4125,-2.4125,-2.4125,-2.4125,-2.4125,-2.4125,-2.4125,-2.4125,-2.4125,-2.4125,-2.4125,-2.4125,-2.4125,-2.4125,-2.4125,-2.4125,-2.4125,-2.4125,-2.4125,-2.4125,-2.4125,-2.4229,-2.4649,-2.4835,-2.4316,-2.5034,-2.555,-2.5384,-2.5508,-2.5756,-2.6229,-2.6431,-2.659,-2.6324,-2.5729,-2.4963,-2.4649,-2.4345,-2.4171,-0.63,-0.6374,-0.6749,-0.713,-0.7595,-0.8432,-0.8813,-0.9041,-1.0507,-1.1186,-1.1372,-1.2003,-1.2305,-1.2305,-1.2526,-1.2482,-1.2378,-1.2689,-1.2865,-1.2901,-1.3041,-1.3843,-1.5061,-1.5087,-1.5426,-1.6227,-1.6436,-1.6396,-1.6134,-1.6114,-1.6124,-1.6124,-1.6124,-1.6309,-1.657,-1.6599,-1.6677,-1.6609,-1.6599,-1.6648,-1.6847,-1.8007,-1.8714,-1.8909,-2.0908,-2.1805,-2.1512,-2.2031,-2.2377,-2.2389,-2.2696,-2.2878,-2.2878,-2.303,-2.3108,-2.3095,-2.3095,-2.3095,-2.3095,-2.3095,-2.3095,-2.3095,-2.3095,-2.3168,-2.333,-2.348,-2.3641,-2.3819,-2.3979,-2.4037,-2.3979,-2.4067,-2.4125,-2.4125,-2.4125,-2.4125,-2.4125,-2.4125,-2.4125,-2.4125,-2.4125,-2.4125,-2.4125,-2.4125,-2.4125,-2.4125,-2.4125,-2.4125,-2.4125,-2.4125,-2.4125,-2.4125,-2.4125,-2.4125,-2.4125,-2.4125,-2.4125,-2.42,-2.4447,-2.4791,-2.462,-2.4563,-2.482,-2.5005,-2.5104,-2.5342,-2.5797,-2.6122,-2.6336,-2.6122,-2.5536,-2.4948,-2.4677,-2.4287,-2.4141,-0.6451,-0.6714,-0.6988,-0.7253,-0.7599,-0.836,-0.896,-0.9561,-1.0619,-1.1409,-1.1855,-1.2194,-1.2305,-1.2298,-1.2636,-1.2673,-1.2505,-1.2552,-1.267,-1.2735,-1.2449,-1.3167,-1.4629,-1.4326,-1.4836,-1.5953,-1.5947,-1.5811,-1.5674,-1.5644,-1.5644,-1.5644,-1.5644,-1.5742,-1.5839,-1.5889,-1.5859,-1.5859,-1.5879,-1.6068,-1.6545,-1.7632,-1.8315,-1.851,-2.0193,-2.126,-2.1404,-2.1722,-2.2025,-2.2365,-2.2739,-2.2878,-2.2909,-2.3017,-2.3095,-2.3095,-2.3095,-2.3095,-2.3095,-2.3095,-2.3095,-2.3095,-2.3095,-2.3138,-2.3228,-2.3437,-2.3628,-2.373,-2.3966,-2.4067,-2.4067,-2.4096,-2.4125,-2.4125,-2.4125,-2.4125,-2.4125,-2.4125,-2.4125,-2.4125,-2.4125,-2.4125,-2.4125,-2.4125,-2.4125,-2.4125,-2.4125,-2.4125,-2.4125,-2.4125,-2.4125,-2.4125,-2.4125,-2.4125,-2.4125,-2.4125,-2.4112,-2.4141,-2.4287,-2.4345,-2.4258,-2.4258,-2.4476,-2.4591,-2.4692,-2.5258,-2.5824,-2.6363,-2.6469,-2.6349,-2.5728,-2.5076,-2.4734,-2.4419,-2.4319,-0.6525,-0.6903,-0.7065,-0.7253,-0.7595,-0.8356,-0.8998,-0.9636,-1.0657,-1.1409,-1.1898,-1.2194,-1.2305,-1.2342,-1.2629,-1.272,-1.2551,-1.2564,-1.2748,-1.2978,-1.2565,-1.3185,-1.4397,-1.4201,-1.4626,-1.5681,-1.5566,-1.542,-1.542,-1.542,-1.542,-1.542,-1.542,-1.542,-1.5439,-1.5604,-1.5758,-1.5777,-1.5997,-1.6301,-1.674,-1.7621,-1.8187,-1.8456,-1.9543,-2.0475,-2.1008,-2.1311,-2.1614,-2.201,-2.2446,-2.286,-2.3245,-2.3155,-2.3185,-2.3365,-2.3228,-2.3095,-2.3095,-2.3095,-2.3095,-2.3095,-2.3095,-2.3095,-2.3198,-2.345,-2.3628,-2.3747,-2.3936,-2.4125,-2.4125,-2.4125,-2.4125,-2.4125,-2.4125,-2.4125,-2.4125,-2.4125,-2.4125,-2.4125,-2.4125,-2.4125,-2.4125,-2.4125,-2.4125,-2.4125,-2.4125,-2.4125,-2.4125,-2.4125,-2.4125,-2.4125,-2.4125,-2.4125,-2.4125,-2.4125,-2.4125,-2.4141,-2.4141,-2.4112,-2.4112,-2.4112,-2.4141,-2.4229,-2.4635,-2.5286,-2.5906,-2.651,-2.6628,-2.6599,-2.6013,-2.5286,-2.4921,-2.4565,-2.4507,-0.6525,-0.6865,-0.6903,-0.7134,-0.7599,-0.836,-0.8699,-0.9117,-1.047,-1.1186,-1.1484,-1.2003,-1.2305,-1.2342,-1.2526,-1.2558,-1.2507,-1.272,-1.3088,-1.3462,-1.3374,-1.3825,-1.4777,-1.4758,-1.4944,-1.5459,-1.543,-1.542,-1.542,-1.542,-1.542,-1.542,-1.542,-1.5507,-1.5439,-1.6093,-1.6454,-1.6595,-1.7079,-1.7413,-1.7501,-1.8111,-1.8449,-1.8467,-1.9136,-1.9762,-2.0241,-2.0847,-2.1237,-2.1336,-2.1939,-2.2865,-2.3719,-2.3454,-2.3395,-2.3809,-2.3454,-2.3125,-2.3095,-2.3095,-2.3095,-2.3095,-2.3095,-2.318,-2.336,-2.3509,-2.3658,-2.3848,-2.3995,-2.4125,-2.4125,-2.4125,-2.4125,-2.4125,-2.4125,-2.4125,-2.4125,-2.4125,-2.4125,-2.4125,-2.4125,-2.4125,-2.4125,-2.4125,-2.4125,-2.4125,-2.4125,-2.4125,-2.4125,-2.4125,-2.4125,-2.4125,-2.4125,-2.4125,-2.4125,-2.4125,-2.4125,-2.4125,-2.4112,-2.4112,-2.4141,-2.4141,-2.4141,-2.4245,-2.4865,-2.5522,-2.6149,-2.6642,-2.6402,-2.624,-2.5755,-2.5356,-2.4978,-2.4622,-2.465,-0.6525,-0.6865,-0.6903,-0.7134,-0.7595,-0.836,-0.8998,-0.9593,-1.0651,-1.1409,-1.1892,-1.2194,-1.2305,-1.2342,-1.2526,-1.2581,-1.2537,-1.2508,-1.2717,-1.3125,-1.298,-1.3492,-1.4469,-1.4623,-1.4887,-1.5342,-1.542,-1.542,-1.542,-1.542,-1.542,-1.541,-1.5546,-1.5826,-1.6151,-1.6521,-1.6849,-1.7246,-1.7468,-1.777,-1.812,-1.839,-1.8712,-1.916,-1.9434,-1.9664,-1.993,-2.0426,-2.0859,-2.1179,-2.1881,-2.2852,-2.3709,-2.3484,-2.3454,-2.3914,-2.3484,-2.3095,-2.3095,-2.3095,-2.3095,-2.3095,-2.3095,-2.321,-2.3403,-2.3522,-2.3688,-2.3891,-2.4008,-2.4125,-2.4125,-2.4125,-2.4125,-2.4125,-2.4125,-2.4125,-2.4125,-2.4125,-2.4125,-2.4125,-2.4125,-2.4125,-2.4125,-2.4125,-2.4125,-2.4125,-2.4125,-2.4125,-2.4125,-2.4125,-2.4125,-2.4125,-2.4125,-2.4125,-2.4125,-2.4125,-2.4125,-2.4141,-2.4141,-2.4187,-2.4187,-2.4303,-2.4274,-2.4492,-2.5105,-2.5701,-2.6336,-2.6469,-2.6242,-2.585,-2.5398,-2.509,-2.485,-2.4765,-2.4793,-0.6525,-0.6865,-0.6903,-0.7134,-0.7633,-0.8661,-0.941,-1.0045,-1.1068,-1.1855,-1.2224,-1.2305,-1.2305,-1.2305,-1.2415,-1.2426,-1.2344,-1.2164,-1.2494,-1.3074,-1.2987,-1.3584,-1.4697,-1.4824,-1.5001,-1.5323,-1.542,-1.542,-1.542,-1.5478,-1.5517,-1.5546,-1.5672,-1.6028,-1.6606,-1.7017,-1.7479,-1.7961,-1.8274,-1.8566,-1.8845,-1.8951,-1.9188,-1.9526,-1.963,-1.9708,-1.9836,-2.0084,-2.0468,-2.1109,-2.204,-2.3189,-2.4242,-2.3842,-2.3767,-2.4105,-2.3662,-2.3095,-2.3095,-2.3095,-2.3095,-2.3095,-2.3095,-2.3198,-2.336,-2.3492,-2.3641,-2.3861,-2.3979,-2.4037,-2.4096,-2.4125,-2.4125,-2.4125,-2.4125,-2.4125,-2.4125,-2.4125,-2.4125,-2.4125,-2.4125,-2.4125,-2.4125,-2.4125,-2.4125,-2.4125,-2.4125,-2.4125,-2.4125,-2.4125,-2.4125,-2.4125,-2.4125,-2.4125,-2.4125,-2.4125,-2.4125,-2.4171,-2.4216,-2.429,-2.4305,-2.4565,-2.4664,-2.4793,-2.5245,-2.566,-2.6244,-2.6163,-2.596,-2.5522,-2.5245,-2.5175,-2.5104,-2.5033,-2.5005,-0.6525,-0.6865,-0.6903,-0.7173,-0.7744,-0.9178,-0.9895,-1.0233,-1.1589,-1.2261,-1.2305,-1.2305,-1.2285,-1.2271,-1.2268,-1.215,-1.1916,-1.19,-1.2488,-1.3234,-1.3476,-1.4064,-1.5147,-1.5294,-1.5323,-1.5381,-1.542,-1.542,-1.5449,-1.5604,-1.5711,-1.574,-1.5846,-1.6267,-1.6916,-1.7578,-1.8151,-1.8768,-1.9371,-1.9592,-1.9552,-1.9669,-1.9695,-1.963,-1.9734,-1.9798,-1.9823,-2.0037,-2.03,-2.0898,-2.2304,-2.3631,-2.4547,-2.4394,-2.4292,-2.4709,-2.3767,-2.3215,-2.3095,-2.3095,-2.3095,-2.3095,-2.3108,-2.318,-2.3373,-2.3433,-2.3552,-2.3861,-2.3891,-2.3949,-2.4054,-2.4125,-2.4125,-2.4125,-2.4125,-2.4125,-2.4125,-2.4125,-2.4125,-2.4125,-2.4125,-2.4125,-2.4125,-2.4125,-2.4125,-2.4125,-2.4125,-2.4125,-2.4125,-2.4125,-2.4125,-2.4125,-2.4125,-2.4125,-2.4112,-2.4245,-2.4245,-2.4332,-2.4376,-2.445,-2.4494,-2.4736,-2.5076,-2.5203,-2.5342,-2.5729,-2.592,-2.5907,-2.5879,-2.5715,-2.555,-2.5495,-2.537,-2.5244,-2.5005,-0.6451,-0.6672,-0.6826,-0.7395,-0.8271,-0.9437,-1.0239,-1.0881,-1.1855,-1.2305,-1.2305,-1.2305,-1.2184,-1.2033,-1.2027,-1.1918,-1.1751,-1.1671,-1.2395,-1.3468,-1.3553,-1.4231,-1.5177,-1.542,-1.542,-1.542,-1.542,-1.5478,-1.5614,-1.5701,-1.5769,-1.5827,-1.6038,-1.6616,-1.7495,-1.7891,-1.8566,-1.9371,-1.9657,-1.9773,-1.9759,-1.9785,-1.9798,-1.9747,-1.9798,-1.9798,-1.9899,-2.0627,-2.1079,-2.1348,-2.2489,-2.3518,-2.4242,-2.4205,-2.4189,-2.4205,-2.3619,-2.3095,-2.3095,-2.3095,-2.3095,-2.3095,-2.3095,-2.3198,-2.3373,-2.3403,-2.3552,-2.3802,-2.3891,-2.3949,-2.4054,-2.4125,-2.4125,-2.4125,-2.4125,-2.4125,-2.4125,-2.4125,-2.4125,-2.4125,-2.4125,-2.4125,-2.4125,-2.4125,-2.4125,-2.4125,-2.4125,-2.4125,-2.4125,-2.4125,-2.4125,-2.4125,-2.4125,-2.4125,-2.4171,-2.4319,-2.4421,-2.4478,-2.4593,-2.4721,-2.4736,-2.485,-2.5244,-2.5578,-2.5605,-2.5879,-2.5852,-2.5839,-2.5811,-2.5771,-2.5508,-2.5286,-2.5328,-2.5257,-2.4907,-0.6412,-0.6641,-0.683,-0.7472,-0.8494,-0.9475,-1.0351,-1.1149,-1.1935,-1.2305,-1.2305,-1.2305,-1.2138,-1.1884,-1.1906,-1.1804,-1.1626,-1.1525,-1.2302,-1.3507,-1.4111,-1.4736,-1.5294,-1.542,-1.5449,-1.5517,-1.5507,-1.5643,-1.5769,-1.5846,-1.5894,-1.6038,-1.6361,-1.7062,-1.7891,-1.8363,-1.891,-1.9643,-1.9798,-1.9798,-1.9798,-1.9798,-1.9798,-1.9798,-1.9798,-1.9798,-1.995,-2.0866,-2.1464,-2.1764,-2.2783,-2.3736,-2.4037,-2.4102,-2.4102,-2.4073,-2.3442,-2.3095,-2.3095,-2.3095,-2.3095,-2.3095,-2.3095,-2.3198,-2.3373,-2.3403,-2.3522,-2.3832,-2.3891,-2.3979,-2.4054,-2.4125,-2.4125,-2.4125,-2.4125,-2.4125,-2.4125,-2.4125,-2.4125,-2.4125,-2.4125,-2.4125,-2.4125,-2.4125,-2.4125,-2.4125,-2.4125,-2.4125,-2.4125,-2.4125,-2.4125,-2.4125,-2.4141,-2.4171,-2.4274,-2.4421,-2.4565,-2.4622,-2.485,-2.4963,-2.5033,-2.509,-2.5495,-2.5852,-2.5879,-2.5879,-2.5879,-2.5811,-2.5674,-2.5536,-2.5285,-2.5188,-2.5229,-2.5159,-2.4821,-0.6412,-0.6602,-0.6865,-0.7587,-0.8609,-0.955,-1.0539,-1.1292,-1.2003,-1.2278,-1.2238,-1.2251,-1.2011,-1.1819,-1.1727,-1.1696,-1.1439,-1.1462,-1.2326,-1.3522,-1.4558,-1.5352,-1.542,-1.542,-1.5507,-1.5643,-1.5682,-1.5798,-1.5914,-1.6038,-1.6161,-1.6379,-1.6905,-1.7545,-1.8201,-1.8709,-1.9239,-1.9695,-1.9798,-1.9798,-1.9798,-1.9798,-1.9798,-1.9798,-1.9798,-1.9798,-2.004,-2.0731,-2.1347,-2.1496,-2.3223,-2.3955,-2.4029,-2.3952,-2.4073,-2.3897,-2.3424,-2.3095,-2.3095,-2.3095,-2.3095,-2.3095,-2.3095,-2.3168,-2.3313,-2.336,-2.3522,-2.3789,-2.3891,-2.3979,-2.4067,-2.4125,-2.4125,-2.4125,-2.4125,-2.4125,-2.4125,-2.4125,-2.4125,-2.4125,-2.4125,-2.4125,-2.4125,-2.4125,-2.4125,-2.4125,-2.4125,-2.4125,-2.4125,-2.4125,-2.4125,-2.4125,-2.4171,-2.4216,-2.4363,-2.4551,-2.4666,-2.478,-2.5104,-2.5286,-2.5397,-2.5522,-2.5852,-2.6042,-2.5934,-2.5961,-2.6042,-2.5893,-2.5674,-2.555,-2.5453,-2.53,-2.5159,-2.5005,-2.4751,-0.63,-0.6451,-0.7249,-0.8194,-0.9183,-1.0169,-1.1143,-1.2003,-1.2187,-1.2164,-1.204,-1.1964,-1.1705,-1.1209,-1.135,-1.1304,-1.1277,-1.1432,-1.2119,-1.3536,-1.4824,-1.5449,-1.5575,-1.5507,-1.5507,-1.5672,-1.5711,-1.5817,-1.6038,-1.6171,-1.6407,-1.6933,-1.723,-1.7754,-1.8682,-1.8922,-1.9265,-1.9695,-1.9798,-1.9798,-1.9798,-1.9798,-1.9798,-1.9798,-1.9798,-1.9798,-1.9911,-2.0483,-2.1051,-2.1897,-2.3295,-2.4024,-2.3334,-2.4052,-2.4224,-2.356,-2.3258,-2.3095,-2.3095,-2.3095,-2.3108,-2.3108,-2.3138,-2.3095,-2.318,-2.3343,-2.3492,-2.3658,-2.3789,-2.3966,-2.4083,-2.4125,-2.4125,-2.4125,-2.4125,-2.4125,-2.4125,-2.4125,-2.4125,-2.4125,-2.4125,-2.4125,-2.4125,-2.4125,-2.4125,-2.4125,-2.4125,-2.4125,-2.4125,-2.4125,-2.4141,-2.4171,-2.4216,-2.4319,-2.4664,-2.4821,-2.4948,-2.5005,-2.5258,-2.5439,-2.555,-2.5702,-2.5948,-2.5961,-2.5907,-2.5961,-2.6069,-2.5988,-2.5757,-2.5716,-2.5619,-2.5425,-2.5188,-2.4963,-2.4723,-0.6409,-0.6911,-0.7514,-0.8542,-0.9717,-1.0507,-1.1335,-1.2013,-1.2108,-1.2053,-1.1893,-1.1737,-1.1437,-1.1108,-1.1172,-1.1191,-1.1423,-1.2035,-1.2742,-1.3743,-1.4854,-1.5575,-1.5672,-1.5691,-1.572,-1.5865,-1.5894,-1.6009,-1.6239,-1.6503,-1.6849,-1.7257,-1.7699,-1.8348,-1.8987,-1.9212,-1.9488,-1.9721,-1.9798,-1.9798,-1.9798,-1.9798,-1.9798,-1.9798,-1.9798,-1.9798,-1.9849,-2.0347,-2.0613,-2.1246,-2.2791,-2.3729,-2.3048,-2.3848,-2.3975,-2.3335,-2.3095,-2.3095,-2.3095,-2.3095,-2.3125,-2.3241,-2.3228,-2.3288,-2.336,-2.3522,-2.3641,-2.376,-2.3891,-2.4037,-2.4096,-2.4125,-2.4125,-2.4125,-2.4125,-2.4125,-2.4125,-2.4125,-2.4125,-2.4125,-2.4125,-2.4125,-2.4125,-2.4125,-2.4125,-2.4125,-2.4125,-2.4125,-2.4125,-2.4112,-2.4216,-2.4261,-2.429,-2.4492,-2.4934,-2.5159,-2.5257,-2.5313,-2.5425,-2.5481,-2.5522,-2.5702,-2.5893,-2.5893,-2.5893,-2.5893,-2.5948,-2.5893,-2.5839,-2.5674,-2.5522,-2.5425,-2.5285,-2.5033,-2.4793,-0.6685,-0.771,-0.8012,-0.8927,-1.0132,-1.0659,-1.1255,-1.1855,-1.1817,-1.1757,-1.1725,-1.1463,-1.1249,-1.1119,-1.1163,-1.1269,-1.1823,-1.2742,-1.348,-1.3923,-1.501,-1.5585,-1.573,-1.5827,-1.5961,-1.6142,-1.6085,-1.6181,-1.6467,-1.6927,-1.7202,-1.7506,-1.8402,-1.896,-1.9198,-1.9526,-1.9773,-1.9798,-1.9798,-1.9798,-1.9798,-1.9798,-1.9798,-1.9798,-1.9798,-1.9901,-2.0003,-2.0233,-2.0386,-2.0207,-2.1917,-2.2822,-2.3283,-2.3666,-2.3897,-2.3275,-2.3215,-2.3095,-2.3095,-2.3108,-2.3168,-2.333,-2.336,-2.342,-2.3539,-2.37,-2.3832,-2.392,-2.4008,-2.4096,-2.4125,-2.4125,-2.4125,-2.4125,-2.4125,-2.4125,-2.4125,-2.4125,-2.4125,-2.4125,-2.4125,-2.4125,-2.4125,-2.4125,-2.4125,-2.4125,-2.4125,-2.4125,-2.4125,-2.4141,-2.4245,-2.4363,-2.4392,-2.4692,-2.5103,-2.5439,-2.5564,-2.5564,-2.5633,-2.5605,-2.5605,-2.5743,-2.5893,-2.5893,-2.5893,-2.5893,-2.5893,-2.5893,-2.5798,-2.5605,-2.555,-2.5564,-2.5383,-2.5131,-2.4851,-0.7484,-0.8546,-0.9273,-0.9841,-1.026,-1.0742,-1.1238,-1.1569,-1.146,-1.1267,-1.1176,-1.1089,-1.0961,-1.0836,-1.1016,-1.1519,-1.2251,-1.3199,-1.3842,-1.4291,-1.5157,-1.5604,-1.5827,-1.5943,-1.6097,-1.622,-1.6267,-1.6296,-1.6524,-1.6927,-1.7506,-1.8011,-1.867,-1.9225,-1.9552,-1.976,-1.9798,-1.9798,-1.9798,-1.9798,-1.9798,-1.9798,-1.9798,-1.9824,-1.985,-2.0029,-2.0207,-2.0118,-2.0284,-2.1069,-2.1603,-2.231,-2.3018,-2.3686,-2.3917,-2.3809,-2.3335,-2.3095,-2.3095,-2.3138,-2.3108,-2.3168,-2.333,-2.3433,-2.3552,-2.37,-2.3891,-2.3949,-2.4037,-2.4125,-2.4125,-2.4125,-2.4125,-2.4125,-2.4125,-2.4125,-2.4125,-2.4125,-2.4125,-2.4125,-2.4125,-2.4125,-2.4125,-2.4125,-2.4125,-2.4125,-2.4125,-2.4125,-2.4125,-2.4171,-2.4274,-2.4363,-2.4494,-2.4892,-2.5341,-2.5605,-2.5825,-2.5771,-2.5798,-2.5798,-2.5798,-2.5853,-2.5893,-2.5893,-2.5893,-2.5893,-2.5893,-2.5893,-2.588,-2.5743,-2.5743,-2.5715,-2.5356,-2.4997,-2.4746,-0.7834,-0.9301,-0.9765,-1.0255,-1.0803,-1.1052,-1.1418,-1.1722,-1.1456,-1.1281,-1.1176,-1.1095,-1.0965,-1.09,-1.1003,-1.1639,-1.2573,-1.3584,-1.4172,-1.4617,-1.5274,-1.573,-1.5943,-1.6058,-1.6202,-1.642,-1.6531,-1.6691,-1.687,-1.7407,-1.7957,-1.8563,-1.9133,-1.9552,-1.9734,-1.9798,-1.9798,-1.9798,-1.9798,-1.9798,-1.9798,-1.9798,-1.9798,-1.985,-2.0029,-2.022,-2.0118,-2.0321,-2.0271,-2.0604,-2.1207,-2.1962,-2.2695,-2.3256,-2.3738,-2.3884,-2.3484,-2.3095,-2.3138,-2.321,-2.33,-2.339,-2.3539,-2.37,-2.376,-2.3907,-2.4008,-2.4037,-2.4037,-2.4125,-2.4125,-2.4125,-2.4125,-2.4125,-2.4125,-2.4125,-2.4125,-2.4125,-2.4125,-2.4125,-2.4125,-2.4125,-2.4125,-2.4125,-2.4125,-2.4125,-2.4112,-2.4112,-2.4141,-2.4274,-2.4434,-2.4692,-2.4878,-2.5216,-2.555,-2.5716,-2.5893,-2.5893,-2.5893,-2.5893,-2.5893,-2.5893,-2.5893,-2.5893,-2.5893,-2.5822,-2.5879,-2.5865,-2.5879,-2.5795,-2.5502,-2.5253,-2.5092,-2.4888,-2.4476,-0.8351,-1.0143,-1.0143,-1.0594,-1.1249,-1.1269,-1.145,-1.1715,-1.151,-1.1354,-1.139,-1.1129,-1.1031,-1.1153,-1.1394,-1.1942,-1.2909,-1.4103,-1.4499,-1.4863,-1.543,-1.5856,-1.5972,-1.6173,-1.642,-1.6684,-1.6916,-1.7213,-1.7285,-1.7929,-1.8509,-1.8948,-1.9526,-1.9798,-1.9798,-1.9798,-1.9798,-1.9798,-1.9798,-1.9798,-1.9824,-1.9837,-1.9837,-1.9824,-2.0232,-2.0245,-2.0156,-2.0182,-2.022,-2.0309,-2.0738,-2.1521,-2.2304,-2.2671,-2.3229,-2.3875,-2.3501,-2.3228,-2.3198,-2.333,-2.345,-2.3539,-2.376,-2.3907,-2.3995,-2.4008,-2.4096,-2.4125,-2.4125,-2.4125,-2.4125,-2.4125,-2.4125,-2.4125,-2.4125,-2.4125,-2.4125,-2.4125,-2.4125,-2.4125,-2.4125,-2.4125,-2.4125,-2.4125,-2.4125,-2.42,-2.42,-2.429,-2.4319,-2.4549,-2.475,-2.5103,-2.537,-2.5647,-2.5811,-2.5798,-2.5893,-2.5893,-2.5893,-2.5893,-2.5893,-2.5893,-2.5865,-2.5808,-2.5625,-2.5541,-2.5683,-2.5655,-2.5456,-2.5205,-2.4968,-2.467,-2.4363,-2.4041,-2.3703,-0.9648,-1.0962,-1.0962,-1.1037,-1.1143,-1.1088,-1.1169,-1.1397,-1.1325,-1.1292,-1.145,-1.1156,-1.1108,-1.1374,-1.2002,-1.2986,-1.3923,-1.443,-1.4824,-1.5245,-1.5614,-1.5827,-1.5914,-1.6038,-1.6588,-1.7,-1.7202,-1.7202,-1.7562,-1.8402,-1.8881,-1.9146,-1.9552,-1.9798,-1.9798,-1.9798,-1.9798,-1.9798,-1.9824,-1.9862,-1.9952,-1.999,-1.999,-1.9978,-2.0042,-2.0131,-2.0258,-2.0207,-2.0105,-2.0385,-2.0117,-2.0937,-2.2139,-2.2085,-2.2863,-2.3576,-2.375,-2.3373,-2.3403,-2.3522,-2.3611,-2.3671,-2.3802,-2.3891,-2.3979,-2.4067,-2.4125,-2.4125,-2.4125,-2.4125,-2.4125,-2.4125,-2.4125,-2.4125,-2.4125,-2.4125,-2.4125,-2.4125,-2.4125,-2.4125,-2.4125,-2.4125,-2.4125,-2.4125,-2.4112,-2.4187,-2.429,-2.4392,-2.4565,-2.4765,-2.5048,-2.5397,-2.5578,-2.5811,-2.5893,-2.5893,-2.5766,-2.5808,-2.578,-2.5738,-2.5527,-2.5442,-2.5696,-2.5583,-2.5344,-2.5021,-2.4896,-2.4838,-2.4767,-2.4575,-2.4247,-2.3849,-2.3427,-2.3149,-2.2911,-1.0288,-1.0869,-1.1051,-1.1186,-1.1267,-1.1197,-1.1352,-1.1633,-1.1633,-1.1648,-1.1663,-1.1557,-1.1648,-1.2104,-1.3034,-1.3863,-1.4499,-1.4824,-1.5186,-1.5517,-1.573,-1.5875,-1.6114,-1.6464,-1.6978,-1.7257,-1.7836,-1.8309,-1.8444,-1.8643,-1.9131,-1.9448,-1.9682,-1.9798,-1.9798,-1.9798,-1.9862,-1.9926,-1.9991,-2.008,-2.0105,-2.0105,-2.0105,-2.0118,-2.0258,-2.0321,-2.0245,-2.0334,-2.0131,-2.0271,-2.0115,-2.0814,-2.1838,-2.2229,-2.2792,-2.3638,-2.3776,-2.3582,-2.3463,-2.3641,-2.373,-2.3819,-2.392,-2.3995,-2.4037,-2.4067,-2.4125,-2.4125,-2.4125,-2.4125,-2.4125,-2.4125,-2.4125,-2.4125,-2.4125,-2.4125,-2.4125,-2.4125,-2.4125,-2.4125,-2.4125,-2.4125,-2.4112,-2.4128,-2.4216,-2.4334,-2.445,-2.4593,-2.4821,-2.5103,-2.5383,-2.5674,-2.5784,-2.5893,-2.5893,-2.5879,-2.5527,-2.5442,-2.5288,-2.5189,-2.4852,-2.481,-2.5063,-2.4992,-2.4641,-2.4359,-2.4149,-2.4151,-2.425,-2.3912,-2.3495,-2.3089,-2.271,-2.2453,-2.2205,-1.0592,-1.0713,-1.1003,-1.1186,-1.136,-1.1375,-1.1589,-1.1883,-1.1998,-1.1973,-1.1937,-1.2026,-1.2409,-1.3156,-1.4026,-1.4499,-1.4765,-1.5206,-1.5449,-1.5633,-1.5788,-1.5933,-1.62,-1.6719,-1.7268,-1.7451,-1.8375,-1.8895,-1.9107,-1.9277,-1.9448,-1.9773,-1.9773,-1.9798,-1.9798,-1.9824,-1.9862,-1.999,-2.0182,-2.0258,-2.0258,-2.0283,-2.0283,-2.0359,-2.0472,-2.0523,-2.0346,-2.0245,-2.0169,-2.0309,-2.0463,-2.104,-2.1767,-2.2371,-2.2935,-2.3632,-2.3819,-2.3819,-2.37,-2.3772,-2.392,-2.3979,-2.4037,-2.4083,-2.4083,-2.4125,-2.4125,-2.4125,-2.4125,-2.4125,-2.4125,-2.4125,-2.4125,-2.4125,-2.4125,-2.4125,-2.4125,-2.4125,-2.4125,-2.4125,-2.4125,-2.4125,-2.4141,-2.4187,-2.4276,-2.4452,-2.4624,-2.4808,-2.5021,-2.5315,-2.5439,-2.5642,-2.5277,-2.5386,-2.5555,-2.5513,-2.5231,-2.5006,-2.4838,-2.4669,-2.4359,-2.4261,-2.4402,-2.4244,-2.3963,-2.3769,-2.3589,-2.3688,-2.3719,-2.3213,-2.2756,-2.238,-2.2038,-2.1813,-2.1597,-1.0592,-1.0743,-1.1003,-1.1105,-1.1149,-1.1502,-1.1681,-1.1781,-1.2154,-1.2243,-1.2199,-1.2423,-1.3413,-1.4307,-1.4529,-1.4854,-1.5323,-1.5381,-1.5449,-1.5575,-1.572,-1.5933,-1.6343,-1.6916,-1.7573,-1.8066,-1.8804,-1.9317,-1.9592,-1.9604,-1.9721,-1.9798,-1.9798,-1.9798,-1.9824,-1.985,-1.9952,-2.0093,-2.0322,-2.0461,-2.0461,-2.0486,-2.0486,-2.0436,-2.0372,-2.0422,-2.0845,-2.0422,-2.0321,-2.0585,-2.0652,-2.1056,-2.1725,-2.2359,-2.3,-2.3547,-2.394,-2.3923,-2.3891,-2.3949,-2.4067,-2.4096,-2.4096,-2.4125,-2.4125,-2.4125,-2.4125,-2.4125,-2.4125,-2.4125,-2.4125,-2.4125,-2.4125,-2.4125,-2.4125,-2.4125,-2.4125,-2.4125,-2.4125,-2.4125,-2.4099,-2.4102,-2.4006,-2.4026,-2.4383,-2.4568,-2.4979,-2.5175,-2.5135,-2.5338,-2.5378,-2.5289,-2.4657,-2.4627,-2.4922,-2.4824,-2.457,-2.4345,-2.4163,-2.4078,-2.3938,-2.392,-2.3681,-2.3653,-2.3403,-2.3234,-2.3083,-2.3126,-2.2975,-2.2474,-2.206,-2.1827,-2.1549,-2.1289,-2.1099,-1.0679,-1.0942,-1.1069,-1.1117,-1.1143,-1.1521,-1.1706,-1.1848,-1.2652,-1.3172,-1.3334,-1.3966,-1.4415,-1.4754,-1.5061,-1.5147,-1.5381,-1.542,-1.5517,-1.5672,-1.5846,-1.621,-1.6729,-1.739,-1.8066,-1.8643,-1.9186,-1.954,-1.9747,-1.9798,-1.9862,-1.9862,-1.9837,-1.9798,-1.9824,-1.9952,-2.0131,-2.0296,-2.0473,-2.0612,-2.0612,-2.0637,-2.0637,-2.0612,-2.0486,-2.0648,-2.0932,-2.0447,-2.0548,-2.0684,-2.061,-2.1017,-2.1599,-2.2232,-2.2847,-2.3504,-2.39,-2.4041,-2.4037,-2.4067,-2.4125,-2.4125,-2.4125,-2.4125,-2.4125,-2.4125,-2.4125,-2.4125,-2.4125,-2.4125,-2.4125,-2.4125,-2.4125,-2.4125,-2.4125,-2.4125,-2.4086,-2.406,-2.3877,-2.3744,-2.3906,-2.4042,-2.3962,-2.3866,-2.4301,-2.4699,-2.5176,-2.5466,-2.5266,-2.505,-2.5006,-2.481,-2.4205,-2.4036,-2.4331,-2.4163,-2.3909,-2.3713,-2.3477,-2.3403,-2.3291,-2.2911,-2.2742,-2.2784,-2.2883,-2.2728,-2.2606,-2.255,-2.2399,-2.2137,-2.1783,-2.1426,-2.1133,-2.0873,-2.0774,-1.0738,-1.1074,-1.1117,-1.1149,-1.1217,-1.1558,-1.1885,-1.2291,-1.3091,-1.3986,-1.4644,-1.5077,-1.5205,-1.5185,-1.526,-1.5508,-1.5586,-1.5576,-1.5723,-1.5956,-1.6255,-1.6581,-1.7213,-1.7929,-1.8563,-1.9093,-1.95,-1.9798,-1.9798,-1.9798,-1.9888,-1.9926,-1.9926,-1.9888,-1.9991,-2.0144,-2.0347,-2.0511,-2.0637,-2.0699,-2.0674,-2.0674,-2.0674,-2.0724,-2.0749,-2.0934,-2.108,-2.0833,-2.0759,-2.0845,-2.0863,-2.0952,-2.1511,-2.2137,-2.2754,-2.3341,-2.3796,-2.4099,-2.4125,-2.4125,-2.4125,-2.4125,-2.4125,-2.4125,-2.4125,-2.4125,-2.4125,-2.4125,-2.4125,-2.4125,-2.4125,-2.4125,-2.4125,-2.4125,-2.4125,-2.4112,-2.3995,-2.3916,-2.3587,-2.3365,-2.3609,-2.3817,-2.3628,-2.354,-2.3852,-2.4259,-2.4542,-2.4752,-2.4689,-2.4486,-2.4303,-2.4064,-2.3684,-2.367,-2.3741,-2.3417,-2.3136,-2.3023,-2.2802,-2.2676,-2.2517,-2.2236,-2.2194,-2.2405,-2.2433,-2.225,-2.225,-2.2348,-2.2226,-2.201,-2.165,-2.1313,-2.1057,-2.0848,-2.0749,-1.0738,-1.108,-1.1099,-1.1248,-1.1452,-1.1626,-1.2254,-1.3084,-1.352,-1.4374,-1.5395,-1.5251,-1.5448,-1.5784,-1.5683,-1.5811,-1.5998,-1.5881,-1.6018,-1.6375,-1.6746,-1.6973,-1.7529,-1.8278,-1.8922,-1.9107,-1.9488,-1.9798,-1.9798,-1.9837,-1.9926,-2.0016,-2.0054,-2.0105,-2.0195,-2.0372,-2.0486,-2.0524,-2.0637,-2.0674,-2.0699,-2.0699,-2.0699,-2.0774,-2.0972,-2.1131,-2.124,-2.1055,-2.0981,-2.1091,-2.1137,-2.1351,-2.1862,-2.2591,-2.3213,-2.3799,-2.3965,-2.4083,-2.4125,-2.4125,-2.4125,-2.4125,-2.4125,-2.4125,-2.4125,-2.4125,-2.4125,-2.4125,-2.4125,-2.4125,-2.4125,-2.4125,-2.4125,-2.4125,-2.4125,-2.3981,-2.3851,-2.3681,-2.3352,-2.2938,-2.3251,-2.3551,-2.3313,-2.3189,-2.3435,-2.3709,-2.3928,-2.4042,-2.405,-2.3923,-2.3727,-2.3389,-2.3094,-2.308,-2.3023,-2.263,-2.2362,-2.2264,-2.2292,-2.2306,-2.2292,-2.2222,-2.2194,-2.2194,-2.2194,-2.2194,-2.2194,-2.2208,-2.203,-2.1864,-2.1602,-2.1313,-2.1057,-2.0835,-2.0749,-1.0738,-1.1136,-1.1394,-1.1709,-1.2024,-1.2357,-1.2974,-1.3816,-1.4585,-1.5236,-1.5629,-1.5876,-1.6021,-1.6132,-1.6211,-1.6279,-1.6427,-1.6643,-1.6737,-1.6992,-1.7352,-1.7891,-1.834,-1.8721,-1.9186,-1.9488,-1.9773,-1.9824,-1.9798,-1.9888,-1.9991,-2.0105,-2.0348,-2.0423,-2.0436,-2.0486,-2.0524,-2.0599,-2.0674,-2.0699,-2.0699,-2.0699,-2.0699,-2.0737,-2.0909,-2.1155,-2.135,-2.1093,-2.1104,-2.1231,-2.1269,-2.1497,-2.1942,-2.2564,-2.3234,-2.3629,-2.377,-2.4112,-2.4125,-2.4125,-2.4125,-2.4125,-2.4125,-2.4125,-2.4125,-2.4125,-2.4125,-2.4125,-2.4125,-2.4125,-2.4125,-2.4125,-2.4125,-2.4125,-2.4047,-2.377,-2.3574,-2.3378,-2.3106,-2.252,-2.2498,-2.2936,-2.2979,-2.2873,-2.3042,-2.3184,-2.3413,-2.3477,-2.3487,-2.3375,-2.3182,-2.2784,-2.2503,-2.2461,-2.2334,-2.225,-2.2208,-2.2236,-2.2236,-2.2222,-2.2208,-2.2194,-2.2194,-2.2194,-2.2194,-2.2194,-2.2194,-2.2147,-2.1935,-2.1722,-2.1506,-2.1215,-2.0909,-2.0774,-2.0724,-1.0557,-1.0822,-1.111,-1.1697,-1.2423,-1.2784,-1.3461,-1.4476,-1.5599,-1.6007,-1.5984,-1.6432,-1.6475,-1.6221,-1.6191,-1.6541,-1.666,-1.6804,-1.7104,-1.7427,-1.7904,-1.8362,-1.8824,-1.921,-1.9474,-1.9759,-1.9875,-1.9875,-1.9888,-2.0003,-2.0144,-2.0386,-2.0731,-2.0756,-2.0691,-2.0587,-2.0612,-2.0674,-2.0699,-2.0699,-2.0699,-2.0699,-2.0699,-2.0799,-2.0983,-2.124,-2.1166,-2.1155,-2.1131,-2.124,-2.1255,-2.1459,-2.1904,-2.2413,-2.3145,-2.3511,-2.3825,-2.4112,-2.4125,-2.4125,-2.4125,-2.4125,-2.4125,-2.4125,-2.4125,-2.4125,-2.4125,-2.4125,-2.4125,-2.4099,-2.4086,-2.4086,-2.406,-2.4047,-2.3929,-2.3652,-2.3289,-2.308,-2.2704,-2.2141,-2.2098,-2.2454,-2.2749,-2.2644,-2.2632,-2.275,-2.2869,-2.2911,-2.2953,-2.2845,-2.276,-2.2451,-2.2236,-2.2264,-2.2278,-2.2222,-2.2194,-2.2194,-2.2194,-2.2194,-2.2194,-2.2194,-2.2194,-2.2194,-2.2194,-2.2194,-2.2194,-2.21,-2.1935,-2.1698,-2.1458,-2.1142,-2.0761,-2.0699,-2.0699,-1.0171,-1.031,-1.0355,-1.1294,-1.2576,-1.2919,-1.3836,-1.5214,-1.6315,-1.6491,-1.6135,-1.6435,-1.6475,-1.6134,-1.5742,-1.6054,-1.6643,-1.6716,-1.7099,-1.7595,-1.828,-1.8755,-1.9182,-1.9574,-1.9856,-1.9924,-2.0001,-2.0179,-2.0054,-2.0144,-2.0322,-2.0577,-2.0964,-2.0936,-2.0779,-2.0674,-2.0674,-2.0699,-2.0699,-2.0699,-2.0699,-2.0774,-2.0823,-2.1008,-2.1337,-2.1418,-2.1407,-2.138,-2.1282,-2.1126,-2.0843,-2.1485,-2.2022,-2.2414,-2.3145,-2.3746,-2.4073,-2.4112,-2.4125,-2.4125,-2.4125,-2.4125,-2.4125,-2.4125,-2.4125,-2.4125,-2.4125,-2.4125,-2.4112,-2.406,-2.3992,-2.3939,-2.3887,-2.3877,-2.3825,-2.35,-2.3042,-2.2705,-2.23,-2.2059,-2.2126,-2.2394,-2.2641,-2.2606,-2.2419,-2.2433,-2.2517,-2.2489,-2.2517,-2.2475,-2.2405,-2.2376,-2.2208,-2.2208,-2.2194,-2.2194,-2.2194,-2.2194,-2.2194,-2.2194,-2.2194,-2.2194,-2.2194,-2.2194,-2.2194,-2.2194,-2.2194,-2.21,-2.1973,-2.1722,-2.1434,-2.1155,-2.0799,-2.0724,-2.0699,-1.0055,-1.0378,-1.1122,-1.185,-1.2582,-1.3603,-1.4475,-1.5192,-1.5757,-1.5759,-1.5379,-1.6011,-1.6328,-1.6473,-1.6385,-1.6668,-1.6924,-1.7179,-1.7527,-1.8046,-1.8646,-1.9096,-1.9585,-2.0071,-2.0352,-2.0441,-2.0533,-2.06,-2.0588,-2.0566,-2.0551,-2.0702,-2.0989,-2.0883,-2.083,-2.0699,-2.0699,-2.0749,-2.0774,-2.0774,-2.086,-2.1033,-2.1131,-2.1385,-2.1554,-2.1656,-2.183,-2.1392,-2.1259,-2.1286,-2.1224,-2.1707,-2.2283,-2.2753,-2.3393,-2.3968,-2.4112,-2.4125,-2.4125,-2.4112,-2.4073,-2.4034,-2.4034,-2.4112,-2.4125,-2.4034,-2.4021,-2.4008,-2.3877,-2.3733,-2.3563,-2.3485,-2.3409,-2.3306,-2.3255,-2.3009,-2.2629,-2.2419,-2.2018,-2.1886,-2.1967,-2.2197,-2.2474,-2.2451,-2.2292,-2.2222,-2.2194,-2.2194,-2.2194,-2.2194,-2.2194,-2.2194,-2.2194,-2.2194,-2.2194,-2.2194,-2.2194,-2.2194,-2.2194,-2.2194,-2.2194,-2.2194,-2.2194,-2.2194,-2.2194,-2.2194,-2.2194,-2.21,-2.202,-2.1674,-2.1361,-2.1106,-2.0873,-2.0774,-2.0699,-0.9946,-1.043,-1.1077,-1.1823,-1.2782,-1.3956,-1.4662,-1.4934,-1.5388,-1.5455,-1.5314,-1.5876,-1.6232,-1.6387,-1.6416,-1.6584,-1.6833,-1.7378,-1.7747,-1.7966,-1.8936,-1.9477,-2.0011,-2.0377,-2.0591,-2.0745,-2.0903,-2.1049,-2.1128,-2.1314,-2.1355,-2.1394,-2.1223,-2.1027,-2.0988,-2.0869,-2.0848,-2.0934,-2.0983,-2.0972,-2.1155,-2.1434,-2.1612,-2.1708,-2.1803,-2.2138,-2.2297,-2.1647,-2.1695,-2.1563,-2.1472,-2.1773,-2.2452,-2.3093,-2.3616,-2.4112,-2.4125,-2.4125,-2.4086,-2.3825,-2.3799,-2.3707,-2.3574,-2.3393,-2.3485,-2.3472,-2.3589,-2.3655,-2.3459,-2.3263,-2.3067,-2.2871,-2.2757,-2.2614,-2.2524,-2.2445,-2.2285,-2.212,-2.1907,-2.1708,-2.1801,-2.2038,-2.2152,-2.217,-2.2194,-2.2194,-2.2194,-2.2194,-2.2194,-2.2194,-2.2194,-2.2194,-2.2194,-2.2194,-2.2194,-2.2194,-2.2194,-2.2194,-2.2194,-2.2194,-2.2194,-2.2194,-2.2194,-2.2194,-2.2194,-2.2194,-2.2194,-2.2184,-2.2067,-2.1674,-2.1337,-2.1106,-2.0898,-2.0749,-2.0699,-0.9852,-1.0543,-1.0643,-1.1747,-1.3117,-1.4109,-1.4494,-1.4582,-1.5238,-1.555,-1.5573,-1.5845,-1.6016,-1.6163,-1.6114,-1.6124,-1.6556,-1.7214,-1.7635,-1.7705,-1.9158,-1.9843,-1.9991,-2.039,-2.0641,-2.0786,-2.0945,-2.1168,-2.1635,-2.168,-2.1721,-2.2298,-2.1603,-2.1392,-2.1685,-2.1109,-2.1095,-2.1434,-2.1541,-2.1612,-2.1626,-2.1874,-2.2189,-2.2258,-2.252,-2.2803,-2.2714,-2.2605,-2.2578,-2.1964,-2.1747,-2.2062,-2.2662,-2.3404,-2.3942,-2.4099,-2.4112,-2.3995,-2.3851,-2.3535,-2.3289,-2.3054,-2.2727,-2.2675,-2.2818,-2.3016,-2.3132,-2.3132,-2.2964,-2.2744,-2.2548,-2.2457,-2.2339,-2.2246,-2.2177,-2.2144,-2.2094,-2.2054,-2.2062,-2.1924,-2.1949,-2.2123,-2.2147,-2.2194,-2.2194,-2.2194,-2.2194,-2.2194,-2.2194,-2.2194,-2.2194,-2.2194,-2.2194,-2.2194,-2.2194,-2.2194,-2.2194,-2.2194,-2.2194,-2.2194,-2.2194,-2.2194,-2.2194,-2.2194,-2.2194,-2.2194,-2.217,-2.2137,-2.1949,-2.1578,-2.1288,-2.1131,-2.0947,-2.0749,-2.0699,-0.9777,-1.0649,-1.1872,-1.2948,-1.3769,-1.4288,-1.4485,-1.4554,-1.4946,-1.5171,-1.5181,-1.5359,-1.5682,-1.5997,-1.5801,-1.5821,-1.6267,-1.7038,-1.7312,-1.7883,-1.905,-1.9915,-1.9934,-2.044,-2.0679,-2.0772,-2.0946,-2.1236,-2.142,-2.1472,-2.1664,-2.2279,-2.1764,-2.1696,-2.2531,-2.1839,-2.1577,-2.1945,-2.2203,-2.2189,-2.2119,-2.2397,-2.2717,-2.274,-2.2917,-2.3378,-2.3368,-2.3301,-2.3136,-2.2795,-2.2812,-2.2898,-2.3042,-2.3707,-2.4047,-2.4112,-2.4073,-2.3851,-2.3509,-2.3182,-2.291,-2.2635,-2.2427,-2.2414,-2.2467,-2.2545,-2.2571,-2.2519,-2.2402,-2.2207,-2.2075,-2.2008,-2.1993,-2.1918,-2.1853,-2.189,-2.1938,-2.2052,-2.2178,-2.2203,-2.2175,-2.2184,-2.2194,-2.2194,-2.2194,-2.2194,-2.2194,-2.2194,-2.2194,-2.2194,-2.2194,-2.2194,-2.2194,-2.2194,-2.2194,-2.2194,-2.2194,-2.2194,-2.2194,-2.2194,-2.2194,-2.2194,-2.2194,-2.2194,-2.2194,-2.2194,-2.2123,-2.1996,-2.1759,-2.1458,-2.1215,-2.1033,-2.0898,-2.0699,-2.0699,-0.9932,-1.1118,-1.2765,-1.37,-1.4139,-1.4387,-1.4485,-1.4536,-1.4764,-1.4911,-1.5029,-1.5215,-1.5478,-1.587,-1.5723,-1.5713,-1.6168,-1.7061,-1.7533,-1.8059,-1.8994,-1.9865,-2.0296,-2.0528,-2.0921,-2.1116,-2.1705,-2.1936,-2.1668,-2.2285,-2.2828,-2.3224,-2.2674,-2.2528,-2.3375,-2.2658,-2.2243,-2.2443,-2.2828,-2.2836,-2.2672,-2.3009,-2.3187,-2.3201,-2.3356,-2.3764,-2.3782,-2.3679,-2.3632,-2.3407,-2.3274,-2.2911,-2.2957,-2.3315,-2.3799,-2.39,-2.3822,-2.3563,-2.3143,-2.2738,-2.2413,-2.21,-2.1708,-2.1577,-2.1485,-2.1577,-2.1786,-2.1747,-2.1538,-2.134,-2.1453,-2.1437,-2.1672,-2.1719,-2.1786,-2.1863,-2.1989,-2.2141,-2.2184,-2.218,-2.217,-2.217,-2.2194,-2.2194,-2.2194,-2.2194,-2.2194,-2.2194,-2.2194,-2.2194,-2.2194,-2.2194,-2.2194,-2.2194,-2.2194,-2.2194,-2.2194,-2.2194,-2.2194,-2.2194,-2.2194,-2.2194,-2.2194,-2.2194,-2.2194,-2.2194,-2.21,-2.1926,-2.1712,-2.1458,-2.1191,-2.0959,-2.081,-2.0699,-2.0699,-1.018,-1.1695,-1.3321,-1.41,-1.4297,-1.4426,-1.4485,-1.4545,-1.4666,-1.4843,-1.5029,-1.5274,-1.5391,-1.5557,-1.59,-1.587,-1.6335,-1.7497,-1.7968,-1.8511,-1.9695,-2.0028,-2.0324,-2.0695,-2.1055,-2.1597,-2.2214,-2.2567,-2.2669,-2.3192,-2.3716,-2.4669,-2.4603,-2.4187,-2.4074,-2.3702,-2.334,-2.3273,-2.3384,-2.3364,-2.3459,-2.3595,-2.3551,-2.3551,-2.3611,-2.3689,-2.3821,-2.3931,-2.4,-2.349,-2.3163,-2.2777,-2.2655,-2.2897,-2.3237,-2.343,-2.3302,-2.3054,-2.2727,-2.2086,-2.1707,-2.1328,-2.0896,-2.0764,-2.0777,-2.087,-2.108,-2.1053,-2.0882,-2.0891,-2.1014,-2.1184,-2.1437,-2.1712,-2.1831,-2.1902,-2.2067,-2.2184,-2.2184,-2.2194,-2.2194,-2.2194,-2.2194,-2.2194,-2.2194,-2.2194,-2.2194,-2.2194,-2.2194,-2.2231,-2.2231,-2.2231,-2.2231,-2.2231,-2.2194,-2.2194,-2.2194,-2.2194,-2.2194,-2.2194,-2.2194,-2.2194,-2.2194,-2.2194,-2.2194,-2.2194,-2.2053,-2.1878,-2.165,-2.141,-2.1106,-2.0848,-2.0785,-2.0699,-2.0699,-1.0243,-1.1857,-1.3359,-1.41,-1.4327,-1.4446,-1.4485,-1.4545,-1.4823,-1.497,-1.5059,-1.5274,-1.542,-1.5449,-1.6,-1.6239,-1.6537,-1.779,-1.8383,-1.8825,-1.9633,-1.9921,-2.0291,-2.0865,-2.1076,-2.1582,-2.212,-2.2418,-2.3125,-2.3472,-2.4243,-2.5566,-2.4662,-2.478,-2.5771,-2.5184,-2.4378,-2.4138,-2.397,-2.4,-2.3546,-2.3595,-2.3595,-2.3595,-2.3588,-2.3977,-2.426,-2.4431,-2.3967,-2.3269,-2.2559,-2.2351,-2.2312,-2.2453,-2.2688,-2.2844,-2.2688,-2.2387,-2.1995,-2.1629,-2.1302,-2.0988,-2.0712,-2.0712,-2.0725,-2.0738,-2.0869,-2.0894,-2.0813,-2.0999,-2.112,-2.1291,-2.1544,-2.1864,-2.2077,-2.2077,-2.2147,-2.217,-2.2194,-2.2194,-2.2194,-2.2194,-2.2194,-2.2194,-2.2194,-2.2194,-2.2194,-2.2194,-2.2194,-2.2231,-2.2231,-2.2231,-2.2231,-2.2231,-2.2194,-2.2194,-2.2194,-2.2194,-2.2194,-2.2194,-2.2194,-2.2194,-2.2194,-2.2194,-2.2194,-2.2194,-2.203,-2.1855,-2.1602,-2.1337,-2.0997,-2.0724,-2.0699,-2.0699,-2.0699]}]]